<?xml version="1.0" encoding="UTF-8" standalone="no" ?>
<gpx xmlns="http://www.topografix.com/GPX/1/1" xmlns:xsi="http://www.w3.org/2001/XMLSchema-instance" xsi:schemaLocation="http://www.topografix.com/GPX/1/1 http://www.topografix.com/GPX/1/1/gpx.xsd" version="1.1" creator="VisuGPX - https://www.visugpx.com">
  <metadata>
    <name>Saint Martin de Pallières - Esparron</name>
    <desc><![CDATA[Une randonnée sans difficultés. Visites des deux villages de Saint Martin de Pallières et Esparron de Pallières. Très beau point de vue sur la plaine et les villages. Les chaines de montagnes en arrière plan.]]></desc>
  </metadata>
  <wpt lat="43.5864" lon="5.89054">
    <ele>531.9</ele>
    <name><![CDATA[PtV]]></name>
    <type><![CDATA[vue]]></type>
  </wpt>
  <trk>
    <name><![CDATA[St Martin de Pallières - Esparron]]></name>
    <extensions>
      <line xmlns="http://www.topografix.com/GPX/gpx_style/0/2">
        <color>ff0000</color>
        <opacity>1</opacity>
        <width>5</width>
      </line>
    </extensions>
    <trkseg>
      <trkpt lat="43.58887" lon="5.88383">
        <ele>467.8</ele>
        <time>2024-02-29T09:25:02Z</time>
      </trkpt>
      <trkpt lat="43.58882" lon="5.88378">
        <ele>467.3</ele>
        <time>2024-02-29T09:25:08.583Z</time>
      </trkpt>
      <trkpt lat="43.58877" lon="5.88373">
        <ele>467</ele>
        <time>2024-02-29T09:25:15.166Z</time>
      </trkpt>
      <trkpt lat="43.58871" lon="5.88367">
        <ele>466.9</ele>
        <time>2024-02-29T09:25:21.749Z</time>
      </trkpt>
      <trkpt lat="43.58866" lon="5.88362">
        <ele>467.1</ele>
        <time>2024-02-29T09:25:28.334Z</time>
      </trkpt>
      <trkpt lat="43.58874" lon="5.88366">
        <ele>466.2</ele>
        <time>2024-02-29T09:25:36.975Z</time>
      </trkpt>
      <trkpt lat="43.58882" lon="5.8837">
        <ele>465.5</ele>
        <time>2024-02-29T09:25:45.616Z</time>
      </trkpt>
      <trkpt lat="43.58885" lon="5.88372">
        <ele>465.4</ele>
        <time>2024-02-29T09:25:49Z</time>
      </trkpt>
      <trkpt lat="43.58891" lon="5.88375">
        <ele>465.3</ele>
        <time>2024-02-29T09:25:55.000Z</time>
      </trkpt>
      <trkpt lat="43.58896" lon="5.88378">
        <ele>465.2</ele>
        <time>2024-02-29T09:26:01Z</time>
      </trkpt>
      <trkpt lat="43.58902" lon="5.8838">
        <ele>464.7</ele>
        <time>2024-02-29T09:26:56Z</time>
      </trkpt>
      <trkpt lat="43.58909" lon="5.88381">
        <ele>463.9</ele>
        <time>2024-02-29T09:27:01.500Z</time>
      </trkpt>
      <trkpt lat="43.58915" lon="5.88382">
        <ele>463</ele>
        <time>2024-02-29T09:27:07Z</time>
      </trkpt>
      <trkpt lat="43.58913" lon="5.88382">
        <ele>463.4</ele>
        <time>2024-02-29T09:27:19Z</time>
      </trkpt>
      <trkpt lat="43.58913" lon="5.88379">
        <ele>462.8</ele>
        <time>2024-02-29T09:27:43Z</time>
      </trkpt>
      <trkpt lat="43.58907" lon="5.88377">
        <ele>463.3</ele>
        <time>2024-02-29T09:28:00Z</time>
      </trkpt>
      <trkpt lat="43.58903" lon="5.88375">
        <ele>463.5</ele>
        <time>2024-02-29T09:28:03.051Z</time>
      </trkpt>
      <trkpt lat="43.58899" lon="5.88373">
        <ele>463.6</ele>
        <time>2024-02-29T09:28:06.102Z</time>
      </trkpt>
      <trkpt lat="43.58897" lon="5.88369">
        <ele>462.9</ele>
        <time>2024-02-29T09:28:08.627Z</time>
      </trkpt>
      <trkpt lat="43.589" lon="5.88364">
        <ele>461.4</ele>
        <time>2024-02-29T09:28:12Z</time>
      </trkpt>
      <trkpt lat="43.58905" lon="5.88358">
        <ele>459.7</ele>
        <time>2024-02-29T09:28:20.081Z</time>
      </trkpt>
      <trkpt lat="43.58906" lon="5.88355">
        <ele>459.1</ele>
        <time>2024-02-29T09:28:23Z</time>
      </trkpt>
      <trkpt lat="43.58908" lon="5.88353">
        <ele>458.6</ele>
        <time>2024-02-29T09:28:28.061Z</time>
      </trkpt>
      <trkpt lat="43.58908" lon="5.88349">
        <ele>457.9</ele>
        <time>2024-02-29T09:28:34Z</time>
      </trkpt>
      <trkpt lat="43.58903" lon="5.88344">
        <ele>457.4</ele>
        <time>2024-02-29T09:29:00.499Z</time>
      </trkpt>
      <trkpt lat="43.58898" lon="5.88339">
        <ele>456.8</ele>
        <time>2024-02-29T09:29:27Z</time>
      </trkpt>
      <trkpt lat="43.58891" lon="5.88334">
        <ele>456.1</ele>
        <time>2024-02-29T09:29:33.999Z</time>
      </trkpt>
      <trkpt lat="43.58884" lon="5.88329">
        <ele>456.3</ele>
        <time>2024-02-29T09:29:41Z</time>
      </trkpt>
      <trkpt lat="43.58876" lon="5.88324">
        <ele>456.8</ele>
        <time>2024-02-29T09:29:47.946Z</time>
      </trkpt>
      <trkpt lat="43.58871" lon="5.88316">
        <ele>455.8</ele>
        <time>2024-02-29T09:29:54Z</time>
      </trkpt>
      <trkpt lat="43.58867" lon="5.8831">
        <ele>454.7</ele>
        <time>2024-02-29T09:30:00.999Z</time>
      </trkpt>
      <trkpt lat="43.58863" lon="5.88304">
        <ele>453.4</ele>
        <time>2024-02-29T09:30:08Z</time>
      </trkpt>
      <trkpt lat="43.58861" lon="5.88298">
        <ele>451.6</ele>
        <time>2024-02-29T09:30:13.999Z</time>
      </trkpt>
      <trkpt lat="43.58859" lon="5.88292">
        <ele>449.8</ele>
        <time>2024-02-29T09:30:20Z</time>
      </trkpt>
      <trkpt lat="43.58854" lon="5.88289">
        <ele>449.4</ele>
        <time>2024-02-29T09:30:25.499Z</time>
      </trkpt>
      <trkpt lat="43.58849" lon="5.88286">
        <ele>448.8</ele>
        <time>2024-02-29T09:30:31Z</time>
      </trkpt>
      <trkpt lat="43.58843" lon="5.88285">
        <ele>448.8</ele>
        <time>2024-02-29T09:30:37.000Z</time>
      </trkpt>
      <trkpt lat="43.58836" lon="5.88283">
        <ele>448.8</ele>
        <time>2024-02-29T09:30:43Z</time>
      </trkpt>
      <trkpt lat="43.58829" lon="5.88282">
        <ele>448.4</ele>
        <time>2024-02-29T09:30:50.000Z</time>
      </trkpt>
      <trkpt lat="43.58822" lon="5.88281">
        <ele>447.6</ele>
        <time>2024-02-29T09:30:57Z</time>
      </trkpt>
      <trkpt lat="43.58817" lon="5.8828">
        <ele>447.1</ele>
        <time>2024-02-29T09:30:59.060Z</time>
      </trkpt>
      <trkpt lat="43.58812" lon="5.88279">
        <ele>446.5</ele>
        <time>2024-02-29T09:31:01.121Z</time>
      </trkpt>
      <trkpt lat="43.58806" lon="5.88277">
        <ele>446</ele>
        <time>2024-02-29T09:31:03.638Z</time>
      </trkpt>
      <trkpt lat="43.58799" lon="5.88271">
        <ele>447.6</ele>
        <time>2024-02-29T09:31:07Z</time>
      </trkpt>
      <trkpt lat="43.58799" lon="5.88264">
        <ele>446.9</ele>
        <time>2024-02-29T09:31:10.401Z</time>
      </trkpt>
      <trkpt lat="43.58798" lon="5.88256">
        <ele>446.1</ele>
        <time>2024-02-29T09:31:13.804Z</time>
      </trkpt>
      <trkpt lat="43.588" lon="5.88252">
        <ele>445.2</ele>
        <time>2024-02-29T09:31:16Z</time>
      </trkpt>
      <trkpt lat="43.58802" lon="5.88248">
        <ele>445.1</ele>
        <time>2024-02-29T09:31:17.688Z</time>
      </trkpt>
      <trkpt lat="43.58805" lon="5.88242">
        <ele>446.4</ele>
        <time>2024-02-29T09:31:20.220Z</time>
      </trkpt>
      <trkpt lat="43.58812" lon="5.88237">
        <ele>446.3</ele>
        <time>2024-02-29T09:31:24Z</time>
      </trkpt>
      <trkpt lat="43.58818" lon="5.88235">
        <ele>445.8</ele>
        <time>2024-02-29T09:31:28.500Z</time>
      </trkpt>
      <trkpt lat="43.58823" lon="5.88233">
        <ele>445.3</ele>
        <time>2024-02-29T09:31:33Z</time>
      </trkpt>
      <trkpt lat="43.58829" lon="5.8823">
        <ele>445.2</ele>
        <time>2024-02-29T09:31:39.500Z</time>
      </trkpt>
      <trkpt lat="43.58835" lon="5.88226">
        <ele>445</ele>
        <time>2024-02-29T09:31:46Z</time>
      </trkpt>
      <trkpt lat="43.58841" lon="5.88219">
        <ele>445.5</ele>
        <time>2024-02-29T09:31:51.500Z</time>
      </trkpt>
      <trkpt lat="43.58846" lon="5.88212">
        <ele>446</ele>
        <time>2024-02-29T09:31:57Z</time>
      </trkpt>
      <trkpt lat="43.58851" lon="5.88207">
        <ele>446</ele>
        <time>2024-02-29T09:32:01.000Z</time>
      </trkpt>
      <trkpt lat="43.58855" lon="5.88201">
        <ele>445.5</ele>
        <time>2024-02-29T09:32:05Z</time>
      </trkpt>
      <trkpt lat="43.5886" lon="5.88194">
        <ele>444.9</ele>
        <time>2024-02-29T09:32:09.500Z</time>
      </trkpt>
      <trkpt lat="43.58865" lon="5.88187">
        <ele>445.9</ele>
        <time>2024-02-29T09:32:14Z</time>
      </trkpt>
      <trkpt lat="43.5887" lon="5.88181">
        <ele>446.1</ele>
        <time>2024-02-29T09:32:18.000Z</time>
      </trkpt>
      <trkpt lat="43.58874" lon="5.88175">
        <ele>445.8</ele>
        <time>2024-02-29T09:32:22Z</time>
      </trkpt>
      <trkpt lat="43.58878" lon="5.8817">
        <ele>445.3</ele>
        <time>2024-02-29T09:32:26.500Z</time>
      </trkpt>
      <trkpt lat="43.58881" lon="5.88164">
        <ele>444.4</ele>
        <time>2024-02-29T09:32:31Z</time>
      </trkpt>
      <trkpt lat="43.58886" lon="5.88159">
        <ele>442.5</ele>
        <time>2024-02-29T09:32:36.474Z</time>
      </trkpt>
      <trkpt lat="43.5889" lon="5.88154">
        <ele>441</ele>
        <time>2024-02-29T09:32:41.948Z</time>
      </trkpt>
      <trkpt lat="43.58894" lon="5.88149">
        <ele>441.6</ele>
        <time>2024-02-29T09:32:46.974Z</time>
      </trkpt>
      <trkpt lat="43.58897" lon="5.88143">
        <ele>442.2</ele>
        <time>2024-02-29T09:32:52Z</time>
      </trkpt>
      <trkpt lat="43.58903" lon="5.88139">
        <ele>442.1</ele>
        <time>2024-02-29T09:32:57.500Z</time>
      </trkpt>
      <trkpt lat="43.58909" lon="5.88134">
        <ele>442.8</ele>
        <time>2024-02-29T09:33:03Z</time>
      </trkpt>
      <trkpt lat="43.58914" lon="5.88134">
        <ele>441.6</ele>
        <time>2024-02-29T09:33:07.500Z</time>
      </trkpt>
      <trkpt lat="43.58919" lon="5.88134">
        <ele>440.7</ele>
        <time>2024-02-29T09:33:12Z</time>
      </trkpt>
      <trkpt lat="43.58924" lon="5.88135">
        <ele>440.1</ele>
        <time>2024-02-29T09:33:18.500Z</time>
      </trkpt>
      <trkpt lat="43.58928" lon="5.88135">
        <ele>439.6</ele>
        <time>2024-02-29T09:33:25Z</time>
      </trkpt>
      <trkpt lat="43.58933" lon="5.88135">
        <ele>439.3</ele>
        <time>2024-02-29T09:39:29.000Z</time>
      </trkpt>
      <trkpt lat="43.58937" lon="5.88134">
        <ele>439.1</ele>
        <time>2024-02-29T09:45:33Z</time>
      </trkpt>
      <trkpt lat="43.58945" lon="5.88135">
        <ele>438.1</ele>
        <time>2024-02-29T09:46:40Z</time>
      </trkpt>
      <trkpt lat="43.58952" lon="5.88134">
        <ele>437.9</ele>
        <time>2024-02-29T09:46:45.000Z</time>
      </trkpt>
      <trkpt lat="43.58958" lon="5.88132">
        <ele>437.6</ele>
        <time>2024-02-29T09:46:50Z</time>
      </trkpt>
      <trkpt lat="43.58965" lon="5.8813">
        <ele>437.4</ele>
        <time>2024-02-29T09:46:54.500Z</time>
      </trkpt>
      <trkpt lat="43.58971" lon="5.88128">
        <ele>437.1</ele>
        <time>2024-02-29T09:46:59Z</time>
      </trkpt>
      <trkpt lat="43.58976" lon="5.88125">
        <ele>436.9</ele>
        <time>2024-02-29T09:47:03.500Z</time>
      </trkpt>
      <trkpt lat="43.5898" lon="5.88121">
        <ele>436.6</ele>
        <time>2024-02-29T09:47:08Z</time>
      </trkpt>
      <trkpt lat="43.58985" lon="5.88118">
        <ele>436.2</ele>
        <time>2024-02-29T09:47:12.000Z</time>
      </trkpt>
      <trkpt lat="43.58989" lon="5.88115">
        <ele>435.8</ele>
        <time>2024-02-29T09:47:16Z</time>
      </trkpt>
      <trkpt lat="43.58994" lon="5.88111">
        <ele>435.3</ele>
        <time>2024-02-29T09:47:21.000Z</time>
      </trkpt>
      <trkpt lat="43.58999" lon="5.88107">
        <ele>435.1</ele>
        <time>2024-02-29T09:47:26Z</time>
      </trkpt>
      <trkpt lat="43.59006" lon="5.88102">
        <ele>435.2</ele>
        <time>2024-02-29T09:47:33.500Z</time>
      </trkpt>
      <trkpt lat="43.59012" lon="5.88097">
        <ele>435.1</ele>
        <time>2024-02-29T09:47:41Z</time>
      </trkpt>
      <trkpt lat="43.59017" lon="5.88093">
        <ele>434.8</ele>
        <time>2024-02-29T09:47:45.231Z</time>
      </trkpt>
      <trkpt lat="43.59021" lon="5.88088">
        <ele>434.3</ele>
        <time>2024-02-29T09:47:49.462Z</time>
      </trkpt>
      <trkpt lat="43.59024" lon="5.88086">
        <ele>433.8</ele>
        <time>2024-02-29T09:47:52Z</time>
      </trkpt>
      <trkpt lat="43.5903" lon="5.88081">
        <ele>433.1</ele>
        <time>2024-02-29T09:48:01Z</time>
      </trkpt>
      <trkpt lat="43.59035" lon="5.88076">
        <ele>433.1</ele>
        <time>2024-02-29T09:48:09Z</time>
      </trkpt>
      <trkpt lat="43.59042" lon="5.88071">
        <ele>432.6</ele>
        <time>2024-02-29T09:48:17Z</time>
      </trkpt>
      <trkpt lat="43.59041" lon="5.88064">
        <ele>433.4</ele>
        <time>2024-02-29T09:48:20.771Z</time>
      </trkpt>
      <trkpt lat="43.59041" lon="5.88056">
        <ele>434.1</ele>
        <time>2024-02-29T09:48:25Z</time>
      </trkpt>
      <trkpt lat="43.59045" lon="5.88048">
        <ele>434.2</ele>
        <time>2024-02-29T09:48:35Z</time>
      </trkpt>
      <trkpt lat="43.59047" lon="5.8804">
        <ele>435</ele>
        <time>2024-02-29T09:48:50Z</time>
      </trkpt>
      <trkpt lat="43.59046" lon="5.88037">
        <ele>435.5</ele>
        <time>2024-02-29T09:49:07Z</time>
      </trkpt>
      <trkpt lat="43.59049" lon="5.88042">
        <ele>434.4</ele>
        <time>2024-02-29T09:49:40Z</time>
      </trkpt>
      <trkpt lat="43.59054" lon="5.88039">
        <ele>434.2</ele>
        <time>2024-02-29T09:49:47.189Z</time>
      </trkpt>
      <trkpt lat="43.59059" lon="5.88036">
        <ele>434.5</ele>
        <time>2024-02-29T09:49:54.379Z</time>
      </trkpt>
      <trkpt lat="43.59064" lon="5.88032">
        <ele>435.2</ele>
        <time>2024-02-29T09:50:02Z</time>
      </trkpt>
      <trkpt lat="43.5907" lon="5.88032">
        <ele>435.2</ele>
        <time>2024-02-29T09:50:07.500Z</time>
      </trkpt>
      <trkpt lat="43.59075" lon="5.88032">
        <ele>435.1</ele>
        <time>2024-02-29T09:50:13Z</time>
      </trkpt>
      <trkpt lat="43.59082" lon="5.88031">
        <ele>435.3</ele>
        <time>2024-02-29T09:50:18.379Z</time>
      </trkpt>
      <trkpt lat="43.59088" lon="5.8803">
        <ele>435</ele>
        <time>2024-02-29T09:50:23Z</time>
      </trkpt>
      <trkpt lat="43.59093" lon="5.88029">
        <ele>434.8</ele>
        <time>2024-02-29T09:50:29.000Z</time>
      </trkpt>
      <trkpt lat="43.59097" lon="5.88028">
        <ele>434.5</ele>
        <time>2024-02-29T09:50:35Z</time>
      </trkpt>
      <trkpt lat="43.59102" lon="5.88025">
        <ele>434.8</ele>
        <time>2024-02-29T09:50:41.500Z</time>
      </trkpt>
      <trkpt lat="43.59107" lon="5.88022">
        <ele>435.3</ele>
        <time>2024-02-29T09:50:48Z</time>
      </trkpt>
      <trkpt lat="43.59113" lon="5.88018">
        <ele>436.1</ele>
        <time>2024-02-29T09:50:52.750Z</time>
      </trkpt>
      <trkpt lat="43.59118" lon="5.88013">
        <ele>436.7</ele>
        <time>2024-02-29T09:50:57.500Z</time>
      </trkpt>
      <trkpt lat="43.59124" lon="5.88009">
        <ele>437.2</ele>
        <time>2024-02-29T09:51:02.250Z</time>
      </trkpt>
      <trkpt lat="43.59129" lon="5.88004">
        <ele>437.6</ele>
        <time>2024-02-29T09:51:07Z</time>
      </trkpt>
      <trkpt lat="43.59135" lon="5.87999">
        <ele>437.9</ele>
        <time>2024-02-29T09:51:12.500Z</time>
      </trkpt>
      <trkpt lat="43.59141" lon="5.87994">
        <ele>437.8</ele>
        <time>2024-02-29T09:51:18Z</time>
      </trkpt>
      <trkpt lat="43.59144" lon="5.87986">
        <ele>438.7</ele>
        <time>2024-02-29T09:51:24.500Z</time>
      </trkpt>
      <trkpt lat="43.59147" lon="5.87978">
        <ele>439.6</ele>
        <time>2024-02-29T09:51:31Z</time>
      </trkpt>
      <trkpt lat="43.59151" lon="5.87972">
        <ele>440</ele>
        <time>2024-02-29T09:51:37.000Z</time>
      </trkpt>
      <trkpt lat="43.59155" lon="5.87965">
        <ele>440.8</ele>
        <time>2024-02-29T09:51:43Z</time>
      </trkpt>
      <trkpt lat="43.5916" lon="5.87961">
        <ele>441.1</ele>
        <time>2024-02-29T09:51:49.000Z</time>
      </trkpt>
      <trkpt lat="43.59165" lon="5.87956">
        <ele>441.4</ele>
        <time>2024-02-29T09:51:55Z</time>
      </trkpt>
      <trkpt lat="43.59171" lon="5.8795">
        <ele>441.3</ele>
        <time>2024-02-29T09:52:00.000Z</time>
      </trkpt>
      <trkpt lat="43.59176" lon="5.87944">
        <ele>440.7</ele>
        <time>2024-02-29T09:52:05Z</time>
      </trkpt>
      <trkpt lat="43.5918" lon="5.87939">
        <ele>440.1</ele>
        <time>2024-02-29T09:52:10.000Z</time>
      </trkpt>
      <trkpt lat="43.59183" lon="5.87934">
        <ele>439.5</ele>
        <time>2024-02-29T09:52:15Z</time>
      </trkpt>
      <trkpt lat="43.59187" lon="5.87924">
        <ele>439.4</ele>
        <time>2024-02-29T09:52:27Z</time>
      </trkpt>
      <trkpt lat="43.59189" lon="5.87916">
        <ele>439.8</ele>
        <time>2024-02-29T09:52:29.344Z</time>
      </trkpt>
      <trkpt lat="43.59191" lon="5.87908">
        <ele>439.8</ele>
        <time>2024-02-29T09:52:31.689Z</time>
      </trkpt>
      <trkpt lat="43.59193" lon="5.87901">
        <ele>439.8</ele>
        <time>2024-02-29T09:52:33.844Z</time>
      </trkpt>
      <trkpt lat="43.59194" lon="5.87893">
        <ele>439.9</ele>
        <time>2024-02-29T09:52:36Z</time>
      </trkpt>
      <trkpt lat="43.59196" lon="5.87886">
        <ele>439.8</ele>
        <time>2024-02-29T09:52:40.000Z</time>
      </trkpt>
      <trkpt lat="43.59197" lon="5.87879">
        <ele>439.6</ele>
        <time>2024-02-29T09:52:44Z</time>
      </trkpt>
      <trkpt lat="43.59199" lon="5.87872">
        <ele>439.3</ele>
        <time>2024-02-29T09:52:48.500Z</time>
      </trkpt>
      <trkpt lat="43.59201" lon="5.87865">
        <ele>439</ele>
        <time>2024-02-29T09:52:53Z</time>
      </trkpt>
      <trkpt lat="43.59203" lon="5.87856">
        <ele>438.8</ele>
        <time>2024-02-29T09:52:58.000Z</time>
      </trkpt>
      <trkpt lat="43.59205" lon="5.87846">
        <ele>438.6</ele>
        <time>2024-02-29T09:53:03Z</time>
      </trkpt>
      <trkpt lat="43.59207" lon="5.87837">
        <ele>438.3</ele>
        <time>2024-02-29T09:53:08.000Z</time>
      </trkpt>
      <trkpt lat="43.59209" lon="5.87828">
        <ele>437.6</ele>
        <time>2024-02-29T09:53:13Z</time>
      </trkpt>
      <trkpt lat="43.59209" lon="5.8782">
        <ele>437.2</ele>
        <time>2024-02-29T09:53:18.000Z</time>
      </trkpt>
      <trkpt lat="43.59209" lon="5.87811">
        <ele>436.9</ele>
        <time>2024-02-29T09:53:23Z</time>
      </trkpt>
      <trkpt lat="43.59209" lon="5.87803">
        <ele>436.8</ele>
        <time>2024-02-29T09:53:28.000Z</time>
      </trkpt>
      <trkpt lat="43.59209" lon="5.87794">
        <ele>436.9</ele>
        <time>2024-02-29T09:53:33Z</time>
      </trkpt>
      <trkpt lat="43.59209" lon="5.87782">
        <ele>437.2</ele>
        <time>2024-02-29T09:53:39.254Z</time>
      </trkpt>
      <trkpt lat="43.5921" lon="5.87773">
        <ele>437.1</ele>
        <time>2024-02-29T09:53:44Z</time>
      </trkpt>
      <trkpt lat="43.59211" lon="5.87766">
        <ele>436.9</ele>
        <time>2024-02-29T09:53:50.500Z</time>
      </trkpt>
      <trkpt lat="43.59212" lon="5.87758">
        <ele>436.8</ele>
        <time>2024-02-29T09:53:57Z</time>
      </trkpt>
      <trkpt lat="43.59213" lon="5.8775">
        <ele>436.8</ele>
        <time>2024-02-29T09:54:04.000Z</time>
      </trkpt>
      <trkpt lat="43.59213" lon="5.87742">
        <ele>436.4</ele>
        <time>2024-02-29T09:54:11Z</time>
      </trkpt>
      <trkpt lat="43.59214" lon="5.87731">
        <ele>435.8</ele>
        <time>2024-02-29T09:54:16.500Z</time>
      </trkpt>
      <trkpt lat="43.59214" lon="5.8772">
        <ele>435.5</ele>
        <time>2024-02-29T09:54:22Z</time>
      </trkpt>
      <trkpt lat="43.59214" lon="5.87711">
        <ele>435.9</ele>
        <time>2024-02-29T09:54:29.500Z</time>
      </trkpt>
      <trkpt lat="43.59214" lon="5.87702">
        <ele>436.3</ele>
        <time>2024-02-29T09:54:37Z</time>
      </trkpt>
      <trkpt lat="43.59215" lon="5.87692">
        <ele>436.5</ele>
        <time>2024-02-29T09:54:44.000Z</time>
      </trkpt>
      <trkpt lat="43.59215" lon="5.87682">
        <ele>436.2</ele>
        <time>2024-02-29T09:54:51Z</time>
      </trkpt>
      <trkpt lat="43.59216" lon="5.87674">
        <ele>436</ele>
        <time>2024-02-29T09:54:54.351Z</time>
      </trkpt>
      <trkpt lat="43.59216" lon="5.87666">
        <ele>435.9</ele>
        <time>2024-02-29T09:54:57.702Z</time>
      </trkpt>
      <trkpt lat="43.59218" lon="5.8766">
        <ele>436</ele>
        <time>2024-02-29T09:55:00.351Z</time>
      </trkpt>
      <trkpt lat="43.59219" lon="5.87654">
        <ele>436.2</ele>
        <time>2024-02-29T09:55:03Z</time>
      </trkpt>
      <trkpt lat="43.59221" lon="5.87647">
        <ele>436.6</ele>
        <time>2024-02-29T09:55:08.500Z</time>
      </trkpt>
      <trkpt lat="43.59222" lon="5.8764">
        <ele>436.9</ele>
        <time>2024-02-29T09:55:14Z</time>
      </trkpt>
      <trkpt lat="43.59223" lon="5.87634">
        <ele>437.6</ele>
        <time>2024-02-29T09:55:20.000Z</time>
      </trkpt>
      <trkpt lat="43.59224" lon="5.87627">
        <ele>438.4</ele>
        <time>2024-02-29T09:55:26Z</time>
      </trkpt>
      <trkpt lat="43.59227" lon="5.87619">
        <ele>439.2</ele>
        <time>2024-02-29T09:55:33.000Z</time>
      </trkpt>
      <trkpt lat="43.59229" lon="5.8761">
        <ele>439.9</ele>
        <time>2024-02-29T09:55:40Z</time>
      </trkpt>
      <trkpt lat="43.5923" lon="5.87603">
        <ele>440.3</ele>
        <time>2024-02-29T09:55:46.000Z</time>
      </trkpt>
      <trkpt lat="43.59231" lon="5.87595">
        <ele>440.6</ele>
        <time>2024-02-29T09:55:52Z</time>
      </trkpt>
      <trkpt lat="43.59232" lon="5.87587">
        <ele>441.1</ele>
        <time>2024-02-29T09:55:57.500Z</time>
      </trkpt>
      <trkpt lat="43.59232" lon="5.87579">
        <ele>441.2</ele>
        <time>2024-02-29T09:56:03Z</time>
      </trkpt>
      <trkpt lat="43.59232" lon="5.8757">
        <ele>441.3</ele>
        <time>2024-02-29T09:56:09.500Z</time>
      </trkpt>
      <trkpt lat="43.59232" lon="5.87561">
        <ele>441.4</ele>
        <time>2024-02-29T09:56:16Z</time>
      </trkpt>
      <trkpt lat="43.59232" lon="5.8755">
        <ele>441.7</ele>
        <time>2024-02-29T09:56:22.000Z</time>
      </trkpt>
      <trkpt lat="43.59232" lon="5.87538">
        <ele>442.1</ele>
        <time>2024-02-29T09:56:28Z</time>
      </trkpt>
      <trkpt lat="43.59232" lon="5.87529">
        <ele>442.5</ele>
        <time>2024-02-29T09:56:33.000Z</time>
      </trkpt>
      <trkpt lat="43.59232" lon="5.87519">
        <ele>442.9</ele>
        <time>2024-02-29T09:56:38Z</time>
      </trkpt>
      <trkpt lat="43.59233" lon="5.87513">
        <ele>443.1</ele>
        <time>2024-02-29T09:56:43.500Z</time>
      </trkpt>
      <trkpt lat="43.59233" lon="5.87506">
        <ele>443.2</ele>
        <time>2024-02-29T09:56:49Z</time>
      </trkpt>
      <trkpt lat="43.59236" lon="5.87497">
        <ele>442.7</ele>
        <time>2024-02-29T09:56:54.000Z</time>
      </trkpt>
      <trkpt lat="43.59238" lon="5.87488">
        <ele>441.9</ele>
        <time>2024-02-29T09:56:59Z</time>
      </trkpt>
      <trkpt lat="43.59238" lon="5.87479">
        <ele>441.9</ele>
        <time>2024-02-29T09:57:04.071Z</time>
      </trkpt>
      <trkpt lat="43.59238" lon="5.87472">
        <ele>442</ele>
        <time>2024-02-29T09:57:08.035Z</time>
      </trkpt>
      <trkpt lat="43.59237" lon="5.87465">
        <ele>442</ele>
        <time>2024-02-29T09:57:12Z</time>
      </trkpt>
      <trkpt lat="43.59237" lon="5.87458">
        <ele>441.7</ele>
        <time>2024-02-29T09:57:17.000Z</time>
      </trkpt>
      <trkpt lat="43.59237" lon="5.8745">
        <ele>441.4</ele>
        <time>2024-02-29T09:57:22Z</time>
      </trkpt>
      <trkpt lat="43.59237" lon="5.87442">
        <ele>441.2</ele>
        <time>2024-02-29T09:57:27.000Z</time>
      </trkpt>
      <trkpt lat="43.59237" lon="5.87433">
        <ele>441</ele>
        <time>2024-02-29T09:57:32Z</time>
      </trkpt>
      <trkpt lat="43.59238" lon="5.87425">
        <ele>440.7</ele>
        <time>2024-02-29T09:57:36.500Z</time>
      </trkpt>
      <trkpt lat="43.59238" lon="5.87416">
        <ele>440.4</ele>
        <time>2024-02-29T09:57:41Z</time>
      </trkpt>
      <trkpt lat="43.59237" lon="5.87407">
        <ele>440.2</ele>
        <time>2024-02-29T09:57:45.999Z</time>
      </trkpt>
      <trkpt lat="43.59236" lon="5.87397">
        <ele>440</ele>
        <time>2024-02-29T09:57:51Z</time>
      </trkpt>
      <trkpt lat="43.59237" lon="5.8739">
        <ele>439.3</ele>
        <time>2024-02-29T09:57:53.500Z</time>
      </trkpt>
      <trkpt lat="43.59238" lon="5.87384">
        <ele>439.1</ele>
        <time>2024-02-29T09:57:56.000Z</time>
      </trkpt>
      <trkpt lat="43.59238" lon="5.87377">
        <ele>438.9</ele>
        <time>2024-02-29T09:57:58.500Z</time>
      </trkpt>
      <trkpt lat="43.59239" lon="5.8737">
        <ele>438.7</ele>
        <time>2024-02-29T09:58:01Z</time>
      </trkpt>
      <trkpt lat="43.5924" lon="5.87362">
        <ele>438.6</ele>
        <time>2024-02-29T09:58:05.500Z</time>
      </trkpt>
      <trkpt lat="43.5924" lon="5.87354">
        <ele>438.1</ele>
        <time>2024-02-29T09:58:10Z</time>
      </trkpt>
      <trkpt lat="43.5924" lon="5.87342">
        <ele>437.4</ele>
        <time>2024-02-29T09:58:14.500Z</time>
      </trkpt>
      <trkpt lat="43.5924" lon="5.8733">
        <ele>436.8</ele>
        <time>2024-02-29T09:58:19Z</time>
      </trkpt>
      <trkpt lat="43.5924" lon="5.87322">
        <ele>436.5</ele>
        <time>2024-02-29T09:58:21.000Z</time>
      </trkpt>
      <trkpt lat="43.5924" lon="5.87315">
        <ele>436.2</ele>
        <time>2024-02-29T09:58:23.000Z</time>
      </trkpt>
      <trkpt lat="43.5924" lon="5.87307">
        <ele>435.9</ele>
        <time>2024-02-29T09:58:25.000Z</time>
      </trkpt>
      <trkpt lat="43.5924" lon="5.87299">
        <ele>435.6</ele>
        <time>2024-02-29T09:58:27Z</time>
      </trkpt>
      <trkpt lat="43.59239" lon="5.8729">
        <ele>435.8</ele>
        <time>2024-02-29T09:58:31.499Z</time>
      </trkpt>
      <trkpt lat="43.59237" lon="5.87281">
        <ele>435.9</ele>
        <time>2024-02-29T09:58:36Z</time>
      </trkpt>
      <trkpt lat="43.59236" lon="5.87275">
        <ele>436</ele>
        <time>2024-02-29T09:58:38.749Z</time>
      </trkpt>
      <trkpt lat="43.59235" lon="5.87269">
        <ele>436.1</ele>
        <time>2024-02-29T09:58:41.499Z</time>
      </trkpt>
      <trkpt lat="43.59233" lon="5.87263">
        <ele>436.3</ele>
        <time>2024-02-29T09:58:44.249Z</time>
      </trkpt>
      <trkpt lat="43.59232" lon="5.87257">
        <ele>436.4</ele>
        <time>2024-02-29T09:58:47Z</time>
      </trkpt>
      <trkpt lat="43.5923" lon="5.87249">
        <ele>436.7</ele>
        <time>2024-02-29T09:58:51.499Z</time>
      </trkpt>
      <trkpt lat="43.59228" lon="5.87241">
        <ele>436.8</ele>
        <time>2024-02-29T09:58:56Z</time>
      </trkpt>
      <trkpt lat="43.5923" lon="5.87233">
        <ele>436</ele>
        <time>2024-02-29T09:59:01.000Z</time>
      </trkpt>
      <trkpt lat="43.59231" lon="5.87224">
        <ele>435.2</ele>
        <time>2024-02-29T09:59:06Z</time>
      </trkpt>
      <trkpt lat="43.59235" lon="5.87218">
        <ele>434.8</ele>
        <time>2024-02-29T09:59:10.500Z</time>
      </trkpt>
      <trkpt lat="43.59238" lon="5.87211">
        <ele>434.6</ele>
        <time>2024-02-29T09:59:15Z</time>
      </trkpt>
      <trkpt lat="43.59242" lon="5.87206">
        <ele>434.5</ele>
        <time>2024-02-29T09:59:19.500Z</time>
      </trkpt>
      <trkpt lat="43.59245" lon="5.872">
        <ele>434.3</ele>
        <time>2024-02-29T09:59:24Z</time>
      </trkpt>
      <trkpt lat="43.5925" lon="5.87191">
        <ele>434.7</ele>
        <time>2024-02-29T09:59:39Z</time>
      </trkpt>
      <trkpt lat="43.59253" lon="5.87184">
        <ele>435.6</ele>
        <time>2024-02-29T10:00:42Z</time>
      </trkpt>
      <trkpt lat="43.59256" lon="5.87177">
        <ele>436.3</ele>
        <time>2024-02-29T10:00:48.500Z</time>
      </trkpt>
      <trkpt lat="43.59259" lon="5.87169">
        <ele>436.7</ele>
        <time>2024-02-29T10:00:55Z</time>
      </trkpt>
      <trkpt lat="43.59263" lon="5.87159">
        <ele>436.2</ele>
        <time>2024-02-29T10:00:58.908Z</time>
      </trkpt>
      <trkpt lat="43.59266" lon="5.87148">
        <ele>435.5</ele>
        <time>2024-02-29T10:01:02.816Z</time>
      </trkpt>
      <trkpt lat="43.59268" lon="5.87139">
        <ele>435.2</ele>
        <time>2024-02-29T10:01:06Z</time>
      </trkpt>
      <trkpt lat="43.5927" lon="5.87127">
        <ele>435.3</ele>
        <time>2024-02-29T10:01:16Z</time>
      </trkpt>
      <trkpt lat="43.5927" lon="5.87116">
        <ele>435.9</ele>
        <time>2024-02-29T10:01:28Z</time>
      </trkpt>
      <trkpt lat="43.59273" lon="5.87106">
        <ele>435.9</ele>
        <time>2024-02-29T10:01:41Z</time>
      </trkpt>
      <trkpt lat="43.59276" lon="5.87097">
        <ele>436</ele>
        <time>2024-02-29T10:01:50Z</time>
      </trkpt>
      <trkpt lat="43.59277" lon="5.87091">
        <ele>436.6</ele>
        <time>2024-02-29T10:01:55.500Z</time>
      </trkpt>
      <trkpt lat="43.59277" lon="5.87084">
        <ele>437.2</ele>
        <time>2024-02-29T10:02:01Z</time>
      </trkpt>
      <trkpt lat="43.59278" lon="5.87077">
        <ele>437.9</ele>
        <time>2024-02-29T10:02:05.500Z</time>
      </trkpt>
      <trkpt lat="43.59279" lon="5.87069">
        <ele>438.7</ele>
        <time>2024-02-29T10:02:10Z</time>
      </trkpt>
      <trkpt lat="43.59281" lon="5.8706">
        <ele>439.4</ele>
        <time>2024-02-29T10:02:14.500Z</time>
      </trkpt>
      <trkpt lat="43.59283" lon="5.8705">
        <ele>439.3</ele>
        <time>2024-02-29T10:02:19Z</time>
      </trkpt>
      <trkpt lat="43.59284" lon="5.87042">
        <ele>439.3</ele>
        <time>2024-02-29T10:02:23.500Z</time>
      </trkpt>
      <trkpt lat="43.59284" lon="5.87033">
        <ele>439.2</ele>
        <time>2024-02-29T10:02:28Z</time>
      </trkpt>
      <trkpt lat="43.59285" lon="5.87023">
        <ele>439.6</ele>
        <time>2024-02-29T10:02:32.500Z</time>
      </trkpt>
      <trkpt lat="43.59285" lon="5.87012">
        <ele>440.5</ele>
        <time>2024-02-29T10:02:37Z</time>
      </trkpt>
      <trkpt lat="43.59286" lon="5.87002">
        <ele>441.1</ele>
        <time>2024-02-29T10:02:45Z</time>
      </trkpt>
      <trkpt lat="43.59288" lon="5.86992">
        <ele>440.8</ele>
        <time>2024-02-29T10:02:53Z</time>
      </trkpt>
      <trkpt lat="43.59288" lon="5.86983">
        <ele>440.9</ele>
        <time>2024-02-29T10:03:02Z</time>
      </trkpt>
      <trkpt lat="43.59289" lon="5.86972">
        <ele>440.8</ele>
        <time>2024-02-29T10:03:12Z</time>
      </trkpt>
      <trkpt lat="43.5929" lon="5.86961">
        <ele>439.8</ele>
        <time>2024-02-29T10:03:20Z</time>
      </trkpt>
      <trkpt lat="43.5929" lon="5.86955">
        <ele>439.5</ele>
        <time>2024-02-29T10:03:23.500Z</time>
      </trkpt>
      <trkpt lat="43.5929" lon="5.86948">
        <ele>439.1</ele>
        <time>2024-02-29T10:03:27Z</time>
      </trkpt>
      <trkpt lat="43.59288" lon="5.86939">
        <ele>439.4</ele>
        <time>2024-02-29T10:03:34Z</time>
      </trkpt>
      <trkpt lat="43.5929" lon="5.86931">
        <ele>438.9</ele>
        <time>2024-02-29T10:03:36.991Z</time>
      </trkpt>
      <trkpt lat="43.59292" lon="5.8692">
        <ele>438.4</ele>
        <time>2024-02-29T10:03:41Z</time>
      </trkpt>
      <trkpt lat="43.59294" lon="5.86909">
        <ele>438.3</ele>
        <time>2024-02-29T10:03:49Z</time>
      </trkpt>
      <trkpt lat="43.59296" lon="5.86903">
        <ele>438.1</ele>
        <time>2024-02-29T10:03:53.000Z</time>
      </trkpt>
      <trkpt lat="43.59297" lon="5.86896">
        <ele>437.8</ele>
        <time>2024-02-29T10:03:57Z</time>
      </trkpt>
      <trkpt lat="43.59299" lon="5.86884">
        <ele>437.4</ele>
        <time>2024-02-29T10:04:04Z</time>
      </trkpt>
      <trkpt lat="43.593" lon="5.86878">
        <ele>437.4</ele>
        <time>2024-02-29T10:04:07.500Z</time>
      </trkpt>
      <trkpt lat="43.593" lon="5.86871">
        <ele>437.3</ele>
        <time>2024-02-29T10:04:11Z</time>
      </trkpt>
      <trkpt lat="43.59301" lon="5.86859">
        <ele>437</ele>
        <time>2024-02-29T10:04:18Z</time>
      </trkpt>
      <trkpt lat="43.59302" lon="5.86853">
        <ele>436.6</ele>
        <time>2024-02-29T10:04:19.750Z</time>
      </trkpt>
      <trkpt lat="43.59303" lon="5.86847">
        <ele>436.3</ele>
        <time>2024-02-29T10:04:21.500Z</time>
      </trkpt>
      <trkpt lat="43.59303" lon="5.8684">
        <ele>436</ele>
        <time>2024-02-29T10:04:23.250Z</time>
      </trkpt>
      <trkpt lat="43.59304" lon="5.86834">
        <ele>435.7</ele>
        <time>2024-02-29T10:04:25Z</time>
      </trkpt>
      <trkpt lat="43.59304" lon="5.86826">
        <ele>435.9</ele>
        <time>2024-02-29T10:04:28.999Z</time>
      </trkpt>
      <trkpt lat="43.59303" lon="5.86818">
        <ele>436.2</ele>
        <time>2024-02-29T10:04:33Z</time>
      </trkpt>
      <trkpt lat="43.59304" lon="5.86811">
        <ele>435.7</ele>
        <time>2024-02-29T10:04:37.500Z</time>
      </trkpt>
      <trkpt lat="43.59305" lon="5.86803">
        <ele>435.3</ele>
        <time>2024-02-29T10:04:42Z</time>
      </trkpt>
      <trkpt lat="43.59307" lon="5.86797">
        <ele>435</ele>
        <time>2024-02-29T10:05:41.000Z</time>
      </trkpt>
      <trkpt lat="43.59308" lon="5.86791">
        <ele>434.6</ele>
        <time>2024-02-29T10:06:40Z</time>
      </trkpt>
      <trkpt lat="43.5931" lon="5.86782">
        <ele>434.2</ele>
        <time>2024-02-29T10:07:56Z</time>
      </trkpt>
      <trkpt lat="43.59312" lon="5.86776">
        <ele>433.9</ele>
        <time>2024-02-29T10:08:00.000Z</time>
      </trkpt>
      <trkpt lat="43.59313" lon="5.86769">
        <ele>433.5</ele>
        <time>2024-02-29T10:08:04Z</time>
      </trkpt>
      <trkpt lat="43.59316" lon="5.86761">
        <ele>432.7</ele>
        <time>2024-02-29T10:08:07.500Z</time>
      </trkpt>
      <trkpt lat="43.59319" lon="5.86752">
        <ele>432.1</ele>
        <time>2024-02-29T10:08:11Z</time>
      </trkpt>
      <trkpt lat="43.59323" lon="5.86742">
        <ele>431.3</ele>
        <time>2024-02-29T10:08:18Z</time>
      </trkpt>
      <trkpt lat="43.59326" lon="5.86734">
        <ele>431.1</ele>
        <time>2024-02-29T10:08:21.500Z</time>
      </trkpt>
      <trkpt lat="43.59328" lon="5.86726">
        <ele>430.9</ele>
        <time>2024-02-29T10:08:25Z</time>
      </trkpt>
      <trkpt lat="43.59329" lon="5.8672">
        <ele>430.9</ele>
        <time>2024-02-29T10:08:28.500Z</time>
      </trkpt>
      <trkpt lat="43.59329" lon="5.86713">
        <ele>430.3</ele>
        <time>2024-02-29T10:08:32Z</time>
      </trkpt>
      <trkpt lat="43.5933" lon="5.86706">
        <ele>429.6</ele>
        <time>2024-02-29T10:08:36.000Z</time>
      </trkpt>
      <trkpt lat="43.59331" lon="5.86699">
        <ele>428.9</ele>
        <time>2024-02-29T10:08:40Z</time>
      </trkpt>
      <trkpt lat="43.59331" lon="5.8669">
        <ele>428.3</ele>
        <time>2024-02-29T10:08:48Z</time>
      </trkpt>
      <trkpt lat="43.59332" lon="5.86681">
        <ele>427.4</ele>
        <time>2024-02-29T10:08:55Z</time>
      </trkpt>
      <trkpt lat="43.59334" lon="5.86671">
        <ele>426.1</ele>
        <time>2024-02-29T10:09:05Z</time>
      </trkpt>
      <trkpt lat="43.59329" lon="5.86663">
        <ele>426.6</ele>
        <time>2024-02-29T10:09:14Z</time>
      </trkpt>
      <trkpt lat="43.59324" lon="5.86658">
        <ele>427.2</ele>
        <time>2024-02-29T10:09:23Z</time>
      </trkpt>
      <trkpt lat="43.59324" lon="5.86649">
        <ele>425.8</ele>
        <time>2024-02-29T10:09:27.999Z</time>
      </trkpt>
      <trkpt lat="43.59323" lon="5.86639">
        <ele>424.4</ele>
        <time>2024-02-29T10:09:33Z</time>
      </trkpt>
      <trkpt lat="43.59323" lon="5.86631">
        <ele>423.7</ele>
        <time>2024-02-29T10:09:38.499Z</time>
      </trkpt>
      <trkpt lat="43.59322" lon="5.86622">
        <ele>423</ele>
        <time>2024-02-29T10:09:44Z</time>
      </trkpt>
      <trkpt lat="43.59321" lon="5.86613">
        <ele>422.4</ele>
        <time>2024-02-29T10:09:51.999Z</time>
      </trkpt>
      <trkpt lat="43.59319" lon="5.86604">
        <ele>422.1</ele>
        <time>2024-02-29T10:10:00Z</time>
      </trkpt>
      <trkpt lat="43.59319" lon="5.86598">
        <ele>421.6</ele>
        <time>2024-02-29T10:10:03.750Z</time>
      </trkpt>
      <trkpt lat="43.5932" lon="5.86592">
        <ele>421.1</ele>
        <time>2024-02-29T10:10:07.500Z</time>
      </trkpt>
      <trkpt lat="43.5932" lon="5.86585">
        <ele>420.5</ele>
        <time>2024-02-29T10:10:11.250Z</time>
      </trkpt>
      <trkpt lat="43.5932" lon="5.86579">
        <ele>420</ele>
        <time>2024-02-29T10:10:15Z</time>
      </trkpt>
      <trkpt lat="43.5932" lon="5.86569">
        <ele>419.3</ele>
        <time>2024-02-29T10:10:21.500Z</time>
      </trkpt>
      <trkpt lat="43.5932" lon="5.86559">
        <ele>418.6</ele>
        <time>2024-02-29T10:10:28Z</time>
      </trkpt>
      <trkpt lat="43.59321" lon="5.86551">
        <ele>417.8</ele>
        <time>2024-02-29T10:10:30.750Z</time>
      </trkpt>
      <trkpt lat="43.59321" lon="5.86544">
        <ele>417</ele>
        <time>2024-02-29T10:10:33.500Z</time>
      </trkpt>
      <trkpt lat="43.59322" lon="5.86536">
        <ele>416.3</ele>
        <time>2024-02-29T10:10:36.250Z</time>
      </trkpt>
      <trkpt lat="43.59322" lon="5.86528">
        <ele>415.5</ele>
        <time>2024-02-29T10:10:39Z</time>
      </trkpt>
      <trkpt lat="43.59321" lon="5.86519">
        <ele>414.8</ele>
        <time>2024-02-29T10:10:46.999Z</time>
      </trkpt>
      <trkpt lat="43.5932" lon="5.8651">
        <ele>414</ele>
        <time>2024-02-29T10:10:55Z</time>
      </trkpt>
      <trkpt lat="43.59323" lon="5.86502">
        <ele>412.8</ele>
        <time>2024-02-29T10:11:03.500Z</time>
      </trkpt>
      <trkpt lat="43.59325" lon="5.86494">
        <ele>411.7</ele>
        <time>2024-02-29T10:11:12Z</time>
      </trkpt>
      <trkpt lat="43.59329" lon="5.86484">
        <ele>410.6</ele>
        <time>2024-02-29T10:11:35Z</time>
      </trkpt>
      <trkpt lat="43.59332" lon="5.86479">
        <ele>410.3</ele>
        <time>2024-02-29T10:12:05Z</time>
      </trkpt>
      <trkpt lat="43.59337" lon="5.86473">
        <ele>410.1</ele>
        <time>2024-02-29T10:12:27Z</time>
      </trkpt>
      <trkpt lat="43.59339" lon="5.86467">
        <ele>410.8</ele>
        <time>2024-02-29T10:12:32.500Z</time>
      </trkpt>
      <trkpt lat="43.59341" lon="5.86461">
        <ele>411.6</ele>
        <time>2024-02-29T10:12:38Z</time>
      </trkpt>
      <trkpt lat="43.59342" lon="5.86454">
        <ele>412.4</ele>
        <time>2024-02-29T10:12:43.500Z</time>
      </trkpt>
      <trkpt lat="43.59343" lon="5.86446">
        <ele>413.1</ele>
        <time>2024-02-29T10:12:49Z</time>
      </trkpt>
      <trkpt lat="43.59344" lon="5.86438">
        <ele>413.7</ele>
        <time>2024-02-29T10:12:55.000Z</time>
      </trkpt>
      <trkpt lat="43.59344" lon="5.86429">
        <ele>414.2</ele>
        <time>2024-02-29T10:13:01Z</time>
      </trkpt>
      <trkpt lat="43.59342" lon="5.8642">
        <ele>414.8</ele>
        <time>2024-02-29T10:13:07.499Z</time>
      </trkpt>
      <trkpt lat="43.5934" lon="5.8641">
        <ele>415.6</ele>
        <time>2024-02-29T10:13:14Z</time>
      </trkpt>
      <trkpt lat="43.59339" lon="5.86402">
        <ele>416.3</ele>
        <time>2024-02-29T10:13:20.499Z</time>
      </trkpt>
      <trkpt lat="43.59338" lon="5.86393">
        <ele>417</ele>
        <time>2024-02-29T10:13:27Z</time>
      </trkpt>
      <trkpt lat="43.59337" lon="5.86386">
        <ele>417.6</ele>
        <time>2024-02-29T10:13:33.499Z</time>
      </trkpt>
      <trkpt lat="43.59335" lon="5.86378">
        <ele>418.3</ele>
        <time>2024-02-29T10:13:40Z</time>
      </trkpt>
      <trkpt lat="43.59334" lon="5.86371">
        <ele>419</ele>
        <time>2024-02-29T10:13:46.999Z</time>
      </trkpt>
      <trkpt lat="43.59332" lon="5.86363">
        <ele>420.1</ele>
        <time>2024-02-29T10:13:54Z</time>
      </trkpt>
      <trkpt lat="43.59333" lon="5.86353">
        <ele>421</ele>
        <time>2024-02-29T10:14:01.000Z</time>
      </trkpt>
      <trkpt lat="43.59334" lon="5.86343">
        <ele>422.1</ele>
        <time>2024-02-29T10:14:08Z</time>
      </trkpt>
      <trkpt lat="43.59331" lon="5.86333">
        <ele>423.7</ele>
        <time>2024-02-29T10:14:33Z</time>
      </trkpt>
      <trkpt lat="43.59333" lon="5.86326">
        <ele>424.1</ele>
        <time>2024-02-29T10:14:41.000Z</time>
      </trkpt>
      <trkpt lat="43.59334" lon="5.86318">
        <ele>424.8</ele>
        <time>2024-02-29T10:14:49Z</time>
      </trkpt>
      <trkpt lat="43.59333" lon="5.86311">
        <ele>425.6</ele>
        <time>2024-02-29T10:14:58.499Z</time>
      </trkpt>
      <trkpt lat="43.59332" lon="5.86303">
        <ele>426.7</ele>
        <time>2024-02-29T10:15:08Z</time>
      </trkpt>
      <trkpt lat="43.59331" lon="5.86296">
        <ele>427.9</ele>
        <time>2024-02-29T10:15:12.101Z</time>
      </trkpt>
      <trkpt lat="43.59326" lon="5.86293">
        <ele>429.5</ele>
        <time>2024-02-29T10:15:16.550Z</time>
      </trkpt>
      <trkpt lat="43.59321" lon="5.86289">
        <ele>431</ele>
        <time>2024-02-29T10:15:21Z</time>
      </trkpt>
      <trkpt lat="43.59317" lon="5.86283">
        <ele>432.5</ele>
        <time>2024-02-29T10:15:28.499Z</time>
      </trkpt>
      <trkpt lat="43.59313" lon="5.86276">
        <ele>433.7</ele>
        <time>2024-02-29T10:15:36Z</time>
      </trkpt>
      <trkpt lat="43.59312" lon="5.8627">
        <ele>434.1</ele>
        <time>2024-02-29T10:15:41.999Z</time>
      </trkpt>
      <trkpt lat="43.59311" lon="5.86263">
        <ele>434.6</ele>
        <time>2024-02-29T10:15:48Z</time>
      </trkpt>
      <trkpt lat="43.59311" lon="5.86257">
        <ele>434.8</ele>
        <time>2024-02-29T10:15:53.000Z</time>
      </trkpt>
      <trkpt lat="43.59311" lon="5.8625">
        <ele>435</ele>
        <time>2024-02-29T10:15:58Z</time>
      </trkpt>
      <trkpt lat="43.59313" lon="5.86243">
        <ele>435</ele>
        <time>2024-02-29T10:16:03.500Z</time>
      </trkpt>
      <trkpt lat="43.59315" lon="5.86236">
        <ele>435</ele>
        <time>2024-02-29T10:16:09Z</time>
      </trkpt>
      <trkpt lat="43.59314" lon="5.8623">
        <ele>435.5</ele>
        <time>2024-02-29T10:16:14.499Z</time>
      </trkpt>
      <trkpt lat="43.59313" lon="5.86223">
        <ele>436.1</ele>
        <time>2024-02-29T10:16:20Z</time>
      </trkpt>
      <trkpt lat="43.59312" lon="5.86213">
        <ele>436.6</ele>
        <time>2024-02-29T10:16:26.999Z</time>
      </trkpt>
      <trkpt lat="43.59311" lon="5.86203">
        <ele>437.2</ele>
        <time>2024-02-29T10:16:34Z</time>
      </trkpt>
      <trkpt lat="43.59311" lon="5.86195">
        <ele>437.4</ele>
        <time>2024-02-29T10:16:41.000Z</time>
      </trkpt>
      <trkpt lat="43.59311" lon="5.86186">
        <ele>437.5</ele>
        <time>2024-02-29T10:16:48Z</time>
      </trkpt>
      <trkpt lat="43.5931" lon="5.86178">
        <ele>438</ele>
        <time>2024-02-29T10:16:54.999Z</time>
      </trkpt>
      <trkpt lat="43.59308" lon="5.86169">
        <ele>438.4</ele>
        <time>2024-02-29T10:17:02Z</time>
      </trkpt>
      <trkpt lat="43.59308" lon="5.8616">
        <ele>438.8</ele>
        <time>2024-02-29T10:17:10.000Z</time>
      </trkpt>
      <trkpt lat="43.59308" lon="5.86151">
        <ele>439.5</ele>
        <time>2024-02-29T10:17:18Z</time>
      </trkpt>
      <trkpt lat="43.59308" lon="5.86143">
        <ele>440.2</ele>
        <time>2024-02-29T10:17:24.499Z</time>
      </trkpt>
      <trkpt lat="43.59307" lon="5.86134">
        <ele>440.9</ele>
        <time>2024-02-29T10:17:31Z</time>
      </trkpt>
      <trkpt lat="43.59308" lon="5.86125">
        <ele>441.4</ele>
        <time>2024-02-29T10:17:36.500Z</time>
      </trkpt>
      <trkpt lat="43.59308" lon="5.86116">
        <ele>441.9</ele>
        <time>2024-02-29T10:17:42Z</time>
      </trkpt>
      <trkpt lat="43.5931" lon="5.8611">
        <ele>441.8</ele>
        <time>2024-02-29T10:17:48.000Z</time>
      </trkpt>
      <trkpt lat="43.59311" lon="5.86103">
        <ele>441.8</ele>
        <time>2024-02-29T10:17:54Z</time>
      </trkpt>
      <trkpt lat="43.59311" lon="5.86095">
        <ele>442.4</ele>
        <time>2024-02-29T10:18:01.000Z</time>
      </trkpt>
      <trkpt lat="43.59311" lon="5.86086">
        <ele>443</ele>
        <time>2024-02-29T10:18:08Z</time>
      </trkpt>
      <trkpt lat="43.5931" lon="5.8608">
        <ele>444</ele>
        <time>2024-02-29T10:18:14.499Z</time>
      </trkpt>
      <trkpt lat="43.59309" lon="5.86073">
        <ele>445</ele>
        <time>2024-02-29T10:18:21Z</time>
      </trkpt>
      <trkpt lat="43.59308" lon="5.86063">
        <ele>446.4</ele>
        <time>2024-02-29T10:18:28.499Z</time>
      </trkpt>
      <trkpt lat="43.59307" lon="5.86053">
        <ele>447.6</ele>
        <time>2024-02-29T10:18:36Z</time>
      </trkpt>
      <trkpt lat="43.59307" lon="5.86044">
        <ele>448.1</ele>
        <time>2024-02-29T10:18:42.999Z</time>
      </trkpt>
      <trkpt lat="43.59306" lon="5.86035">
        <ele>448.6</ele>
        <time>2024-02-29T10:18:50Z</time>
      </trkpt>
      <trkpt lat="43.59304" lon="5.86026">
        <ele>449.8</ele>
        <time>2024-02-29T10:18:58.999Z</time>
      </trkpt>
      <trkpt lat="43.59301" lon="5.86017">
        <ele>451</ele>
        <time>2024-02-29T10:19:08Z</time>
      </trkpt>
      <trkpt lat="43.59299" lon="5.86009">
        <ele>452.1</ele>
        <time>2024-02-29T10:19:14.999Z</time>
      </trkpt>
      <trkpt lat="43.59297" lon="5.86">
        <ele>453.1</ele>
        <time>2024-02-29T10:19:22Z</time>
      </trkpt>
      <trkpt lat="43.59294" lon="5.85993">
        <ele>453.8</ele>
        <time>2024-02-29T10:19:27.999Z</time>
      </trkpt>
      <trkpt lat="43.59291" lon="5.85985">
        <ele>454.4</ele>
        <time>2024-02-29T10:19:34Z</time>
      </trkpt>
      <trkpt lat="43.59287" lon="5.85977">
        <ele>455.3</ele>
        <time>2024-02-29T10:19:38.607Z</time>
      </trkpt>
      <trkpt lat="43.5928" lon="5.85971">
        <ele>457.1</ele>
        <time>2024-02-29T10:19:44Z</time>
      </trkpt>
      <trkpt lat="43.59277" lon="5.85966">
        <ele>457.2</ele>
        <time>2024-02-29T10:19:48.999Z</time>
      </trkpt>
      <trkpt lat="43.59273" lon="5.85961">
        <ele>457.1</ele>
        <time>2024-02-29T10:19:54Z</time>
      </trkpt>
      <trkpt lat="43.5927" lon="5.85957">
        <ele>457.1</ele>
        <time>2024-02-29T10:19:59.499Z</time>
      </trkpt>
      <trkpt lat="43.59266" lon="5.85952">
        <ele>457.2</ele>
        <time>2024-02-29T10:20:05Z</time>
      </trkpt>
      <trkpt lat="43.59261" lon="5.85947">
        <ele>457.6</ele>
        <time>2024-02-29T10:20:11.999Z</time>
      </trkpt>
      <trkpt lat="43.59256" lon="5.85941">
        <ele>458.1</ele>
        <time>2024-02-29T10:20:19Z</time>
      </trkpt>
      <trkpt lat="43.59252" lon="5.85933">
        <ele>458.2</ele>
        <time>2024-02-29T10:20:24.999Z</time>
      </trkpt>
      <trkpt lat="43.59248" lon="5.85925">
        <ele>458.6</ele>
        <time>2024-02-29T10:20:31Z</time>
      </trkpt>
      <trkpt lat="43.59246" lon="5.85915">
        <ele>458.3</ele>
        <time>2024-02-29T10:20:36.999Z</time>
      </trkpt>
      <trkpt lat="43.59244" lon="5.85905">
        <ele>458.3</ele>
        <time>2024-02-29T10:20:43Z</time>
      </trkpt>
      <trkpt lat="43.59242" lon="5.85897">
        <ele>458.5</ele>
        <time>2024-02-29T10:20:48.499Z</time>
      </trkpt>
      <trkpt lat="43.5924" lon="5.85889">
        <ele>458.6</ele>
        <time>2024-02-29T10:20:54Z</time>
      </trkpt>
      <trkpt lat="43.59237" lon="5.85883">
        <ele>459.9</ele>
        <time>2024-02-29T10:21:00.499Z</time>
      </trkpt>
      <trkpt lat="43.59234" lon="5.85877">
        <ele>461.1</ele>
        <time>2024-02-29T10:21:07Z</time>
      </trkpt>
      <trkpt lat="43.59232" lon="5.85869">
        <ele>462.2</ele>
        <time>2024-02-29T10:21:14.499Z</time>
      </trkpt>
      <trkpt lat="43.59229" lon="5.8586">
        <ele>463</ele>
        <time>2024-02-29T10:21:22Z</time>
      </trkpt>
      <trkpt lat="43.59225" lon="5.85849">
        <ele>463.4</ele>
        <time>2024-02-29T10:21:29.999Z</time>
      </trkpt>
      <trkpt lat="43.59221" lon="5.85838">
        <ele>463.8</ele>
        <time>2024-02-29T10:21:38Z</time>
      </trkpt>
      <trkpt lat="43.59218" lon="5.85828">
        <ele>464.1</ele>
        <time>2024-02-29T10:21:45.499Z</time>
      </trkpt>
      <trkpt lat="43.59215" lon="5.85817">
        <ele>464.3</ele>
        <time>2024-02-29T10:21:53Z</time>
      </trkpt>
      <trkpt lat="43.59212" lon="5.8581">
        <ele>464.6</ele>
        <time>2024-02-29T10:21:58.999Z</time>
      </trkpt>
      <trkpt lat="43.59209" lon="5.85802">
        <ele>465.1</ele>
        <time>2024-02-29T10:22:05Z</time>
      </trkpt>
      <trkpt lat="43.59206" lon="5.85795">
        <ele>465.8</ele>
        <time>2024-02-29T10:22:10.499Z</time>
      </trkpt>
      <trkpt lat="43.59202" lon="5.85787">
        <ele>466.4</ele>
        <time>2024-02-29T10:22:16Z</time>
      </trkpt>
      <trkpt lat="43.59199" lon="5.8578">
        <ele>466.9</ele>
        <time>2024-02-29T10:22:21.999Z</time>
      </trkpt>
      <trkpt lat="43.59195" lon="5.85772">
        <ele>467.4</ele>
        <time>2024-02-29T10:22:28Z</time>
      </trkpt>
      <trkpt lat="43.59194" lon="5.85764">
        <ele>467.1</ele>
        <time>2024-02-29T10:22:33.999Z</time>
      </trkpt>
      <trkpt lat="43.59193" lon="5.85756">
        <ele>466.8</ele>
        <time>2024-02-29T10:22:40Z</time>
      </trkpt>
      <trkpt lat="43.5919" lon="5.85747">
        <ele>467</ele>
        <time>2024-02-29T10:22:46.499Z</time>
      </trkpt>
      <trkpt lat="43.59187" lon="5.85737">
        <ele>467.3</ele>
        <time>2024-02-29T10:22:53Z</time>
      </trkpt>
      <trkpt lat="43.59183" lon="5.85729">
        <ele>467.9</ele>
        <time>2024-02-29T10:22:58.999Z</time>
      </trkpt>
      <trkpt lat="43.59178" lon="5.85721">
        <ele>468.5</ele>
        <time>2024-02-29T10:23:05Z</time>
      </trkpt>
      <trkpt lat="43.59175" lon="5.85714">
        <ele>468.6</ele>
        <time>2024-02-29T10:23:09.999Z</time>
      </trkpt>
      <trkpt lat="43.59172" lon="5.85706">
        <ele>468.7</ele>
        <time>2024-02-29T10:23:15Z</time>
      </trkpt>
      <trkpt lat="43.5917" lon="5.85697">
        <ele>468.5</ele>
        <time>2024-02-29T10:23:19.999Z</time>
      </trkpt>
      <trkpt lat="43.59168" lon="5.85688">
        <ele>468.5</ele>
        <time>2024-02-29T10:23:25Z</time>
      </trkpt>
      <trkpt lat="43.59168" lon="5.85681">
        <ele>468.3</ele>
        <time>2024-02-29T10:23:29.999Z</time>
      </trkpt>
      <trkpt lat="43.59167" lon="5.85673">
        <ele>468.2</ele>
        <time>2024-02-29T10:23:35Z</time>
      </trkpt>
      <trkpt lat="43.59165" lon="5.85664">
        <ele>468.4</ele>
        <time>2024-02-29T10:23:40.499Z</time>
      </trkpt>
      <trkpt lat="43.59162" lon="5.85654">
        <ele>468.3</ele>
        <time>2024-02-29T10:23:46Z</time>
      </trkpt>
      <trkpt lat="43.5916" lon="5.85646">
        <ele>468</ele>
        <time>2024-02-29T10:23:50.999Z</time>
      </trkpt>
      <trkpt lat="43.59158" lon="5.85637">
        <ele>467.7</ele>
        <time>2024-02-29T10:23:56Z</time>
      </trkpt>
      <trkpt lat="43.59156" lon="5.85631">
        <ele>467.5</ele>
        <time>2024-02-29T10:23:59.999Z</time>
      </trkpt>
      <trkpt lat="43.59154" lon="5.85625">
        <ele>467.2</ele>
        <time>2024-02-29T10:24:04Z</time>
      </trkpt>
      <trkpt lat="43.59152" lon="5.85619">
        <ele>467.1</ele>
        <time>2024-02-29T10:24:15.499Z</time>
      </trkpt>
      <trkpt lat="43.59149" lon="5.85613">
        <ele>467</ele>
        <time>2024-02-29T10:24:27Z</time>
      </trkpt>
      <trkpt lat="43.59147" lon="5.85606">
        <ele>466.7</ele>
        <time>2024-02-29T10:24:32.499Z</time>
      </trkpt>
      <trkpt lat="43.59144" lon="5.85599">
        <ele>466.2</ele>
        <time>2024-02-29T10:24:38Z</time>
      </trkpt>
      <trkpt lat="43.59143" lon="5.85591">
        <ele>465.3</ele>
        <time>2024-02-29T10:24:44.999Z</time>
      </trkpt>
      <trkpt lat="43.59142" lon="5.85583">
        <ele>464.4</ele>
        <time>2024-02-29T10:24:52Z</time>
      </trkpt>
      <trkpt lat="43.59142" lon="5.85575">
        <ele>463</ele>
        <time>2024-02-29T10:24:59.499Z</time>
      </trkpt>
      <trkpt lat="43.59141" lon="5.85567">
        <ele>461.7</ele>
        <time>2024-02-29T10:25:07Z</time>
      </trkpt>
      <trkpt lat="43.59139" lon="5.85558">
        <ele>460.3</ele>
        <time>2024-02-29T10:25:13.499Z</time>
      </trkpt>
      <trkpt lat="43.59137" lon="5.85548">
        <ele>459.4</ele>
        <time>2024-02-29T10:25:20Z</time>
      </trkpt>
      <trkpt lat="43.59134" lon="5.8554">
        <ele>459</ele>
        <time>2024-02-29T10:25:25.999Z</time>
      </trkpt>
      <trkpt lat="43.59131" lon="5.85531">
        <ele>458.5</ele>
        <time>2024-02-29T10:25:32Z</time>
      </trkpt>
      <trkpt lat="43.59129" lon="5.85523">
        <ele>458</ele>
        <time>2024-02-29T10:25:37.999Z</time>
      </trkpt>
      <trkpt lat="43.59126" lon="5.85515">
        <ele>457.4</ele>
        <time>2024-02-29T10:25:44Z</time>
      </trkpt>
      <trkpt lat="43.59122" lon="5.85506">
        <ele>456.9</ele>
        <time>2024-02-29T10:25:49.499Z</time>
      </trkpt>
      <trkpt lat="43.59118" lon="5.85496">
        <ele>455.8</ele>
        <time>2024-02-29T10:25:55Z</time>
      </trkpt>
      <trkpt lat="43.59116" lon="5.8549">
        <ele>454.7</ele>
        <time>2024-02-29T10:25:59.999Z</time>
      </trkpt>
      <trkpt lat="43.59113" lon="5.85483">
        <ele>453.5</ele>
        <time>2024-02-29T10:26:05Z</time>
      </trkpt>
      <trkpt lat="43.59111" lon="5.85477">
        <ele>452.2</ele>
        <time>2024-02-29T10:26:09.999Z</time>
      </trkpt>
      <trkpt lat="43.59108" lon="5.8547">
        <ele>452</ele>
        <time>2024-02-29T10:26:15Z</time>
      </trkpt>
      <trkpt lat="43.59109" lon="5.85464">
        <ele>452.7</ele>
        <time>2024-02-29T10:26:20.500Z</time>
      </trkpt>
      <trkpt lat="43.59109" lon="5.85457">
        <ele>453.5</ele>
        <time>2024-02-29T10:26:26Z</time>
      </trkpt>
      <trkpt lat="43.59114" lon="5.85451">
        <ele>453.7</ele>
        <time>2024-02-29T10:26:31.000Z</time>
      </trkpt>
      <trkpt lat="43.59118" lon="5.85444">
        <ele>453.6</ele>
        <time>2024-02-29T10:26:36Z</time>
      </trkpt>
      <trkpt lat="43.59122" lon="5.85438">
        <ele>454.1</ele>
        <time>2024-02-29T10:26:41.500Z</time>
      </trkpt>
      <trkpt lat="43.59126" lon="5.85431">
        <ele>454.7</ele>
        <time>2024-02-29T10:26:47Z</time>
      </trkpt>
      <trkpt lat="43.5913" lon="5.85427">
        <ele>455</ele>
        <time>2024-02-29T10:26:53.000Z</time>
      </trkpt>
      <trkpt lat="43.59134" lon="5.85422">
        <ele>455.4</ele>
        <time>2024-02-29T10:26:59Z</time>
      </trkpt>
      <trkpt lat="43.59135" lon="5.85415">
        <ele>456.8</ele>
        <time>2024-02-29T10:27:12Z</time>
      </trkpt>
      <trkpt lat="43.59133" lon="5.85411">
        <ele>457.5</ele>
        <time>2024-02-29T10:27:21.100Z</time>
      </trkpt>
      <trkpt lat="43.59134" lon="5.85401">
        <ele>458.6</ele>
        <time>2024-02-29T10:27:40Z</time>
      </trkpt>
      <trkpt lat="43.59132" lon="5.85398">
        <ele>459.3</ele>
        <time>2024-02-29T10:31:19Z</time>
      </trkpt>
      <trkpt lat="43.59131" lon="5.85391">
        <ele>460.4</ele>
        <time>2024-02-29T10:31:24.999Z</time>
      </trkpt>
      <trkpt lat="43.5913" lon="5.85384">
        <ele>461.5</ele>
        <time>2024-02-29T10:31:31Z</time>
      </trkpt>
      <trkpt lat="43.5913" lon="5.85379">
        <ele>462.1</ele>
        <time>2024-02-29T10:31:35.285Z</time>
      </trkpt>
      <trkpt lat="43.5913" lon="5.8537">
        <ele>463.2</ele>
        <time>2024-02-29T10:31:43Z</time>
      </trkpt>
      <trkpt lat="43.59131" lon="5.85362">
        <ele>463.9</ele>
        <time>2024-02-29T10:31:48.500Z</time>
      </trkpt>
      <trkpt lat="43.59131" lon="5.85354">
        <ele>465.5</ele>
        <time>2024-02-29T10:31:54Z</time>
      </trkpt>
      <trkpt lat="43.59133" lon="5.85343">
        <ele>467.1</ele>
        <time>2024-02-29T10:32:05Z</time>
      </trkpt>
      <trkpt lat="43.59134" lon="5.85337">
        <ele>468</ele>
        <time>2024-02-29T10:32:10.500Z</time>
      </trkpt>
      <trkpt lat="43.59135" lon="5.8533">
        <ele>469</ele>
        <time>2024-02-29T10:32:16Z</time>
      </trkpt>
      <trkpt lat="43.59137" lon="5.85321">
        <ele>470.2</ele>
        <time>2024-02-29T10:32:30Z</time>
      </trkpt>
      <trkpt lat="43.59137" lon="5.85319">
        <ele>470.7</ele>
        <time>2024-02-29T10:32:50Z</time>
      </trkpt>
      <trkpt lat="43.59141" lon="5.85313">
        <ele>470.8</ele>
        <time>2024-02-29T10:32:55.000Z</time>
      </trkpt>
      <trkpt lat="43.59144" lon="5.85306">
        <ele>471.2</ele>
        <time>2024-02-29T10:33:00Z</time>
      </trkpt>
      <trkpt lat="43.59148" lon="5.85295">
        <ele>471.6</ele>
        <time>2024-02-29T10:33:10Z</time>
      </trkpt>
      <trkpt lat="43.59152" lon="5.85288">
        <ele>471.5</ele>
        <time>2024-02-29T10:33:15.000Z</time>
      </trkpt>
      <trkpt lat="43.59155" lon="5.8528">
        <ele>471.5</ele>
        <time>2024-02-29T10:33:20Z</time>
      </trkpt>
      <trkpt lat="43.59158" lon="5.85271">
        <ele>471.5</ele>
        <time>2024-02-29T10:33:24.500Z</time>
      </trkpt>
      <trkpt lat="43.59161" lon="5.85261">
        <ele>471.3</ele>
        <time>2024-02-29T10:33:29Z</time>
      </trkpt>
      <trkpt lat="43.59162" lon="5.85254">
        <ele>471.5</ele>
        <time>2024-02-29T10:33:34.000Z</time>
      </trkpt>
      <trkpt lat="43.59163" lon="5.85247">
        <ele>471.6</ele>
        <time>2024-02-29T10:33:39Z</time>
      </trkpt>
      <trkpt lat="43.59164" lon="5.85238">
        <ele>471.5</ele>
        <time>2024-02-29T10:33:44.000Z</time>
      </trkpt>
      <trkpt lat="43.59165" lon="5.85229">
        <ele>471.4</ele>
        <time>2024-02-29T10:33:49Z</time>
      </trkpt>
      <trkpt lat="43.59165" lon="5.85222">
        <ele>471.7</ele>
        <time>2024-02-29T10:33:56.500Z</time>
      </trkpt>
      <trkpt lat="43.59165" lon="5.85215">
        <ele>471.9</ele>
        <time>2024-02-29T10:34:04Z</time>
      </trkpt>
      <trkpt lat="43.59167" lon="5.85203">
        <ele>471.6</ele>
        <time>2024-02-29T10:34:17Z</time>
      </trkpt>
      <trkpt lat="43.59167" lon="5.85196">
        <ele>471.9</ele>
        <time>2024-02-29T10:34:22.500Z</time>
      </trkpt>
      <trkpt lat="43.59167" lon="5.85188">
        <ele>472.2</ele>
        <time>2024-02-29T10:34:28Z</time>
      </trkpt>
      <trkpt lat="43.59168" lon="5.85178">
        <ele>472.5</ele>
        <time>2024-02-29T10:34:34.000Z</time>
      </trkpt>
      <trkpt lat="43.59168" lon="5.85168">
        <ele>472.8</ele>
        <time>2024-02-29T10:34:40Z</time>
      </trkpt>
      <trkpt lat="43.59167" lon="5.85159">
        <ele>473.2</ele>
        <time>2024-02-29T10:34:47.897Z</time>
      </trkpt>
      <trkpt lat="43.59166" lon="5.8515">
        <ele>473.8</ele>
        <time>2024-02-29T10:34:55.795Z</time>
      </trkpt>
      <trkpt lat="43.59166" lon="5.85144">
        <ele>474</ele>
        <time>2024-02-29T10:35:01Z</time>
      </trkpt>
      <trkpt lat="43.59166" lon="5.85135">
        <ele>474.2</ele>
        <time>2024-02-29T10:35:22Z</time>
      </trkpt>
      <trkpt lat="43.59167" lon="5.85129">
        <ele>474</ele>
        <time>2024-02-29T10:35:30.000Z</time>
      </trkpt>
      <trkpt lat="43.59167" lon="5.85122">
        <ele>474</ele>
        <time>2024-02-29T10:35:38Z</time>
      </trkpt>
      <trkpt lat="43.59162" lon="5.85113">
        <ele>475.2</ele>
        <time>2024-02-29T10:35:52Z</time>
      </trkpt>
      <trkpt lat="43.59158" lon="5.85106">
        <ele>476</ele>
        <time>2024-02-29T10:36:15Z</time>
      </trkpt>
      <trkpt lat="43.59164" lon="5.85112">
        <ele>474.7</ele>
        <time>2024-02-29T10:36:40Z</time>
      </trkpt>
      <trkpt lat="43.59167" lon="5.85115">
        <ele>474</ele>
        <time>2024-02-29T10:36:43.144Z</time>
      </trkpt>
      <trkpt lat="43.59172" lon="5.85115">
        <ele>473.6</ele>
        <time>2024-02-29T10:36:47.388Z</time>
      </trkpt>
      <trkpt lat="43.59176" lon="5.85113">
        <ele>473.3</ele>
        <time>2024-02-29T10:36:51Z</time>
      </trkpt>
      <trkpt lat="43.5918" lon="5.85115">
        <ele>473</ele>
        <time>2024-02-29T10:37:02Z</time>
      </trkpt>
      <trkpt lat="43.59178" lon="5.85113">
        <ele>473.2</ele>
        <time>2024-02-29T10:37:24Z</time>
      </trkpt>
      <trkpt lat="43.59181" lon="5.85107">
        <ele>472.9</ele>
        <time>2024-02-29T10:37:28.500Z</time>
      </trkpt>
      <trkpt lat="43.59183" lon="5.85101">
        <ele>472.7</ele>
        <time>2024-02-29T10:37:33Z</time>
      </trkpt>
      <trkpt lat="43.59184" lon="5.85094">
        <ele>472.5</ele>
        <time>2024-02-29T10:37:38.000Z</time>
      </trkpt>
      <trkpt lat="43.59185" lon="5.85087">
        <ele>472.4</ele>
        <time>2024-02-29T10:37:43Z</time>
      </trkpt>
      <trkpt lat="43.59184" lon="5.85079">
        <ele>472.3</ele>
        <time>2024-02-29T10:37:47.999Z</time>
      </trkpt>
      <trkpt lat="43.59182" lon="5.8507">
        <ele>472.2</ele>
        <time>2024-02-29T10:37:53Z</time>
      </trkpt>
      <trkpt lat="43.59182" lon="5.85062">
        <ele>472.1</ele>
        <time>2024-02-29T10:37:57.499Z</time>
      </trkpt>
      <trkpt lat="43.59181" lon="5.85054">
        <ele>471.9</ele>
        <time>2024-02-29T10:38:02Z</time>
      </trkpt>
      <trkpt lat="43.5918" lon="5.85047">
        <ele>471.4</ele>
        <time>2024-02-29T10:38:05.999Z</time>
      </trkpt>
      <trkpt lat="43.59179" lon="5.8504">
        <ele>471.1</ele>
        <time>2024-02-29T10:38:10Z</time>
      </trkpt>
      <trkpt lat="43.59178" lon="5.85033">
        <ele>470.8</ele>
        <time>2024-02-29T10:38:13.999Z</time>
      </trkpt>
      <trkpt lat="43.59176" lon="5.85026">
        <ele>470.6</ele>
        <time>2024-02-29T10:38:18Z</time>
      </trkpt>
      <trkpt lat="43.59175" lon="5.85019">
        <ele>470.7</ele>
        <time>2024-02-29T10:38:21.999Z</time>
      </trkpt>
      <trkpt lat="43.59173" lon="5.85012">
        <ele>470.8</ele>
        <time>2024-02-29T10:38:26Z</time>
      </trkpt>
      <trkpt lat="43.59172" lon="5.85006">
        <ele>470.9</ele>
        <time>2024-02-29T10:38:30.999Z</time>
      </trkpt>
      <trkpt lat="43.59171" lon="5.84999">
        <ele>471</ele>
        <time>2024-02-29T10:38:36Z</time>
      </trkpt>
      <trkpt lat="43.5917" lon="5.84988">
        <ele>470.4</ele>
        <time>2024-02-29T10:38:52Z</time>
      </trkpt>
      <trkpt lat="43.5917" lon="5.84982">
        <ele>470.1</ele>
        <time>2024-02-29T10:38:58.499Z</time>
      </trkpt>
      <trkpt lat="43.59169" lon="5.84975">
        <ele>469.7</ele>
        <time>2024-02-29T10:39:05Z</time>
      </trkpt>
      <trkpt lat="43.59168" lon="5.84968">
        <ele>469.7</ele>
        <time>2024-02-29T10:39:16.499Z</time>
      </trkpt>
      <trkpt lat="43.59166" lon="5.84961">
        <ele>469.7</ele>
        <time>2024-02-29T10:39:28Z</time>
      </trkpt>
      <trkpt lat="43.59165" lon="5.84955">
        <ele>469.6</ele>
        <time>2024-02-29T10:39:32.999Z</time>
      </trkpt>
      <trkpt lat="43.59164" lon="5.84948">
        <ele>469.6</ele>
        <time>2024-02-29T10:39:38Z</time>
      </trkpt>
      <trkpt lat="43.59163" lon="5.84941">
        <ele>469.6</ele>
        <time>2024-02-29T10:40:43Z</time>
      </trkpt>
      <trkpt lat="43.5917" lon="5.84938">
        <ele>468.4</ele>
        <time>2024-02-29T10:41:00Z</time>
      </trkpt>
      <trkpt lat="43.59166" lon="5.84938">
        <ele>469.2</ele>
        <time>2024-02-29T10:41:12.500Z</time>
      </trkpt>
      <trkpt lat="43.59161" lon="5.84938">
        <ele>470</ele>
        <time>2024-02-29T10:41:25Z</time>
      </trkpt>
      <trkpt lat="43.59161" lon="5.84932">
        <ele>470</ele>
        <time>2024-02-29T10:41:30.499Z</time>
      </trkpt>
      <trkpt lat="43.5916" lon="5.84925">
        <ele>470</ele>
        <time>2024-02-29T10:41:36Z</time>
      </trkpt>
      <trkpt lat="43.59159" lon="5.84914">
        <ele>469.9</ele>
        <time>2024-02-29T10:41:49Z</time>
      </trkpt>
      <trkpt lat="43.59156" lon="5.84906">
        <ele>469.9</ele>
        <time>2024-02-29T10:42:08Z</time>
      </trkpt>
      <trkpt lat="43.59155" lon="5.849">
        <ele>469.7</ele>
        <time>2024-02-29T10:42:16.499Z</time>
      </trkpt>
      <trkpt lat="43.59154" lon="5.84893">
        <ele>469.5</ele>
        <time>2024-02-29T10:42:25Z</time>
      </trkpt>
      <trkpt lat="43.59154" lon="5.84892">
        <ele>469.5</ele>
        <time>2024-02-29T10:42:45Z</time>
      </trkpt>
      <trkpt lat="43.59159" lon="5.84888">
        <ele>468.4</ele>
        <time>2024-02-29T10:43:00.000Z</time>
      </trkpt>
      <trkpt lat="43.59163" lon="5.84884">
        <ele>467.1</ele>
        <time>2024-02-29T10:43:15Z</time>
      </trkpt>
      <trkpt lat="43.59169" lon="5.84875">
        <ele>465</ele>
        <time>2024-02-29T10:43:28Z</time>
      </trkpt>
      <trkpt lat="43.59172" lon="5.84869">
        <ele>463.7</ele>
        <time>2024-02-29T10:43:35.000Z</time>
      </trkpt>
      <trkpt lat="43.59174" lon="5.84862">
        <ele>462.5</ele>
        <time>2024-02-29T10:43:42Z</time>
      </trkpt>
      <trkpt lat="43.59175" lon="5.84855">
        <ele>461.7</ele>
        <time>2024-02-29T10:44:28Z</time>
      </trkpt>
      <trkpt lat="43.59172" lon="5.8485">
        <ele>462.1</ele>
        <time>2024-02-29T10:44:36.999Z</time>
      </trkpt>
      <trkpt lat="43.59168" lon="5.84845">
        <ele>462.5</ele>
        <time>2024-02-29T10:44:46Z</time>
      </trkpt>
      <trkpt lat="43.59162" lon="5.84838">
        <ele>462.9</ele>
        <time>2024-02-29T10:45:00Z</time>
      </trkpt>
      <trkpt lat="43.59157" lon="5.8484">
        <ele>463.6</ele>
        <time>2024-02-29T10:45:05.355Z</time>
      </trkpt>
      <trkpt lat="43.59153" lon="5.84847">
        <ele>464.7</ele>
        <time>2024-02-29T10:45:12Z</time>
      </trkpt>
      <trkpt lat="43.59149" lon="5.84852">
        <ele>465.7</ele>
        <time>2024-02-29T10:45:19.999Z</time>
      </trkpt>
      <trkpt lat="43.59144" lon="5.84856">
        <ele>466.7</ele>
        <time>2024-02-29T10:45:28Z</time>
      </trkpt>
      <trkpt lat="43.59141" lon="5.8486">
        <ele>467.6</ele>
        <time>2024-02-29T10:45:52Z</time>
      </trkpt>
      <trkpt lat="43.59135" lon="5.84863">
        <ele>469.1</ele>
        <time>2024-02-29T10:46:02.499Z</time>
      </trkpt>
      <trkpt lat="43.59129" lon="5.84866">
        <ele>470.8</ele>
        <time>2024-02-29T10:46:13Z</time>
      </trkpt>
      <trkpt lat="43.59127" lon="5.84857">
        <ele>470</ele>
        <time>2024-02-29T10:46:19.887Z</time>
      </trkpt>
      <trkpt lat="43.59123" lon="5.84849">
        <ele>469.6</ele>
        <time>2024-02-29T10:46:27Z</time>
      </trkpt>
      <trkpt lat="43.5912" lon="5.84851">
        <ele>470.5</ele>
        <time>2024-02-29T10:46:47Z</time>
      </trkpt>
      <trkpt lat="43.59119" lon="5.8486">
        <ele>472.1</ele>
        <time>2024-02-29T10:46:53.999Z</time>
      </trkpt>
      <trkpt lat="43.59117" lon="5.84868">
        <ele>473.7</ele>
        <time>2024-02-29T10:47:01Z</time>
      </trkpt>
      <trkpt lat="43.59112" lon="5.84877">
        <ele>476.1</ele>
        <time>2024-02-29T10:47:15Z</time>
      </trkpt>
      <trkpt lat="43.59106" lon="5.84879">
        <ele>477.4</ele>
        <time>2024-02-29T10:47:29Z</time>
      </trkpt>
      <trkpt lat="43.59102" lon="5.84879">
        <ele>478.2</ele>
        <time>2024-02-29T10:47:35.500Z</time>
      </trkpt>
      <trkpt lat="43.59097" lon="5.84879">
        <ele>478.9</ele>
        <time>2024-02-29T10:47:42Z</time>
      </trkpt>
      <trkpt lat="43.59096" lon="5.8489">
        <ele>481.4</ele>
        <time>2024-02-29T10:48:02Z</time>
      </trkpt>
      <trkpt lat="43.59098" lon="5.84901">
        <ele>481.9</ele>
        <time>2024-02-29T10:55:38.550Z</time>
      </trkpt>
      <trkpt lat="43.59094" lon="5.84903">
        <ele>483</ele>
        <time>2024-02-29T10:59:35Z</time>
      </trkpt>
      <trkpt lat="43.59088" lon="5.84904">
        <ele>484.5</ele>
        <time>2024-02-29T10:59:41.500Z</time>
      </trkpt>
      <trkpt lat="43.59082" lon="5.84905">
        <ele>486.3</ele>
        <time>2024-02-29T10:59:48Z</time>
      </trkpt>
      <trkpt lat="43.59078" lon="5.84905">
        <ele>487.9</ele>
        <time>2024-02-29T10:59:55.386Z</time>
      </trkpt>
      <trkpt lat="43.59073" lon="5.84907">
        <ele>490.4</ele>
        <time>2024-02-29T11:00:05Z</time>
      </trkpt>
      <trkpt lat="43.59071" lon="5.84916">
        <ele>493.1</ele>
        <time>2024-02-29T11:00:13.282Z</time>
      </trkpt>
      <trkpt lat="43.59074" lon="5.84925">
        <ele>492.6</ele>
        <time>2024-02-29T11:00:22Z</time>
      </trkpt>
      <trkpt lat="43.59076" lon="5.84934">
        <ele>492.6</ele>
        <time>2024-02-29T11:00:36.734Z</time>
      </trkpt>
      <trkpt lat="43.59074" lon="5.84941">
        <ele>494.3</ele>
        <time>2024-02-29T11:00:48.512Z</time>
      </trkpt>
      <trkpt lat="43.59079" lon="5.84937">
        <ele>491.4</ele>
        <time>2024-02-29T11:01:01Z</time>
      </trkpt>
      <trkpt lat="43.59082" lon="5.84943">
        <ele>490.8</ele>
        <time>2024-02-29T11:01:10.000Z</time>
      </trkpt>
      <trkpt lat="43.59084" lon="5.84949">
        <ele>490.4</ele>
        <time>2024-02-29T11:01:19Z</time>
      </trkpt>
      <trkpt lat="43.59092" lon="5.84954">
        <ele>488.4</ele>
        <time>2024-02-29T11:01:29Z</time>
      </trkpt>
      <trkpt lat="43.59093" lon="5.84947">
        <ele>487.1</ele>
        <time>2024-02-29T11:01:34.000Z</time>
      </trkpt>
      <trkpt lat="43.59094" lon="5.84939">
        <ele>486.1</ele>
        <time>2024-02-29T11:01:39Z</time>
      </trkpt>
      <trkpt lat="43.59096" lon="5.84928">
        <ele>484.7</ele>
        <time>2024-02-29T11:01:49Z</time>
      </trkpt>
      <trkpt lat="43.59098" lon="5.84922">
        <ele>483.8</ele>
        <time>2024-02-29T11:01:54.500Z</time>
      </trkpt>
      <trkpt lat="43.59099" lon="5.84915">
        <ele>482.9</ele>
        <time>2024-02-29T11:02:00Z</time>
      </trkpt>
      <trkpt lat="43.59105" lon="5.8491">
        <ele>481</ele>
        <time>2024-02-29T11:02:11Z</time>
      </trkpt>
      <trkpt lat="43.59108" lon="5.84908">
        <ele>480.1</ele>
        <time>2024-02-29T11:02:11.671Z</time>
      </trkpt>
      <trkpt lat="43.59112" lon="5.8491">
        <ele>479.3</ele>
        <time>2024-02-29T11:02:12.529Z</time>
      </trkpt>
      <trkpt lat="43.59113" lon="5.84917">
        <ele>479.5</ele>
        <time>2024-02-29T11:02:13.499Z</time>
      </trkpt>
      <trkpt lat="43.59114" lon="5.84923">
        <ele>479.5</ele>
        <time>2024-02-29T11:02:14.470Z</time>
      </trkpt>
      <trkpt lat="43.59116" lon="5.84931">
        <ele>479.3</ele>
        <time>2024-02-29T11:02:15.637Z</time>
      </trkpt>
      <trkpt lat="43.59118" lon="5.84938">
        <ele>479</ele>
        <time>2024-02-29T11:02:16.805Z</time>
      </trkpt>
      <trkpt lat="43.59122" lon="5.84949">
        <ele>478.5</ele>
        <time>2024-02-29T11:02:18.603Z</time>
      </trkpt>
      <trkpt lat="43.59125" lon="5.8496">
        <ele>478.1</ele>
        <time>2024-02-29T11:02:20.320Z</time>
      </trkpt>
      <trkpt lat="43.59128" lon="5.84968">
        <ele>477.4</ele>
        <time>2024-02-29T11:02:21.636Z</time>
      </trkpt>
      <trkpt lat="43.5913" lon="5.84977">
        <ele>477.1</ele>
        <time>2024-02-29T11:02:23.011Z</time>
      </trkpt>
      <trkpt lat="43.5913" lon="5.84984">
        <ele>477.4</ele>
        <time>2024-02-29T11:02:24.033Z</time>
      </trkpt>
      <trkpt lat="43.5913" lon="5.84991">
        <ele>477.9</ele>
        <time>2024-02-29T11:02:25.024Z</time>
      </trkpt>
      <trkpt lat="43.59129" lon="5.84998">
        <ele>478.4</ele>
        <time>2024-02-29T11:02:26.016Z</time>
      </trkpt>
      <trkpt lat="43.59129" lon="5.85004">
        <ele>478.7</ele>
        <time>2024-02-29T11:02:27.008Z</time>
      </trkpt>
      <trkpt lat="43.59128" lon="5.85011">
        <ele>478.9</ele>
        <time>2024-02-29T11:02:28Z</time>
      </trkpt>
      <trkpt lat="43.59127" lon="5.85021">
        <ele>479.3</ele>
        <time>2024-02-29T11:02:39.499Z</time>
      </trkpt>
      <trkpt lat="43.59126" lon="5.85031">
        <ele>479.9</ele>
        <time>2024-02-29T11:02:51Z</time>
      </trkpt>
      <trkpt lat="43.59125" lon="5.85041">
        <ele>481.2</ele>
        <time>2024-02-29T11:03:34Z</time>
      </trkpt>
      <trkpt lat="43.59125" lon="5.85052">
        <ele>482.2</ele>
        <time>2024-02-29T11:04:00Z</time>
      </trkpt>
      <trkpt lat="43.59127" lon="5.85064">
        <ele>482.6</ele>
        <time>2024-02-29T11:04:11Z</time>
      </trkpt>
      <trkpt lat="43.59129" lon="5.85071">
        <ele>482.5</ele>
        <time>2024-02-29T11:04:16.000Z</time>
      </trkpt>
      <trkpt lat="43.59131" lon="5.85077">
        <ele>482.3</ele>
        <time>2024-02-29T11:04:21Z</time>
      </trkpt>
      <trkpt lat="43.59133" lon="5.85084">
        <ele>482.1</ele>
        <time>2024-02-29T11:04:28.000Z</time>
      </trkpt>
      <trkpt lat="43.59135" lon="5.8509">
        <ele>481.7</ele>
        <time>2024-02-29T11:04:35Z</time>
      </trkpt>
      <trkpt lat="43.59137" lon="5.85099">
        <ele>481.3</ele>
        <time>2024-02-29T11:04:39.500Z</time>
      </trkpt>
      <trkpt lat="43.59139" lon="5.85108">
        <ele>480.9</ele>
        <time>2024-02-29T11:04:44Z</time>
      </trkpt>
      <trkpt lat="43.5914" lon="5.85115">
        <ele>481.1</ele>
        <time>2024-02-29T11:04:48.000Z</time>
      </trkpt>
      <trkpt lat="43.5914" lon="5.85122">
        <ele>481.5</ele>
        <time>2024-02-29T11:04:52Z</time>
      </trkpt>
      <trkpt lat="43.59141" lon="5.85129">
        <ele>481.8</ele>
        <time>2024-02-29T11:04:56.000Z</time>
      </trkpt>
      <trkpt lat="43.59141" lon="5.85135">
        <ele>482.1</ele>
        <time>2024-02-29T11:05:00Z</time>
      </trkpt>
      <trkpt lat="43.59141" lon="5.85142">
        <ele>482.2</ele>
        <time>2024-02-29T11:05:04.500Z</time>
      </trkpt>
      <trkpt lat="43.59141" lon="5.85148">
        <ele>482</ele>
        <time>2024-02-29T11:05:09Z</time>
      </trkpt>
      <trkpt lat="43.59142" lon="5.85156">
        <ele>481.4</ele>
        <time>2024-02-29T11:05:13.500Z</time>
      </trkpt>
      <trkpt lat="43.59143" lon="5.85164">
        <ele>480.8</ele>
        <time>2024-02-29T11:05:18Z</time>
      </trkpt>
      <trkpt lat="43.59146" lon="5.85172">
        <ele>479.9</ele>
        <time>2024-02-29T11:05:22.500Z</time>
      </trkpt>
      <trkpt lat="43.59148" lon="5.85179">
        <ele>479.2</ele>
        <time>2024-02-29T11:05:27Z</time>
      </trkpt>
      <trkpt lat="43.59147" lon="5.85191">
        <ele>479.7</ele>
        <time>2024-02-29T11:05:41Z</time>
      </trkpt>
      <trkpt lat="43.59147" lon="5.85198">
        <ele>479.7</ele>
        <time>2024-02-29T11:05:46.000Z</time>
      </trkpt>
      <trkpt lat="43.59147" lon="5.85205">
        <ele>479.4</ele>
        <time>2024-02-29T11:05:51Z</time>
      </trkpt>
      <trkpt lat="43.59147" lon="5.85213">
        <ele>479.3</ele>
        <time>2024-02-29T11:05:55.999Z</time>
      </trkpt>
      <trkpt lat="43.59146" lon="5.85221">
        <ele>479.2</ele>
        <time>2024-02-29T11:06:01Z</time>
      </trkpt>
      <trkpt lat="43.59147" lon="5.85229">
        <ele>478.6</ele>
        <time>2024-02-29T11:06:06.000Z</time>
      </trkpt>
      <trkpt lat="43.59148" lon="5.85236">
        <ele>477.9</ele>
        <time>2024-02-29T11:06:11Z</time>
      </trkpt>
      <trkpt lat="43.59147" lon="5.85246">
        <ele>477.9</ele>
        <time>2024-02-29T11:06:16.499Z</time>
      </trkpt>
      <trkpt lat="43.59146" lon="5.85255">
        <ele>477.6</ele>
        <time>2024-02-29T11:06:22Z</time>
      </trkpt>
      <trkpt lat="43.59144" lon="5.85262">
        <ele>477.5</ele>
        <time>2024-02-29T11:06:26.499Z</time>
      </trkpt>
      <trkpt lat="43.59142" lon="5.85268">
        <ele>477.3</ele>
        <time>2024-02-29T11:06:31Z</time>
      </trkpt>
      <trkpt lat="43.59141" lon="5.85276">
        <ele>476.7</ele>
        <time>2024-02-29T11:06:36.499Z</time>
      </trkpt>
      <trkpt lat="43.59139" lon="5.85284">
        <ele>476.1</ele>
        <time>2024-02-29T11:06:42Z</time>
      </trkpt>
      <trkpt lat="43.59138" lon="5.85293">
        <ele>475.7</ele>
        <time>2024-02-29T11:06:47.499Z</time>
      </trkpt>
      <trkpt lat="43.59136" lon="5.85301">
        <ele>475.3</ele>
        <time>2024-02-29T11:06:53Z</time>
      </trkpt>
      <trkpt lat="43.59133" lon="5.85312">
        <ele>474.8</ele>
        <time>2024-02-29T11:06:58.999Z</time>
      </trkpt>
      <trkpt lat="43.5913" lon="5.85322">
        <ele>473.8</ele>
        <time>2024-02-29T11:07:05Z</time>
      </trkpt>
      <trkpt lat="43.59128" lon="5.85329">
        <ele>473.4</ele>
        <time>2024-02-29T11:07:08.999Z</time>
      </trkpt>
      <trkpt lat="43.59125" lon="5.85335">
        <ele>473</ele>
        <time>2024-02-29T11:07:13Z</time>
      </trkpt>
      <trkpt lat="43.5912" lon="5.85342">
        <ele>473.6</ele>
        <time>2024-02-29T11:07:21Z</time>
      </trkpt>
      <trkpt lat="43.59117" lon="5.85347">
        <ele>473.6</ele>
        <time>2024-02-29T11:07:25.999Z</time>
      </trkpt>
      <trkpt lat="43.59113" lon="5.85352">
        <ele>473.5</ele>
        <time>2024-02-29T11:07:31Z</time>
      </trkpt>
      <trkpt lat="43.59109" lon="5.85358">
        <ele>473</ele>
        <time>2024-02-29T11:07:36.499Z</time>
      </trkpt>
      <trkpt lat="43.59105" lon="5.85364">
        <ele>472.7</ele>
        <time>2024-02-29T11:07:42Z</time>
      </trkpt>
      <trkpt lat="43.591" lon="5.85369">
        <ele>473.6</ele>
        <time>2024-02-29T11:07:47.499Z</time>
      </trkpt>
      <trkpt lat="43.59094" lon="5.85373">
        <ele>474.2</ele>
        <time>2024-02-29T11:07:53Z</time>
      </trkpt>
      <trkpt lat="43.59089" lon="5.85378">
        <ele>474.3</ele>
        <time>2024-02-29T11:07:57.499Z</time>
      </trkpt>
      <trkpt lat="43.59084" lon="5.85382">
        <ele>474.3</ele>
        <time>2024-02-29T11:08:02Z</time>
      </trkpt>
      <trkpt lat="43.59078" lon="5.85388">
        <ele>474.6</ele>
        <time>2024-02-29T11:08:06.999Z</time>
      </trkpt>
      <trkpt lat="43.59071" lon="5.85393">
        <ele>475</ele>
        <time>2024-02-29T11:08:12Z</time>
      </trkpt>
      <trkpt lat="43.59065" lon="5.85398">
        <ele>475.2</ele>
        <time>2024-02-29T11:08:22Z</time>
      </trkpt>
      <trkpt lat="43.5906" lon="5.85403">
        <ele>475.3</ele>
        <time>2024-02-29T11:08:26.499Z</time>
      </trkpt>
      <trkpt lat="43.59054" lon="5.85407">
        <ele>475.2</ele>
        <time>2024-02-29T11:08:31Z</time>
      </trkpt>
      <trkpt lat="43.5905" lon="5.8541">
        <ele>475.3</ele>
        <time>2024-02-29T11:08:34.999Z</time>
      </trkpt>
      <trkpt lat="43.59045" lon="5.85413">
        <ele>475.4</ele>
        <time>2024-02-29T11:08:39Z</time>
      </trkpt>
      <trkpt lat="43.59041" lon="5.85417">
        <ele>475.1</ele>
        <time>2024-02-29T11:08:42.999Z</time>
      </trkpt>
      <trkpt lat="43.59037" lon="5.85421">
        <ele>474.7</ele>
        <time>2024-02-29T11:08:47Z</time>
      </trkpt>
      <trkpt lat="43.59033" lon="5.85423">
        <ele>475.2</ele>
        <time>2024-02-29T11:08:50.499Z</time>
      </trkpt>
      <trkpt lat="43.59028" lon="5.85425">
        <ele>475.6</ele>
        <time>2024-02-29T11:08:54Z</time>
      </trkpt>
      <trkpt lat="43.59023" lon="5.8543">
        <ele>475</ele>
        <time>2024-02-29T11:08:57.999Z</time>
      </trkpt>
      <trkpt lat="43.59018" lon="5.85434">
        <ele>474.5</ele>
        <time>2024-02-29T11:09:02Z</time>
      </trkpt>
      <trkpt lat="43.59012" lon="5.85436">
        <ele>475.3</ele>
        <time>2024-02-29T11:09:06.500Z</time>
      </trkpt>
      <trkpt lat="43.59006" lon="5.85437">
        <ele>476.2</ele>
        <time>2024-02-29T11:09:11Z</time>
      </trkpt>
      <trkpt lat="43.58998" lon="5.85442">
        <ele>476.2</ele>
        <time>2024-02-29T11:09:20Z</time>
      </trkpt>
      <trkpt lat="43.58992" lon="5.85446">
        <ele>476.2</ele>
        <time>2024-02-29T11:09:25.499Z</time>
      </trkpt>
      <trkpt lat="43.58986" lon="5.85449">
        <ele>476.6</ele>
        <time>2024-02-29T11:09:31Z</time>
      </trkpt>
      <trkpt lat="43.58981" lon="5.85452">
        <ele>477</ele>
        <time>2024-02-29T11:09:35.999Z</time>
      </trkpt>
      <trkpt lat="43.58975" lon="5.85455">
        <ele>477.3</ele>
        <time>2024-02-29T11:09:41Z</time>
      </trkpt>
      <trkpt lat="43.58972" lon="5.85458">
        <ele>477.1</ele>
        <time>2024-02-29T11:09:42.975Z</time>
      </trkpt>
      <trkpt lat="43.58967" lon="5.85463">
        <ele>477.1</ele>
        <time>2024-02-29T11:09:46.487Z</time>
      </trkpt>
      <trkpt lat="43.58961" lon="5.85468">
        <ele>477</ele>
        <time>2024-02-29T11:09:50Z</time>
      </trkpt>
      <trkpt lat="43.58956" lon="5.85474">
        <ele>477</ele>
        <time>2024-02-29T11:09:54.499Z</time>
      </trkpt>
      <trkpt lat="43.58951" lon="5.85479">
        <ele>478.1</ele>
        <time>2024-02-29T11:09:59Z</time>
      </trkpt>
      <trkpt lat="43.58946" lon="5.85483">
        <ele>478.8</ele>
        <time>2024-02-29T11:10:03.499Z</time>
      </trkpt>
      <trkpt lat="43.58941" lon="5.85486">
        <ele>479.4</ele>
        <time>2024-02-29T11:10:08Z</time>
      </trkpt>
      <trkpt lat="43.58936" lon="5.85489">
        <ele>479.9</ele>
        <time>2024-02-29T11:10:12.999Z</time>
      </trkpt>
      <trkpt lat="43.58931" lon="5.85491">
        <ele>480.5</ele>
        <time>2024-02-29T11:10:18Z</time>
      </trkpt>
      <trkpt lat="43.58927" lon="5.85493">
        <ele>480.9</ele>
        <time>2024-02-29T11:10:23.500Z</time>
      </trkpt>
      <trkpt lat="43.58922" lon="5.85494">
        <ele>481.4</ele>
        <time>2024-02-29T11:10:29Z</time>
      </trkpt>
      <trkpt lat="43.58917" lon="5.85495">
        <ele>482</ele>
        <time>2024-02-29T11:10:35.500Z</time>
      </trkpt>
      <trkpt lat="43.58912" lon="5.85495">
        <ele>482.2</ele>
        <time>2024-02-29T11:10:42Z</time>
      </trkpt>
      <trkpt lat="43.58906" lon="5.85497">
        <ele>482.5</ele>
        <time>2024-02-29T11:10:47.500Z</time>
      </trkpt>
      <trkpt lat="43.589" lon="5.85498">
        <ele>482.7</ele>
        <time>2024-02-29T11:10:53Z</time>
      </trkpt>
      <trkpt lat="43.58894" lon="5.855">
        <ele>482.9</ele>
        <time>2024-02-29T11:10:59.500Z</time>
      </trkpt>
      <trkpt lat="43.58887" lon="5.85501">
        <ele>483.4</ele>
        <time>2024-02-29T11:11:06Z</time>
      </trkpt>
      <trkpt lat="43.58883" lon="5.85503">
        <ele>484</ele>
        <time>2024-02-29T11:11:11.500Z</time>
      </trkpt>
      <trkpt lat="43.58878" lon="5.85504">
        <ele>484.7</ele>
        <time>2024-02-29T11:11:17Z</time>
      </trkpt>
      <trkpt lat="43.58871" lon="5.85506">
        <ele>485.4</ele>
        <time>2024-02-29T11:11:23.500Z</time>
      </trkpt>
      <trkpt lat="43.58864" lon="5.85507">
        <ele>486.1</ele>
        <time>2024-02-29T11:11:30Z</time>
      </trkpt>
      <trkpt lat="43.58856" lon="5.85509">
        <ele>486.9</ele>
        <time>2024-02-29T11:11:35.999Z</time>
      </trkpt>
      <trkpt lat="43.58848" lon="5.85511">
        <ele>487.6</ele>
        <time>2024-02-29T11:11:42Z</time>
      </trkpt>
      <trkpt lat="43.58842" lon="5.85515">
        <ele>488.3</ele>
        <time>2024-02-29T11:11:47.999Z</time>
      </trkpt>
      <trkpt lat="43.58836" lon="5.85519">
        <ele>488.7</ele>
        <time>2024-02-29T11:11:54Z</time>
      </trkpt>
      <trkpt lat="43.58832" lon="5.85523">
        <ele>488.8</ele>
        <time>2024-02-29T11:11:58.999Z</time>
      </trkpt>
      <trkpt lat="43.58828" lon="5.85527">
        <ele>489</ele>
        <time>2024-02-29T11:12:04Z</time>
      </trkpt>
      <trkpt lat="43.58824" lon="5.8553">
        <ele>489.3</ele>
        <time>2024-02-29T11:12:08.999Z</time>
      </trkpt>
      <trkpt lat="43.58819" lon="5.85533">
        <ele>489.7</ele>
        <time>2024-02-29T11:12:14Z</time>
      </trkpt>
      <trkpt lat="43.58815" lon="5.85537">
        <ele>490.1</ele>
        <time>2024-02-29T11:12:19.499Z</time>
      </trkpt>
      <trkpt lat="43.5881" lon="5.8554">
        <ele>490.5</ele>
        <time>2024-02-29T11:12:25Z</time>
      </trkpt>
      <trkpt lat="43.58807" lon="5.85545">
        <ele>490.9</ele>
        <time>2024-02-29T11:12:30.999Z</time>
      </trkpt>
      <trkpt lat="43.58803" lon="5.8555">
        <ele>491.4</ele>
        <time>2024-02-29T11:12:37Z</time>
      </trkpt>
      <trkpt lat="43.58798" lon="5.85556">
        <ele>492</ele>
        <time>2024-02-29T11:12:43.499Z</time>
      </trkpt>
      <trkpt lat="43.58793" lon="5.85561">
        <ele>492.7</ele>
        <time>2024-02-29T11:12:50Z</time>
      </trkpt>
      <trkpt lat="43.58789" lon="5.85568">
        <ele>493.5</ele>
        <time>2024-02-29T11:12:55.499Z</time>
      </trkpt>
      <trkpt lat="43.58784" lon="5.85575">
        <ele>494.3</ele>
        <time>2024-02-29T11:13:01Z</time>
      </trkpt>
      <trkpt lat="43.58781" lon="5.85581">
        <ele>494.8</ele>
        <time>2024-02-29T11:13:06.999Z</time>
      </trkpt>
      <trkpt lat="43.58777" lon="5.85586">
        <ele>495.2</ele>
        <time>2024-02-29T11:13:13Z</time>
      </trkpt>
      <trkpt lat="43.58773" lon="5.8559">
        <ele>495.3</ele>
        <time>2024-02-29T11:13:18.499Z</time>
      </trkpt>
      <trkpt lat="43.58768" lon="5.85594">
        <ele>495.6</ele>
        <time>2024-02-29T11:13:24Z</time>
      </trkpt>
      <trkpt lat="43.58764" lon="5.856">
        <ele>496</ele>
        <time>2024-02-29T11:13:29.999Z</time>
      </trkpt>
      <trkpt lat="43.5876" lon="5.85605">
        <ele>496.4</ele>
        <time>2024-02-29T11:13:36Z</time>
      </trkpt>
      <trkpt lat="43.58756" lon="5.85611">
        <ele>497</ele>
        <time>2024-02-29T11:13:40.999Z</time>
      </trkpt>
      <trkpt lat="43.58751" lon="5.85617">
        <ele>497.4</ele>
        <time>2024-02-29T11:13:46Z</time>
      </trkpt>
      <trkpt lat="43.58749" lon="5.85626">
        <ele>498.1</ele>
        <time>2024-02-29T11:13:55Z</time>
      </trkpt>
      <trkpt lat="43.58745" lon="5.85633">
        <ele>498.5</ele>
        <time>2024-02-29T11:43:12Z</time>
      </trkpt>
      <trkpt lat="43.58738" lon="5.85637">
        <ele>498.8</ele>
        <time>2024-02-29T11:43:51Z</time>
      </trkpt>
      <trkpt lat="43.58734" lon="5.85644">
        <ele>499.2</ele>
        <time>2024-02-29T11:43:56.999Z</time>
      </trkpt>
      <trkpt lat="43.58729" lon="5.8565">
        <ele>499.5</ele>
        <time>2024-02-29T11:44:03Z</time>
      </trkpt>
      <trkpt lat="43.58726" lon="5.85657">
        <ele>499.7</ele>
        <time>2024-02-29T11:44:06.869Z</time>
      </trkpt>
      <trkpt lat="43.58723" lon="5.85663">
        <ele>499.9</ele>
        <time>2024-02-29T11:44:10.739Z</time>
      </trkpt>
      <trkpt lat="43.5872" lon="5.85668">
        <ele>500</ele>
        <time>2024-02-29T11:44:14Z</time>
      </trkpt>
      <trkpt lat="43.58717" lon="5.85673">
        <ele>500.2</ele>
        <time>2024-02-29T11:44:18.999Z</time>
      </trkpt>
      <trkpt lat="43.58714" lon="5.85678">
        <ele>500.3</ele>
        <time>2024-02-29T11:44:24Z</time>
      </trkpt>
      <trkpt lat="43.58711" lon="5.85683">
        <ele>500.3</ele>
        <time>2024-02-29T11:44:28.499Z</time>
      </trkpt>
      <trkpt lat="43.58707" lon="5.85687">
        <ele>500.3</ele>
        <time>2024-02-29T11:44:33Z</time>
      </trkpt>
      <trkpt lat="43.58702" lon="5.85692">
        <ele>500.2</ele>
        <time>2024-02-29T11:44:37.499Z</time>
      </trkpt>
      <trkpt lat="43.58697" lon="5.85696">
        <ele>500.1</ele>
        <time>2024-02-29T11:44:42Z</time>
      </trkpt>
      <trkpt lat="43.58692" lon="5.85702">
        <ele>499.9</ele>
        <time>2024-02-29T11:44:47.499Z</time>
      </trkpt>
      <trkpt lat="43.58687" lon="5.85707">
        <ele>499.7</ele>
        <time>2024-02-29T11:44:53Z</time>
      </trkpt>
      <trkpt lat="43.58681" lon="5.85712">
        <ele>499.5</ele>
        <time>2024-02-29T11:44:57.499Z</time>
      </trkpt>
      <trkpt lat="43.58675" lon="5.85717">
        <ele>499.3</ele>
        <time>2024-02-29T11:45:02Z</time>
      </trkpt>
      <trkpt lat="43.58671" lon="5.85725">
        <ele>499.1</ele>
        <time>2024-02-29T11:45:06.999Z</time>
      </trkpt>
      <trkpt lat="43.58666" lon="5.85732">
        <ele>498.6</ele>
        <time>2024-02-29T11:45:12Z</time>
      </trkpt>
      <trkpt lat="43.58662" lon="5.85739">
        <ele>498.3</ele>
        <time>2024-02-29T11:45:15.999Z</time>
      </trkpt>
      <trkpt lat="43.58657" lon="5.85745">
        <ele>497.9</ele>
        <time>2024-02-29T11:45:20Z</time>
      </trkpt>
      <trkpt lat="43.58658" lon="5.85753">
        <ele>497.3</ele>
        <time>2024-02-29T11:45:24.500Z</time>
      </trkpt>
      <trkpt lat="43.58658" lon="5.85761">
        <ele>496.5</ele>
        <time>2024-02-29T11:45:29Z</time>
      </trkpt>
      <trkpt lat="43.58662" lon="5.8577">
        <ele>495.7</ele>
        <time>2024-02-29T11:45:34.500Z</time>
      </trkpt>
      <trkpt lat="43.58666" lon="5.85778">
        <ele>495</ele>
        <time>2024-02-29T11:45:40Z</time>
      </trkpt>
      <trkpt lat="43.58668" lon="5.85786">
        <ele>494.3</ele>
        <time>2024-02-29T11:45:44.500Z</time>
      </trkpt>
      <trkpt lat="43.58669" lon="5.85793">
        <ele>493.6</ele>
        <time>2024-02-29T11:45:49Z</time>
      </trkpt>
      <trkpt lat="43.58664" lon="5.85798">
        <ele>492.7</ele>
        <time>2024-02-29T11:46:02Z</time>
      </trkpt>
      <trkpt lat="43.58657" lon="5.85802">
        <ele>492.1</ele>
        <time>2024-02-29T11:46:07.999Z</time>
      </trkpt>
      <trkpt lat="43.58649" lon="5.85805">
        <ele>491.4</ele>
        <time>2024-02-29T11:46:14Z</time>
      </trkpt>
      <trkpt lat="43.58643" lon="5.8581">
        <ele>490.6</ele>
        <time>2024-02-29T11:46:18.499Z</time>
      </trkpt>
      <trkpt lat="43.58636" lon="5.85814">
        <ele>489.6</ele>
        <time>2024-02-29T11:46:23Z</time>
      </trkpt>
      <trkpt lat="43.58631" lon="5.85817">
        <ele>488.9</ele>
        <time>2024-02-29T11:46:28.999Z</time>
      </trkpt>
      <trkpt lat="43.58625" lon="5.8582">
        <ele>488.2</ele>
        <time>2024-02-29T11:46:35Z</time>
      </trkpt>
      <trkpt lat="43.5862" lon="5.85825">
        <ele>487.4</ele>
        <time>2024-02-29T11:46:39.999Z</time>
      </trkpt>
      <trkpt lat="43.58614" lon="5.85829">
        <ele>486.6</ele>
        <time>2024-02-29T11:46:45Z</time>
      </trkpt>
      <trkpt lat="43.58608" lon="5.85836">
        <ele>485.6</ele>
        <time>2024-02-29T11:46:49.999Z</time>
      </trkpt>
      <trkpt lat="43.58602" lon="5.85843">
        <ele>484.6</ele>
        <time>2024-02-29T11:46:55Z</time>
      </trkpt>
      <trkpt lat="43.58598" lon="5.85847">
        <ele>484.1</ele>
        <time>2024-02-29T11:46:59.499Z</time>
      </trkpt>
      <trkpt lat="43.58593" lon="5.8585">
        <ele>483.5</ele>
        <time>2024-02-29T11:47:04Z</time>
      </trkpt>
      <trkpt lat="43.58589" lon="5.85855">
        <ele>482.9</ele>
        <time>2024-02-29T11:47:07.999Z</time>
      </trkpt>
      <trkpt lat="43.58585" lon="5.85859">
        <ele>482.3</ele>
        <time>2024-02-29T11:47:12Z</time>
      </trkpt>
      <trkpt lat="43.58582" lon="5.85863">
        <ele>481.8</ele>
        <time>2024-02-29T11:47:16.499Z</time>
      </trkpt>
      <trkpt lat="43.58578" lon="5.85867">
        <ele>481.3</ele>
        <time>2024-02-29T11:47:21Z</time>
      </trkpt>
      <trkpt lat="43.58573" lon="5.85872">
        <ele>480.7</ele>
        <time>2024-02-29T11:47:24.999Z</time>
      </trkpt>
      <trkpt lat="43.58568" lon="5.85876">
        <ele>480.1</ele>
        <time>2024-02-29T11:47:29Z</time>
      </trkpt>
      <trkpt lat="43.58564" lon="5.8588">
        <ele>479.6</ele>
        <time>2024-02-29T11:47:33.499Z</time>
      </trkpt>
      <trkpt lat="43.5856" lon="5.85883">
        <ele>479</ele>
        <time>2024-02-29T11:47:38Z</time>
      </trkpt>
      <trkpt lat="43.58553" lon="5.85887">
        <ele>478.3</ele>
        <time>2024-02-29T11:47:42.999Z</time>
      </trkpt>
      <trkpt lat="43.58546" lon="5.85891">
        <ele>477.7</ele>
        <time>2024-02-29T11:47:48Z</time>
      </trkpt>
      <trkpt lat="43.58541" lon="5.85898">
        <ele>476.9</ele>
        <time>2024-02-29T11:47:54.499Z</time>
      </trkpt>
      <trkpt lat="43.58536" lon="5.85904">
        <ele>476</ele>
        <time>2024-02-29T11:48:01Z</time>
      </trkpt>
      <trkpt lat="43.58532" lon="5.85907">
        <ele>475.5</ele>
        <time>2024-02-29T11:48:07.999Z</time>
      </trkpt>
      <trkpt lat="43.58528" lon="5.8591">
        <ele>475</ele>
        <time>2024-02-29T11:48:15Z</time>
      </trkpt>
      <trkpt lat="43.5852" lon="5.85912">
        <ele>473.8</ele>
        <time>2024-02-29T11:48:20.685Z</time>
      </trkpt>
      <trkpt lat="43.58516" lon="5.85913">
        <ele>473.3</ele>
        <time>2024-02-29T11:48:23.842Z</time>
      </trkpt>
      <trkpt lat="43.58511" lon="5.85913">
        <ele>472.7</ele>
        <time>2024-02-29T11:48:27Z</time>
      </trkpt>
      <trkpt lat="43.58504" lon="5.85913">
        <ele>472</ele>
        <time>2024-02-29T11:48:32.123Z</time>
      </trkpt>
      <trkpt lat="43.58498" lon="5.85909">
        <ele>472.1</ele>
        <time>2024-02-29T11:48:37Z</time>
      </trkpt>
      <trkpt lat="43.58492" lon="5.85911">
        <ele>471.9</ele>
        <time>2024-02-29T11:48:42.499Z</time>
      </trkpt>
      <trkpt lat="43.58486" lon="5.85913">
        <ele>471.8</ele>
        <time>2024-02-29T11:48:48Z</time>
      </trkpt>
      <trkpt lat="43.58482" lon="5.85916">
        <ele>471.7</ele>
        <time>2024-02-29T11:48:50.889Z</time>
      </trkpt>
      <trkpt lat="43.58483" lon="5.85923">
        <ele>471.2</ele>
        <time>2024-02-29T11:48:53.944Z</time>
      </trkpt>
      <trkpt lat="43.58484" lon="5.85929">
        <ele>470.8</ele>
        <time>2024-02-29T11:48:57Z</time>
      </trkpt>
      <trkpt lat="43.58485" lon="5.85937">
        <ele>470.1</ele>
        <time>2024-02-29T11:49:01.997Z</time>
      </trkpt>
      <trkpt lat="43.58485" lon="5.85944">
        <ele>469.7</ele>
        <time>2024-02-29T11:49:05.998Z</time>
      </trkpt>
      <trkpt lat="43.58485" lon="5.8595">
        <ele>469.3</ele>
        <time>2024-02-29T11:49:10Z</time>
      </trkpt>
      <trkpt lat="43.5848" lon="5.85955">
        <ele>469.5</ele>
        <time>2024-02-29T11:49:24Z</time>
      </trkpt>
      <trkpt lat="43.58475" lon="5.85957">
        <ele>469.9</ele>
        <time>2024-02-29T11:49:30.500Z</time>
      </trkpt>
      <trkpt lat="43.5847" lon="5.85958">
        <ele>470.1</ele>
        <time>2024-02-29T11:49:37Z</time>
      </trkpt>
      <trkpt lat="43.58466" lon="5.8596">
        <ele>470.3</ele>
        <time>2024-02-29T11:49:40.749Z</time>
      </trkpt>
      <trkpt lat="43.58461" lon="5.85962">
        <ele>470.3</ele>
        <time>2024-02-29T11:49:44.499Z</time>
      </trkpt>
      <trkpt lat="43.58457" lon="5.85963">
        <ele>470.4</ele>
        <time>2024-02-29T11:49:48.249Z</time>
      </trkpt>
      <trkpt lat="43.58452" lon="5.85965">
        <ele>470.4</ele>
        <time>2024-02-29T11:49:52Z</time>
      </trkpt>
      <trkpt lat="43.58446" lon="5.85966">
        <ele>470.6</ele>
        <time>2024-02-29T11:49:55.000Z</time>
      </trkpt>
      <trkpt lat="43.58441" lon="5.85966">
        <ele>470.7</ele>
        <time>2024-02-29T11:49:58.000Z</time>
      </trkpt>
      <trkpt lat="43.58435" lon="5.85967">
        <ele>470.7</ele>
        <time>2024-02-29T11:50:01.000Z</time>
      </trkpt>
      <trkpt lat="43.58429" lon="5.85967">
        <ele>470.7</ele>
        <time>2024-02-29T11:50:04Z</time>
      </trkpt>
      <trkpt lat="43.58424" lon="5.85968">
        <ele>470.6</ele>
        <time>2024-02-29T11:50:09.000Z</time>
      </trkpt>
      <trkpt lat="43.58418" lon="5.85968">
        <ele>470.6</ele>
        <time>2024-02-29T11:50:14Z</time>
      </trkpt>
      <trkpt lat="43.58412" lon="5.85971">
        <ele>470.4</ele>
        <time>2024-02-29T11:50:20.499Z</time>
      </trkpt>
      <trkpt lat="43.58405" lon="5.85974">
        <ele>470.3</ele>
        <time>2024-02-29T11:50:27Z</time>
      </trkpt>
      <trkpt lat="43.58397" lon="5.85976">
        <ele>470.4</ele>
        <time>2024-02-29T11:50:32.500Z</time>
      </trkpt>
      <trkpt lat="43.58389" lon="5.85978">
        <ele>470.6</ele>
        <time>2024-02-29T11:50:38Z</time>
      </trkpt>
      <trkpt lat="43.58383" lon="5.85981">
        <ele>470.8</ele>
        <time>2024-02-29T11:50:42.999Z</time>
      </trkpt>
      <trkpt lat="43.58376" lon="5.85984">
        <ele>470.9</ele>
        <time>2024-02-29T11:50:48Z</time>
      </trkpt>
      <trkpt lat="43.58371" lon="5.85988">
        <ele>470.8</ele>
        <time>2024-02-29T11:50:52.999Z</time>
      </trkpt>
      <trkpt lat="43.58366" lon="5.85991">
        <ele>470.7</ele>
        <time>2024-02-29T11:50:58Z</time>
      </trkpt>
      <trkpt lat="43.58361" lon="5.85993">
        <ele>470.8</ele>
        <time>2024-02-29T11:51:03.499Z</time>
      </trkpt>
      <trkpt lat="43.58356" lon="5.85995">
        <ele>470.9</ele>
        <time>2024-02-29T11:51:09Z</time>
      </trkpt>
      <trkpt lat="43.5835" lon="5.85999">
        <ele>470.9</ele>
        <time>2024-02-29T11:51:15.499Z</time>
      </trkpt>
      <trkpt lat="43.58344" lon="5.86003">
        <ele>471.1</ele>
        <time>2024-02-29T11:51:22Z</time>
      </trkpt>
      <trkpt lat="43.58338" lon="5.86007">
        <ele>471.2</ele>
        <time>2024-02-29T11:51:42Z</time>
      </trkpt>
      <trkpt lat="43.5833" lon="5.86013">
        <ele>471.4</ele>
        <time>2024-02-29T11:51:48.999Z</time>
      </trkpt>
      <trkpt lat="43.58322" lon="5.86018">
        <ele>471.7</ele>
        <time>2024-02-29T11:51:56Z</time>
      </trkpt>
      <trkpt lat="43.58316" lon="5.86023">
        <ele>471.7</ele>
        <time>2024-02-29T11:52:00.499Z</time>
      </trkpt>
      <trkpt lat="43.5831" lon="5.86027">
        <ele>471.8</ele>
        <time>2024-02-29T11:52:05Z</time>
      </trkpt>
      <trkpt lat="43.58306" lon="5.8603">
        <ele>471.9</ele>
        <time>2024-02-29T11:52:09.499Z</time>
      </trkpt>
      <trkpt lat="43.58301" lon="5.86032">
        <ele>472.3</ele>
        <time>2024-02-29T11:52:14Z</time>
      </trkpt>
      <trkpt lat="43.58296" lon="5.86037">
        <ele>472.5</ele>
        <time>2024-02-29T11:52:17.999Z</time>
      </trkpt>
      <trkpt lat="43.58291" lon="5.86042">
        <ele>472.5</ele>
        <time>2024-02-29T11:52:22Z</time>
      </trkpt>
      <trkpt lat="43.58286" lon="5.86047">
        <ele>472.5</ele>
        <time>2024-02-29T11:52:26.999Z</time>
      </trkpt>
      <trkpt lat="43.5828" lon="5.86052">
        <ele>472.3</ele>
        <time>2024-02-29T11:52:32Z</time>
      </trkpt>
      <trkpt lat="43.58274" lon="5.86056">
        <ele>472.4</ele>
        <time>2024-02-29T11:52:37.499Z</time>
      </trkpt>
      <trkpt lat="43.58268" lon="5.86059">
        <ele>472.9</ele>
        <time>2024-02-29T11:52:43Z</time>
      </trkpt>
      <trkpt lat="43.58264" lon="5.86064">
        <ele>473.1</ele>
        <time>2024-02-29T11:52:47.999Z</time>
      </trkpt>
      <trkpt lat="43.58259" lon="5.86069">
        <ele>473.2</ele>
        <time>2024-02-29T11:52:53Z</time>
      </trkpt>
      <trkpt lat="43.58253" lon="5.86075">
        <ele>473.4</ele>
        <time>2024-02-29T11:52:58.999Z</time>
      </trkpt>
      <trkpt lat="43.58246" lon="5.86081">
        <ele>473.5</ele>
        <time>2024-02-29T11:53:05Z</time>
      </trkpt>
      <trkpt lat="43.58241" lon="5.86085">
        <ele>473.6</ele>
        <time>2024-02-29T11:53:09.499Z</time>
      </trkpt>
      <trkpt lat="43.58236" lon="5.86088">
        <ele>473.8</ele>
        <time>2024-02-29T11:53:14Z</time>
      </trkpt>
      <trkpt lat="43.58232" lon="5.8609">
        <ele>474</ele>
        <time>2024-02-29T11:53:18.499Z</time>
      </trkpt>
      <trkpt lat="43.58227" lon="5.86092">
        <ele>474.3</ele>
        <time>2024-02-29T11:53:23Z</time>
      </trkpt>
      <trkpt lat="43.58221" lon="5.86095">
        <ele>474.8</ele>
        <time>2024-02-29T11:53:28.499Z</time>
      </trkpt>
      <trkpt lat="43.58214" lon="5.86097">
        <ele>475.3</ele>
        <time>2024-02-29T11:53:34Z</time>
      </trkpt>
      <trkpt lat="43.58209" lon="5.861">
        <ele>475.5</ele>
        <time>2024-02-29T11:53:38.219Z</time>
      </trkpt>
      <trkpt lat="43.58204" lon="5.86103">
        <ele>475.8</ele>
        <time>2024-02-29T11:53:42.439Z</time>
      </trkpt>
      <trkpt lat="43.58204" lon="5.86104">
        <ele>475.7</ele>
        <time>2024-02-29T11:53:43Z</time>
      </trkpt>
      <trkpt lat="43.58199" lon="5.86109">
        <ele>475.8</ele>
        <time>2024-02-29T11:53:47.499Z</time>
      </trkpt>
      <trkpt lat="43.58194" lon="5.86113">
        <ele>476</ele>
        <time>2024-02-29T11:53:52Z</time>
      </trkpt>
      <trkpt lat="43.5819" lon="5.86117">
        <ele>476.3</ele>
        <time>2024-02-29T11:53:57.499Z</time>
      </trkpt>
      <trkpt lat="43.58186" lon="5.86121">
        <ele>476.6</ele>
        <time>2024-02-29T11:54:03Z</time>
      </trkpt>
      <trkpt lat="43.58183" lon="5.86126">
        <ele>476.8</ele>
        <time>2024-02-29T11:54:07.999Z</time>
      </trkpt>
      <trkpt lat="43.58179" lon="5.8613">
        <ele>477</ele>
        <time>2024-02-29T11:54:13Z</time>
      </trkpt>
      <trkpt lat="43.58175" lon="5.86136">
        <ele>477.2</ele>
        <time>2024-02-29T11:54:18.999Z</time>
      </trkpt>
      <trkpt lat="43.58171" lon="5.86142">
        <ele>477.4</ele>
        <time>2024-02-29T11:54:25Z</time>
      </trkpt>
      <trkpt lat="43.58168" lon="5.86148">
        <ele>477.5</ele>
        <time>2024-02-29T11:54:29.999Z</time>
      </trkpt>
      <trkpt lat="43.58165" lon="5.86153">
        <ele>477.7</ele>
        <time>2024-02-29T11:54:35Z</time>
      </trkpt>
      <trkpt lat="43.58161" lon="5.86156">
        <ele>478.1</ele>
        <time>2024-02-29T11:54:41.499Z</time>
      </trkpt>
      <trkpt lat="43.58156" lon="5.86159">
        <ele>478.5</ele>
        <time>2024-02-29T11:54:48Z</time>
      </trkpt>
      <trkpt lat="43.58151" lon="5.86163">
        <ele>479</ele>
        <time>2024-02-29T11:54:53.999Z</time>
      </trkpt>
      <trkpt lat="43.58145" lon="5.86167">
        <ele>479.3</ele>
        <time>2024-02-29T11:55:00Z</time>
      </trkpt>
      <trkpt lat="43.58141" lon="5.86172">
        <ele>479.5</ele>
        <time>2024-02-29T11:55:08.499Z</time>
      </trkpt>
      <trkpt lat="43.58136" lon="5.86176">
        <ele>479.5</ele>
        <time>2024-02-29T11:55:17Z</time>
      </trkpt>
      <trkpt lat="43.5813" lon="5.86181">
        <ele>479.3</ele>
        <time>2024-02-29T11:55:22.999Z</time>
      </trkpt>
      <trkpt lat="43.58124" lon="5.86186">
        <ele>478.9</ele>
        <time>2024-02-29T11:55:29Z</time>
      </trkpt>
      <trkpt lat="43.58118" lon="5.86187">
        <ele>478.9</ele>
        <time>2024-02-29T11:55:37.109Z</time>
      </trkpt>
      <trkpt lat="43.58119" lon="5.86195">
        <ele>477.9</ele>
        <time>2024-02-29T11:55:45Z</time>
      </trkpt>
      <trkpt lat="43.58121" lon="5.86202">
        <ele>477.2</ele>
        <time>2024-02-29T11:55:51.000Z</time>
      </trkpt>
      <trkpt lat="43.58123" lon="5.86209">
        <ele>476.4</ele>
        <time>2024-02-29T11:55:57Z</time>
      </trkpt>
      <trkpt lat="43.58123" lon="5.86217">
        <ele>475.6</ele>
        <time>2024-02-29T11:56:01.499Z</time>
      </trkpt>
      <trkpt lat="43.58122" lon="5.86224">
        <ele>474.9</ele>
        <time>2024-02-29T11:56:06Z</time>
      </trkpt>
      <trkpt lat="43.58123" lon="5.86236">
        <ele>474</ele>
        <time>2024-02-29T11:56:14Z</time>
      </trkpt>
      <trkpt lat="43.58124" lon="5.86243">
        <ele>473.5</ele>
        <time>2024-02-29T11:56:18.000Z</time>
      </trkpt>
      <trkpt lat="43.58124" lon="5.86249">
        <ele>473.1</ele>
        <time>2024-02-29T11:56:22Z</time>
      </trkpt>
      <trkpt lat="43.58124" lon="5.86259">
        <ele>472.8</ele>
        <time>2024-02-29T11:56:51Z</time>
      </trkpt>
      <trkpt lat="43.58119" lon="5.86262">
        <ele>472.9</ele>
        <time>2024-02-29T11:57:24Z</time>
      </trkpt>
      <trkpt lat="43.58117" lon="5.86266">
        <ele>472.9</ele>
        <time>2024-02-29T11:58:09Z</time>
      </trkpt>
      <trkpt lat="43.58112" lon="5.86267">
        <ele>473</ele>
        <time>2024-02-29T11:58:16.000Z</time>
      </trkpt>
      <trkpt lat="43.58106" lon="5.86267">
        <ele>473.4</ele>
        <time>2024-02-29T11:58:23Z</time>
      </trkpt>
      <trkpt lat="43.58102" lon="5.86274">
        <ele>473.7</ele>
        <time>2024-02-29T11:58:28.999Z</time>
      </trkpt>
      <trkpt lat="43.58097" lon="5.8628">
        <ele>474</ele>
        <time>2024-02-29T11:58:35Z</time>
      </trkpt>
      <trkpt lat="43.58095" lon="5.86287">
        <ele>474</ele>
        <time>2024-02-29T11:58:40.999Z</time>
      </trkpt>
      <trkpt lat="43.58093" lon="5.86294">
        <ele>473.9</ele>
        <time>2024-02-29T11:58:47Z</time>
      </trkpt>
      <trkpt lat="43.5809" lon="5.86302">
        <ele>473.9</ele>
        <time>2024-02-29T11:58:53.499Z</time>
      </trkpt>
      <trkpt lat="43.58086" lon="5.86309">
        <ele>473.9</ele>
        <time>2024-02-29T11:59:00Z</time>
      </trkpt>
      <trkpt lat="43.58081" lon="5.86316">
        <ele>474.4</ele>
        <time>2024-02-29T11:59:04.999Z</time>
      </trkpt>
      <trkpt lat="43.58076" lon="5.86323">
        <ele>475.1</ele>
        <time>2024-02-29T11:59:10Z</time>
      </trkpt>
      <trkpt lat="43.58073" lon="5.86328">
        <ele>475.4</ele>
        <time>2024-02-29T11:59:16.999Z</time>
      </trkpt>
      <trkpt lat="43.58069" lon="5.86333">
        <ele>475.6</ele>
        <time>2024-02-29T11:59:24Z</time>
      </trkpt>
      <trkpt lat="43.58065" lon="5.86338">
        <ele>475.9</ele>
        <time>2024-02-29T11:59:28.999Z</time>
      </trkpt>
      <trkpt lat="43.5806" lon="5.86343">
        <ele>476.2</ele>
        <time>2024-02-29T11:59:34Z</time>
      </trkpt>
      <trkpt lat="43.58056" lon="5.86349">
        <ele>476.4</ele>
        <time>2024-02-29T11:59:38.999Z</time>
      </trkpt>
      <trkpt lat="43.58052" lon="5.86355">
        <ele>477</ele>
        <time>2024-02-29T11:59:44Z</time>
      </trkpt>
      <trkpt lat="43.58049" lon="5.86361">
        <ele>477.4</ele>
        <time>2024-02-29T11:59:48.499Z</time>
      </trkpt>
      <trkpt lat="43.58046" lon="5.86366">
        <ele>477.8</ele>
        <time>2024-02-29T11:59:53Z</time>
      </trkpt>
      <trkpt lat="43.58043" lon="5.86371">
        <ele>478.2</ele>
        <time>2024-02-29T11:59:57.499Z</time>
      </trkpt>
      <trkpt lat="43.58039" lon="5.86375">
        <ele>478.5</ele>
        <time>2024-02-29T12:00:02Z</time>
      </trkpt>
      <trkpt lat="43.58037" lon="5.86381">
        <ele>478.4</ele>
        <time>2024-02-29T12:00:05.999Z</time>
      </trkpt>
      <trkpt lat="43.58034" lon="5.86387">
        <ele>478.3</ele>
        <time>2024-02-29T12:00:10Z</time>
      </trkpt>
      <trkpt lat="43.58031" lon="5.86393">
        <ele>478.3</ele>
        <time>2024-02-29T12:00:14.499Z</time>
      </trkpt>
      <trkpt lat="43.58028" lon="5.86399">
        <ele>478.2</ele>
        <time>2024-02-29T12:00:19Z</time>
      </trkpt>
      <trkpt lat="43.58026" lon="5.86406">
        <ele>478.3</ele>
        <time>2024-02-29T12:00:22.999Z</time>
      </trkpt>
      <trkpt lat="43.58024" lon="5.86412">
        <ele>478.4</ele>
        <time>2024-02-29T12:00:27Z</time>
      </trkpt>
      <trkpt lat="43.58022" lon="5.8642">
        <ele>478.6</ele>
        <time>2024-02-29T12:00:31.999Z</time>
      </trkpt>
      <trkpt lat="43.5802" lon="5.86428">
        <ele>479</ele>
        <time>2024-02-29T12:00:37Z</time>
      </trkpt>
      <trkpt lat="43.58021" lon="5.86435">
        <ele>478.8</ele>
        <time>2024-02-29T12:00:41.000Z</time>
      </trkpt>
      <trkpt lat="43.58021" lon="5.86442">
        <ele>478.5</ele>
        <time>2024-02-29T12:00:45Z</time>
      </trkpt>
      <trkpt lat="43.58019" lon="5.86448">
        <ele>478.8</ele>
        <time>2024-02-29T12:00:48.999Z</time>
      </trkpt>
      <trkpt lat="43.58016" lon="5.86454">
        <ele>479.1</ele>
        <time>2024-02-29T12:00:53Z</time>
      </trkpt>
      <trkpt lat="43.58013" lon="5.8646">
        <ele>479.4</ele>
        <time>2024-02-29T12:00:57.499Z</time>
      </trkpt>
      <trkpt lat="43.5801" lon="5.86465">
        <ele>479.6</ele>
        <time>2024-02-29T12:01:02Z</time>
      </trkpt>
      <trkpt lat="43.58007" lon="5.86472">
        <ele>479.8</ele>
        <time>2024-02-29T12:01:05.999Z</time>
      </trkpt>
      <trkpt lat="43.58004" lon="5.86479">
        <ele>479.9</ele>
        <time>2024-02-29T12:01:10Z</time>
      </trkpt>
      <trkpt lat="43.58003" lon="5.86486">
        <ele>479.7</ele>
        <time>2024-02-29T12:01:13.999Z</time>
      </trkpt>
      <trkpt lat="43.58002" lon="5.86492">
        <ele>479.4</ele>
        <time>2024-02-29T12:01:18Z</time>
      </trkpt>
      <trkpt lat="43.58001" lon="5.86499">
        <ele>479</ele>
        <time>2024-02-29T12:01:21.999Z</time>
      </trkpt>
      <trkpt lat="43.58" lon="5.86506">
        <ele>479</ele>
        <time>2024-02-29T12:01:26Z</time>
      </trkpt>
      <trkpt lat="43.57999" lon="5.86513">
        <ele>479.3</ele>
        <time>2024-02-29T12:01:29.999Z</time>
      </trkpt>
      <trkpt lat="43.57998" lon="5.8652">
        <ele>479.6</ele>
        <time>2024-02-29T12:01:34Z</time>
      </trkpt>
      <trkpt lat="43.57997" lon="5.86528">
        <ele>480</ele>
        <time>2024-02-29T12:01:38.499Z</time>
      </trkpt>
      <trkpt lat="43.57995" lon="5.86535">
        <ele>480.6</ele>
        <time>2024-02-29T12:01:43Z</time>
      </trkpt>
      <trkpt lat="43.57992" lon="5.86546">
        <ele>481.4</ele>
        <time>2024-02-29T12:01:52Z</time>
      </trkpt>
      <trkpt lat="43.57991" lon="5.86553">
        <ele>481.7</ele>
        <time>2024-02-29T12:01:56.999Z</time>
      </trkpt>
      <trkpt lat="43.57989" lon="5.8656">
        <ele>481.9</ele>
        <time>2024-02-29T12:02:02Z</time>
      </trkpt>
      <trkpt lat="43.57989" lon="5.86568">
        <ele>481.8</ele>
        <time>2024-02-29T12:02:06.500Z</time>
      </trkpt>
      <trkpt lat="43.57989" lon="5.86575">
        <ele>481.7</ele>
        <time>2024-02-29T12:02:11Z</time>
      </trkpt>
      <trkpt lat="43.57988" lon="5.86582">
        <ele>481.8</ele>
        <time>2024-02-29T12:02:14.999Z</time>
      </trkpt>
      <trkpt lat="43.57986" lon="5.86588">
        <ele>482</ele>
        <time>2024-02-29T12:02:19Z</time>
      </trkpt>
      <trkpt lat="43.57986" lon="5.86595">
        <ele>482.1</ele>
        <time>2024-02-29T12:02:22.999Z</time>
      </trkpt>
      <trkpt lat="43.57985" lon="5.86601">
        <ele>482.1</ele>
        <time>2024-02-29T12:02:27Z</time>
      </trkpt>
      <trkpt lat="43.57983" lon="5.86607">
        <ele>482.3</ele>
        <time>2024-02-29T12:02:30.999Z</time>
      </trkpt>
      <trkpt lat="43.57981" lon="5.86613">
        <ele>482.4</ele>
        <time>2024-02-29T12:02:35Z</time>
      </trkpt>
      <trkpt lat="43.5798" lon="5.8662">
        <ele>482.6</ele>
        <time>2024-02-29T12:02:39.499Z</time>
      </trkpt>
      <trkpt lat="43.57978" lon="5.86627">
        <ele>482.8</ele>
        <time>2024-02-29T12:02:44Z</time>
      </trkpt>
      <trkpt lat="43.57978" lon="5.86639">
        <ele>483</ele>
        <time>2024-02-29T12:02:53Z</time>
      </trkpt>
      <trkpt lat="43.57977" lon="5.86645">
        <ele>483.1</ele>
        <time>2024-02-29T12:02:57.499Z</time>
      </trkpt>
      <trkpt lat="43.57975" lon="5.86651">
        <ele>483.1</ele>
        <time>2024-02-29T12:03:02Z</time>
      </trkpt>
      <trkpt lat="43.57974" lon="5.86658">
        <ele>483.1</ele>
        <time>2024-02-29T12:03:06.999Z</time>
      </trkpt>
      <trkpt lat="43.57973" lon="5.86664">
        <ele>483.1</ele>
        <time>2024-02-29T12:03:12Z</time>
      </trkpt>
      <trkpt lat="43.57971" lon="5.86672">
        <ele>483.7</ele>
        <time>2024-02-29T12:03:18.499Z</time>
      </trkpt>
      <trkpt lat="43.57968" lon="5.8668">
        <ele>484.7</ele>
        <time>2024-02-29T12:03:25Z</time>
      </trkpt>
      <trkpt lat="43.57967" lon="5.86687">
        <ele>485.2</ele>
        <time>2024-02-29T12:03:29.999Z</time>
      </trkpt>
      <trkpt lat="43.57966" lon="5.86694">
        <ele>485.7</ele>
        <time>2024-02-29T12:03:35Z</time>
      </trkpt>
      <trkpt lat="43.57964" lon="5.867">
        <ele>485.9</ele>
        <time>2024-02-29T12:03:39.999Z</time>
      </trkpt>
      <trkpt lat="43.57962" lon="5.86706">
        <ele>486.1</ele>
        <time>2024-02-29T12:03:45Z</time>
      </trkpt>
      <trkpt lat="43.57961" lon="5.86713">
        <ele>486.2</ele>
        <time>2024-02-29T12:03:49.999Z</time>
      </trkpt>
      <trkpt lat="43.5796" lon="5.8672">
        <ele>486.3</ele>
        <time>2024-02-29T12:03:55Z</time>
      </trkpt>
      <trkpt lat="43.57958" lon="5.86726">
        <ele>486.6</ele>
        <time>2024-02-29T12:03:59.999Z</time>
      </trkpt>
      <trkpt lat="43.57956" lon="5.86732">
        <ele>486.9</ele>
        <time>2024-02-29T12:04:05Z</time>
      </trkpt>
      <trkpt lat="43.57954" lon="5.86739">
        <ele>487.2</ele>
        <time>2024-02-29T12:04:09.999Z</time>
      </trkpt>
      <trkpt lat="43.57951" lon="5.86746">
        <ele>487.5</ele>
        <time>2024-02-29T12:04:15Z</time>
      </trkpt>
      <trkpt lat="43.57949" lon="5.86752">
        <ele>487.7</ele>
        <time>2024-02-29T12:04:19.999Z</time>
      </trkpt>
      <trkpt lat="43.57947" lon="5.86758">
        <ele>488.1</ele>
        <time>2024-02-29T12:04:25Z</time>
      </trkpt>
      <trkpt lat="43.57945" lon="5.86765">
        <ele>488.5</ele>
        <time>2024-02-29T12:04:29.999Z</time>
      </trkpt>
      <trkpt lat="43.57942" lon="5.86772">
        <ele>489.3</ele>
        <time>2024-02-29T12:04:35Z</time>
      </trkpt>
      <trkpt lat="43.5794" lon="5.86778">
        <ele>489.8</ele>
        <time>2024-02-29T12:04:39.999Z</time>
      </trkpt>
      <trkpt lat="43.57938" lon="5.86784">
        <ele>490.3</ele>
        <time>2024-02-29T12:04:45Z</time>
      </trkpt>
      <trkpt lat="43.57936" lon="5.8679">
        <ele>490.9</ele>
        <time>2024-02-29T12:04:49.499Z</time>
      </trkpt>
      <trkpt lat="43.57933" lon="5.86796">
        <ele>491.4</ele>
        <time>2024-02-29T12:04:54Z</time>
      </trkpt>
      <trkpt lat="43.57932" lon="5.86802">
        <ele>491.8</ele>
        <time>2024-02-29T12:04:58.499Z</time>
      </trkpt>
      <trkpt lat="43.5793" lon="5.86808">
        <ele>492.2</ele>
        <time>2024-02-29T12:05:03Z</time>
      </trkpt>
      <trkpt lat="43.57928" lon="5.86814">
        <ele>492.6</ele>
        <time>2024-02-29T12:05:07.999Z</time>
      </trkpt>
      <trkpt lat="43.57926" lon="5.8682">
        <ele>493</ele>
        <time>2024-02-29T12:05:13Z</time>
      </trkpt>
      <trkpt lat="43.57925" lon="5.86828">
        <ele>493.3</ele>
        <time>2024-02-29T12:05:18.499Z</time>
      </trkpt>
      <trkpt lat="43.57923" lon="5.86835">
        <ele>493.6</ele>
        <time>2024-02-29T12:05:24Z</time>
      </trkpt>
      <trkpt lat="43.57922" lon="5.86841">
        <ele>493.9</ele>
        <time>2024-02-29T12:05:28.999Z</time>
      </trkpt>
      <trkpt lat="43.5792" lon="5.86847">
        <ele>494.3</ele>
        <time>2024-02-29T12:05:34Z</time>
      </trkpt>
      <trkpt lat="43.57919" lon="5.86854">
        <ele>494.6</ele>
        <time>2024-02-29T12:05:39.499Z</time>
      </trkpt>
      <trkpt lat="43.57917" lon="5.8686">
        <ele>494.9</ele>
        <time>2024-02-29T12:05:45Z</time>
      </trkpt>
      <trkpt lat="43.57914" lon="5.86867">
        <ele>495.9</ele>
        <time>2024-02-29T12:05:50.499Z</time>
      </trkpt>
      <trkpt lat="43.57911" lon="5.86874">
        <ele>496.8</ele>
        <time>2024-02-29T12:05:56Z</time>
      </trkpt>
      <trkpt lat="43.57907" lon="5.86879">
        <ele>497.5</ele>
        <time>2024-02-29T12:06:01.499Z</time>
      </trkpt>
      <trkpt lat="43.57903" lon="5.86883">
        <ele>498</ele>
        <time>2024-02-29T12:06:07Z</time>
      </trkpt>
      <trkpt lat="43.57899" lon="5.86886">
        <ele>498.4</ele>
        <time>2024-02-29T12:06:13.999Z</time>
      </trkpt>
      <trkpt lat="43.57894" lon="5.86888">
        <ele>498.7</ele>
        <time>2024-02-29T12:06:21Z</time>
      </trkpt>
      <trkpt lat="43.5789" lon="5.86893">
        <ele>499.2</ele>
        <time>2024-02-29T12:06:27.499Z</time>
      </trkpt>
      <trkpt lat="43.57886" lon="5.86898">
        <ele>500.1</ele>
        <time>2024-02-29T12:06:34Z</time>
      </trkpt>
      <trkpt lat="43.57881" lon="5.86903">
        <ele>501</ele>
        <time>2024-02-29T12:06:40.499Z</time>
      </trkpt>
      <trkpt lat="43.57876" lon="5.86907">
        <ele>501.7</ele>
        <time>2024-02-29T12:06:47Z</time>
      </trkpt>
      <trkpt lat="43.57872" lon="5.8691">
        <ele>502.2</ele>
        <time>2024-02-29T12:06:52.999Z</time>
      </trkpt>
      <trkpt lat="43.57867" lon="5.86913">
        <ele>502.6</ele>
        <time>2024-02-29T12:06:59Z</time>
      </trkpt>
      <trkpt lat="43.57864" lon="5.86917">
        <ele>502.9</ele>
        <time>2024-02-29T12:07:05.499Z</time>
      </trkpt>
      <trkpt lat="43.5786" lon="5.86921">
        <ele>503.4</ele>
        <time>2024-02-29T12:07:12Z</time>
      </trkpt>
      <trkpt lat="43.57856" lon="5.86925">
        <ele>504.1</ele>
        <time>2024-02-29T12:07:17.999Z</time>
      </trkpt>
      <trkpt lat="43.57852" lon="5.86928">
        <ele>504.7</ele>
        <time>2024-02-29T12:07:24Z</time>
      </trkpt>
      <trkpt lat="43.57844" lon="5.86933">
        <ele>505.7</ele>
        <time>2024-02-29T12:07:38Z</time>
      </trkpt>
      <trkpt lat="43.57839" lon="5.86931">
        <ele>506</ele>
        <time>2024-02-29T12:08:27Z</time>
      </trkpt>
      <trkpt lat="43.57839" lon="5.86923">
        <ele>505.7</ele>
        <time>2024-02-29T12:08:33.000Z</time>
      </trkpt>
      <trkpt lat="43.57839" lon="5.86915">
        <ele>505.4</ele>
        <time>2024-02-29T12:08:39Z</time>
      </trkpt>
      <trkpt lat="43.5784" lon="5.86908">
        <ele>505.2</ele>
        <time>2024-02-29T12:08:44.500Z</time>
      </trkpt>
      <trkpt lat="43.5784" lon="5.86901">
        <ele>505</ele>
        <time>2024-02-29T12:08:50Z</time>
      </trkpt>
      <trkpt lat="43.57843" lon="5.86892">
        <ele>504.7</ele>
        <time>2024-02-29T12:08:57.000Z</time>
      </trkpt>
      <trkpt lat="43.57845" lon="5.86882">
        <ele>504.8</ele>
        <time>2024-02-29T12:09:04Z</time>
      </trkpt>
      <trkpt lat="43.57838" lon="5.86876">
        <ele>505</ele>
        <time>2024-02-29T12:09:10.499Z</time>
      </trkpt>
      <trkpt lat="43.57831" lon="5.8687">
        <ele>505</ele>
        <time>2024-02-29T12:09:17Z</time>
      </trkpt>
      <trkpt lat="43.57825" lon="5.86868">
        <ele>505.1</ele>
        <time>2024-02-29T12:09:22.999Z</time>
      </trkpt>
      <trkpt lat="43.57818" lon="5.86866">
        <ele>505.1</ele>
        <time>2024-02-29T12:09:29Z</time>
      </trkpt>
      <trkpt lat="43.57812" lon="5.86864">
        <ele>505.1</ele>
        <time>2024-02-29T12:09:33.999Z</time>
      </trkpt>
      <trkpt lat="43.57806" lon="5.86861">
        <ele>505</ele>
        <time>2024-02-29T12:09:39Z</time>
      </trkpt>
      <trkpt lat="43.57798" lon="5.86856">
        <ele>504.8</ele>
        <time>2024-02-29T12:09:55Z</time>
      </trkpt>
      <trkpt lat="43.57796" lon="5.86849">
        <ele>504.6</ele>
        <time>2024-02-29T12:10:00.499Z</time>
      </trkpt>
      <trkpt lat="43.57794" lon="5.86842">
        <ele>504.3</ele>
        <time>2024-02-29T12:10:06Z</time>
      </trkpt>
      <trkpt lat="43.57791" lon="5.86837">
        <ele>504.1</ele>
        <time>2024-02-29T12:10:10.499Z</time>
      </trkpt>
      <trkpt lat="43.57787" lon="5.86831">
        <ele>504</ele>
        <time>2024-02-29T12:10:15Z</time>
      </trkpt>
      <trkpt lat="43.57783" lon="5.86827">
        <ele>504</ele>
        <time>2024-02-29T12:10:19.999Z</time>
      </trkpt>
      <trkpt lat="43.57779" lon="5.86823">
        <ele>504</ele>
        <time>2024-02-29T12:10:25Z</time>
      </trkpt>
      <trkpt lat="43.57776" lon="5.86818">
        <ele>504</ele>
        <time>2024-02-29T12:10:29.999Z</time>
      </trkpt>
      <trkpt lat="43.57773" lon="5.86812">
        <ele>504</ele>
        <time>2024-02-29T12:10:35Z</time>
      </trkpt>
      <trkpt lat="43.57769" lon="5.86809">
        <ele>504</ele>
        <time>2024-02-29T12:10:40.499Z</time>
      </trkpt>
      <trkpt lat="43.57765" lon="5.86806">
        <ele>504</ele>
        <time>2024-02-29T12:10:46Z</time>
      </trkpt>
      <trkpt lat="43.57761" lon="5.86803">
        <ele>504</ele>
        <time>2024-02-29T12:10:52.999Z</time>
      </trkpt>
      <trkpt lat="43.57756" lon="5.86799">
        <ele>504.1</ele>
        <time>2024-02-29T12:11:00Z</time>
      </trkpt>
      <trkpt lat="43.57759" lon="5.86793">
        <ele>504.2</ele>
        <time>2024-02-29T12:11:06.500Z</time>
      </trkpt>
      <trkpt lat="43.57762" lon="5.86786">
        <ele>504.1</ele>
        <time>2024-02-29T12:11:13Z</time>
      </trkpt>
      <trkpt lat="43.57764" lon="5.86779">
        <ele>504</ele>
        <time>2024-02-29T12:11:22.000Z</time>
      </trkpt>
      <trkpt lat="43.57766" lon="5.86771">
        <ele>504.1</ele>
        <time>2024-02-29T12:11:31Z</time>
      </trkpt>
      <trkpt lat="43.57769" lon="5.86765">
        <ele>504.1</ele>
        <time>2024-02-29T12:11:36.500Z</time>
      </trkpt>
      <trkpt lat="43.57771" lon="5.86759">
        <ele>504.2</ele>
        <time>2024-02-29T12:11:42Z</time>
      </trkpt>
      <trkpt lat="43.57769" lon="5.86757">
        <ele>504.4</ele>
        <time>2024-02-29T12:12:17Z</time>
      </trkpt>
      <trkpt lat="43.57764" lon="5.8676">
        <ele>504.6</ele>
        <time>2024-02-29T12:12:22.999Z</time>
      </trkpt>
      <trkpt lat="43.57759" lon="5.86763">
        <ele>504.9</ele>
        <time>2024-02-29T12:12:29Z</time>
      </trkpt>
      <trkpt lat="43.57755" lon="5.86765">
        <ele>505.2</ele>
        <time>2024-02-29T12:12:34.500Z</time>
      </trkpt>
      <trkpt lat="43.5775" lon="5.86766">
        <ele>505.4</ele>
        <time>2024-02-29T12:12:40Z</time>
      </trkpt>
      <trkpt lat="43.57743" lon="5.86773">
        <ele>505.4</ele>
        <time>2024-02-29T12:12:51Z</time>
      </trkpt>
      <trkpt lat="43.57736" lon="5.86773">
        <ele>505.7</ele>
        <time>2024-02-29T12:13:15Z</time>
      </trkpt>
      <trkpt lat="43.5773" lon="5.86778">
        <ele>505.7</ele>
        <time>2024-02-29T12:13:20.999Z</time>
      </trkpt>
      <trkpt lat="43.57724" lon="5.86783">
        <ele>505.9</ele>
        <time>2024-02-29T12:13:27Z</time>
      </trkpt>
      <trkpt lat="43.57721" lon="5.86787">
        <ele>506.1</ele>
        <time>2024-02-29T12:13:54Z</time>
      </trkpt>
      <trkpt lat="43.57719" lon="5.86795">
        <ele>506.3</ele>
        <time>2024-02-29T12:13:58.999Z</time>
      </trkpt>
      <trkpt lat="43.57717" lon="5.86802">
        <ele>506.6</ele>
        <time>2024-02-29T12:14:04Z</time>
      </trkpt>
      <trkpt lat="43.57715" lon="5.86808">
        <ele>506.8</ele>
        <time>2024-02-29T12:14:08.499Z</time>
      </trkpt>
      <trkpt lat="43.57712" lon="5.86814">
        <ele>507</ele>
        <time>2024-02-29T12:14:13Z</time>
      </trkpt>
      <trkpt lat="43.57706" lon="5.86818">
        <ele>507.5</ele>
        <time>2024-02-29T12:14:31Z</time>
      </trkpt>
      <trkpt lat="43.57706" lon="5.86821">
        <ele>507.4</ele>
        <time>2024-02-29T12:14:52Z</time>
      </trkpt>
      <trkpt lat="43.57709" lon="5.86827">
        <ele>507.1</ele>
        <time>2024-02-29T12:14:56.500Z</time>
      </trkpt>
      <trkpt lat="43.57711" lon="5.86833">
        <ele>506.8</ele>
        <time>2024-02-29T12:15:01Z</time>
      </trkpt>
      <trkpt lat="43.57716" lon="5.86843">
        <ele>506.2</ele>
        <time>2024-02-29T12:15:09Z</time>
      </trkpt>
      <trkpt lat="43.57719" lon="5.86849">
        <ele>505.7</ele>
        <time>2024-02-29T12:15:13.000Z</time>
      </trkpt>
      <trkpt lat="43.57722" lon="5.86854">
        <ele>505.3</ele>
        <time>2024-02-29T12:15:17Z</time>
      </trkpt>
      <trkpt lat="43.57724" lon="5.86865">
        <ele>505.1</ele>
        <time>2024-02-29T12:15:25Z</time>
      </trkpt>
      <trkpt lat="43.57724" lon="5.86872">
        <ele>505.4</ele>
        <time>2024-02-29T12:15:29.499Z</time>
      </trkpt>
      <trkpt lat="43.57723" lon="5.86879">
        <ele>505.6</ele>
        <time>2024-02-29T12:15:34Z</time>
      </trkpt>
      <trkpt lat="43.57719" lon="5.86888">
        <ele>506.2</ele>
        <time>2024-02-29T12:15:39.999Z</time>
      </trkpt>
      <trkpt lat="43.57715" lon="5.86896">
        <ele>506.5</ele>
        <time>2024-02-29T12:15:46Z</time>
      </trkpt>
      <trkpt lat="43.57713" lon="5.86903">
        <ele>506.5</ele>
        <time>2024-02-29T12:15:50.499Z</time>
      </trkpt>
      <trkpt lat="43.5771" lon="5.86909">
        <ele>506.6</ele>
        <time>2024-02-29T12:15:55Z</time>
      </trkpt>
      <trkpt lat="43.57708" lon="5.86916">
        <ele>506.6</ele>
        <time>2024-02-29T12:15:59.499Z</time>
      </trkpt>
      <trkpt lat="43.57705" lon="5.86922">
        <ele>506.7</ele>
        <time>2024-02-29T12:16:04Z</time>
      </trkpt>
      <trkpt lat="43.57705" lon="5.86929">
        <ele>506.8</ele>
        <time>2024-02-29T12:16:08.500Z</time>
      </trkpt>
      <trkpt lat="43.57705" lon="5.86935">
        <ele>506.9</ele>
        <time>2024-02-29T12:16:13Z</time>
      </trkpt>
      <trkpt lat="43.57702" lon="5.86941">
        <ele>507</ele>
        <time>2024-02-29T12:16:19.499Z</time>
      </trkpt>
      <trkpt lat="43.57699" lon="5.86946">
        <ele>507</ele>
        <time>2024-02-29T12:16:26Z</time>
      </trkpt>
      <trkpt lat="43.57696" lon="5.86951">
        <ele>507.2</ele>
        <time>2024-02-29T12:16:30.499Z</time>
      </trkpt>
      <trkpt lat="43.57693" lon="5.86956">
        <ele>507.5</ele>
        <time>2024-02-29T12:16:35Z</time>
      </trkpt>
      <trkpt lat="43.57689" lon="5.86966">
        <ele>508</ele>
        <time>2024-02-29T12:16:50Z</time>
      </trkpt>
      <trkpt lat="43.57688" lon="5.86974">
        <ele>508.2</ele>
        <time>2024-02-29T12:16:54.499Z</time>
      </trkpt>
      <trkpt lat="43.57687" lon="5.86981">
        <ele>508.3</ele>
        <time>2024-02-29T12:16:59Z</time>
      </trkpt>
      <trkpt lat="43.57683" lon="5.86985">
        <ele>508.4</ele>
        <time>2024-02-29T12:17:03.499Z</time>
      </trkpt>
      <trkpt lat="43.57678" lon="5.86988">
        <ele>508.6</ele>
        <time>2024-02-29T12:17:08Z</time>
      </trkpt>
      <trkpt lat="43.57674" lon="5.86995">
        <ele>508.8</ele>
        <time>2024-02-29T12:17:13.499Z</time>
      </trkpt>
      <trkpt lat="43.57669" lon="5.87001">
        <ele>508.9</ele>
        <time>2024-02-29T12:17:19Z</time>
      </trkpt>
      <trkpt lat="43.57668" lon="5.87009">
        <ele>509</ele>
        <time>2024-02-29T12:17:23.499Z</time>
      </trkpt>
      <trkpt lat="43.57666" lon="5.87017">
        <ele>509</ele>
        <time>2024-02-29T12:17:28Z</time>
      </trkpt>
      <trkpt lat="43.57665" lon="5.87023">
        <ele>509.2</ele>
        <time>2024-02-29T12:17:32.499Z</time>
      </trkpt>
      <trkpt lat="43.57663" lon="5.87029">
        <ele>509.3</ele>
        <time>2024-02-29T12:17:37Z</time>
      </trkpt>
      <trkpt lat="43.5766" lon="5.87035">
        <ele>509.4</ele>
        <time>2024-02-29T12:17:41.499Z</time>
      </trkpt>
      <trkpt lat="43.57657" lon="5.87041">
        <ele>509.5</ele>
        <time>2024-02-29T12:17:46Z</time>
      </trkpt>
      <trkpt lat="43.57654" lon="5.87048">
        <ele>509.6</ele>
        <time>2024-02-29T12:17:50.499Z</time>
      </trkpt>
      <trkpt lat="43.57651" lon="5.87054">
        <ele>509.6</ele>
        <time>2024-02-29T12:17:55Z</time>
      </trkpt>
      <trkpt lat="43.57648" lon="5.87061">
        <ele>509.7</ele>
        <time>2024-02-29T12:17:59.499Z</time>
      </trkpt>
      <trkpt lat="43.57644" lon="5.87067">
        <ele>509.8</ele>
        <time>2024-02-29T12:18:04Z</time>
      </trkpt>
      <trkpt lat="43.57641" lon="5.87073">
        <ele>509.9</ele>
        <time>2024-02-29T12:18:08.499Z</time>
      </trkpt>
      <trkpt lat="43.57637" lon="5.87078">
        <ele>510.1</ele>
        <time>2024-02-29T12:18:13Z</time>
      </trkpt>
      <trkpt lat="43.57634" lon="5.87084">
        <ele>510.4</ele>
        <time>2024-02-29T12:18:17.999Z</time>
      </trkpt>
      <trkpt lat="43.57631" lon="5.8709">
        <ele>510.6</ele>
        <time>2024-02-29T12:18:23Z</time>
      </trkpt>
      <trkpt lat="43.57628" lon="5.87097">
        <ele>510.8</ele>
        <time>2024-02-29T12:18:27.999Z</time>
      </trkpt>
      <trkpt lat="43.57625" lon="5.87104">
        <ele>511</ele>
        <time>2024-02-29T12:18:33Z</time>
      </trkpt>
      <trkpt lat="43.57622" lon="5.8711">
        <ele>511.2</ele>
        <time>2024-02-29T12:18:37.999Z</time>
      </trkpt>
      <trkpt lat="43.57619" lon="5.87115">
        <ele>511.3</ele>
        <time>2024-02-29T12:18:43Z</time>
      </trkpt>
      <trkpt lat="43.57616" lon="5.8712">
        <ele>511.4</ele>
        <time>2024-02-29T12:18:46.999Z</time>
      </trkpt>
      <trkpt lat="43.57612" lon="5.87125">
        <ele>511.5</ele>
        <time>2024-02-29T12:18:51Z</time>
      </trkpt>
      <trkpt lat="43.57605" lon="5.87129">
        <ele>511.7</ele>
        <time>2024-02-29T12:18:55.499Z</time>
      </trkpt>
      <trkpt lat="43.57597" lon="5.87133">
        <ele>512.1</ele>
        <time>2024-02-29T12:19:00Z</time>
      </trkpt>
      <trkpt lat="43.57594" lon="5.87137">
        <ele>512.3</ele>
        <time>2024-02-29T12:19:04.499Z</time>
      </trkpt>
      <trkpt lat="43.5759" lon="5.87141">
        <ele>512.5</ele>
        <time>2024-02-29T12:19:09Z</time>
      </trkpt>
      <trkpt lat="43.57587" lon="5.8715">
        <ele>512.4</ele>
        <time>2024-02-29T12:19:32Z</time>
      </trkpt>
      <trkpt lat="43.57586" lon="5.87156">
        <ele>512.3</ele>
        <time>2024-02-29T12:19:52.999Z</time>
      </trkpt>
      <trkpt lat="43.57584" lon="5.87162">
        <ele>512.1</ele>
        <time>2024-02-29T12:20:14Z</time>
      </trkpt>
      <trkpt lat="43.57581" lon="5.8717">
        <ele>512.3</ele>
        <time>2024-02-29T12:20:26Z</time>
      </trkpt>
      <trkpt lat="43.57574" lon="5.87176">
        <ele>513</ele>
        <time>2024-02-29T12:20:35Z</time>
      </trkpt>
      <trkpt lat="43.57566" lon="5.87174">
        <ele>513.9</ele>
        <time>2024-02-29T12:20:45Z</time>
      </trkpt>
      <trkpt lat="43.57559" lon="5.87174">
        <ele>514.6</ele>
        <time>2024-02-29T12:20:48.731Z</time>
      </trkpt>
      <trkpt lat="43.57558" lon="5.87181">
        <ele>514.8</ele>
        <time>2024-02-29T12:20:51.365Z</time>
      </trkpt>
      <trkpt lat="43.57556" lon="5.87187">
        <ele>515</ele>
        <time>2024-02-29T12:20:54Z</time>
      </trkpt>
      <trkpt lat="43.57557" lon="5.87195">
        <ele>514.8</ele>
        <time>2024-02-29T12:21:03Z</time>
      </trkpt>
      <trkpt lat="43.57554" lon="5.87201">
        <ele>514.9</ele>
        <time>2024-02-29T12:21:06.794Z</time>
      </trkpt>
      <trkpt lat="43.57554" lon="5.87211">
        <ele>514.6</ele>
        <time>2024-02-29T12:21:12Z</time>
      </trkpt>
      <trkpt lat="43.57552" lon="5.87214">
        <ele>514.8</ele>
        <time>2024-02-29T12:21:13.735Z</time>
      </trkpt>
      <trkpt lat="43.5755" lon="5.87221">
        <ele>514.9</ele>
        <time>2024-02-29T12:21:16.867Z</time>
      </trkpt>
      <trkpt lat="43.57547" lon="5.87227">
        <ele>515.2</ele>
        <time>2024-02-29T12:21:20Z</time>
      </trkpt>
      <trkpt lat="43.57543" lon="5.87238">
        <ele>515.8</ele>
        <time>2024-02-29T12:21:29Z</time>
      </trkpt>
      <trkpt lat="43.5754" lon="5.87243">
        <ele>516.3</ele>
        <time>2024-02-29T12:21:33.499Z</time>
      </trkpt>
      <trkpt lat="43.57536" lon="5.87248">
        <ele>516.8</ele>
        <time>2024-02-29T12:21:38Z</time>
      </trkpt>
      <trkpt lat="43.57529" lon="5.87254">
        <ele>518</ele>
        <time>2024-02-29T12:21:49Z</time>
      </trkpt>
      <trkpt lat="43.57521" lon="5.87258">
        <ele>519.2</ele>
        <time>2024-02-29T12:22:01Z</time>
      </trkpt>
      <trkpt lat="43.57517" lon="5.8726">
        <ele>519.8</ele>
        <time>2024-02-29T12:22:06.499Z</time>
      </trkpt>
      <trkpt lat="43.57512" lon="5.87262">
        <ele>520.5</ele>
        <time>2024-02-29T12:22:12Z</time>
      </trkpt>
      <trkpt lat="43.57506" lon="5.87262">
        <ele>521.2</ele>
        <time>2024-02-29T12:22:17.000Z</time>
      </trkpt>
      <trkpt lat="43.575" lon="5.87261">
        <ele>522</ele>
        <time>2024-02-29T12:22:22Z</time>
      </trkpt>
      <trkpt lat="43.57496" lon="5.87258">
        <ele>522.5</ele>
        <time>2024-02-29T12:22:26.999Z</time>
      </trkpt>
      <trkpt lat="43.57492" lon="5.87255">
        <ele>522.9</ele>
        <time>2024-02-29T12:22:32Z</time>
      </trkpt>
      <trkpt lat="43.57487" lon="5.87254">
        <ele>523.5</ele>
        <time>2024-02-29T12:22:37.500Z</time>
      </trkpt>
      <trkpt lat="43.57482" lon="5.87253">
        <ele>524</ele>
        <time>2024-02-29T12:22:43Z</time>
      </trkpt>
      <trkpt lat="43.57474" lon="5.87255">
        <ele>525</ele>
        <time>2024-02-29T12:22:57Z</time>
      </trkpt>
      <trkpt lat="43.57467" lon="5.87254">
        <ele>525.5</ele>
        <time>2024-02-29T12:23:39Z</time>
      </trkpt>
      <trkpt lat="43.57462" lon="5.87253">
        <ele>525.9</ele>
        <time>2024-02-29T12:23:44.500Z</time>
      </trkpt>
      <trkpt lat="43.57457" lon="5.87251">
        <ele>526.2</ele>
        <time>2024-02-29T12:23:50Z</time>
      </trkpt>
      <trkpt lat="43.57452" lon="5.87249">
        <ele>526.5</ele>
        <time>2024-02-29T12:23:55.499Z</time>
      </trkpt>
      <trkpt lat="43.57446" lon="5.87247">
        <ele>526.9</ele>
        <time>2024-02-29T12:24:01Z</time>
      </trkpt>
      <trkpt lat="43.57438" lon="5.87244">
        <ele>527.2</ele>
        <time>2024-02-29T12:24:39Z</time>
      </trkpt>
      <trkpt lat="43.57433" lon="5.87246">
        <ele>527.3</ele>
        <time>2024-02-29T12:24:46.499Z</time>
      </trkpt>
      <trkpt lat="43.57428" lon="5.87247">
        <ele>527.5</ele>
        <time>2024-02-29T12:24:54Z</time>
      </trkpt>
      <trkpt lat="43.57423" lon="5.87248">
        <ele>527.7</ele>
        <time>2024-02-29T12:24:58.000Z</time>
      </trkpt>
      <trkpt lat="43.57418" lon="5.87249">
        <ele>527.9</ele>
        <time>2024-02-29T12:25:02Z</time>
      </trkpt>
      <trkpt lat="43.57414" lon="5.8725">
        <ele>527.7</ele>
        <time>2024-02-29T12:25:06.500Z</time>
      </trkpt>
      <trkpt lat="43.57409" lon="5.87251">
        <ele>527.2</ele>
        <time>2024-02-29T12:25:11Z</time>
      </trkpt>
      <trkpt lat="43.57404" lon="5.87253">
        <ele>526.7</ele>
        <time>2024-02-29T12:25:15.500Z</time>
      </trkpt>
      <trkpt lat="43.57399" lon="5.87254">
        <ele>526.2</ele>
        <time>2024-02-29T12:25:20Z</time>
      </trkpt>
      <trkpt lat="43.57395" lon="5.87256">
        <ele>525.8</ele>
        <time>2024-02-29T12:25:25.499Z</time>
      </trkpt>
      <trkpt lat="43.5739" lon="5.87258">
        <ele>525.4</ele>
        <time>2024-02-29T12:25:31Z</time>
      </trkpt>
      <trkpt lat="43.57384" lon="5.87257">
        <ele>524.5</ele>
        <time>2024-02-29T12:25:49Z</time>
      </trkpt>
      <trkpt lat="43.5738" lon="5.87258">
        <ele>523.9</ele>
        <time>2024-02-29T12:25:57.500Z</time>
      </trkpt>
      <trkpt lat="43.57375" lon="5.87259">
        <ele>523.3</ele>
        <time>2024-02-29T12:26:06Z</time>
      </trkpt>
      <trkpt lat="43.57367" lon="5.8726">
        <ele>522.2</ele>
        <time>2024-02-29T12:26:27Z</time>
      </trkpt>
      <trkpt lat="43.57362" lon="5.87261">
        <ele>521.5</ele>
        <time>2024-02-29T12:26:35.000Z</time>
      </trkpt>
      <trkpt lat="43.57357" lon="5.87261">
        <ele>520.7</ele>
        <time>2024-02-29T12:26:43Z</time>
      </trkpt>
      <trkpt lat="43.57351" lon="5.8726">
        <ele>519.5</ele>
        <time>2024-02-29T12:26:48.500Z</time>
      </trkpt>
      <trkpt lat="43.57345" lon="5.87259">
        <ele>518.4</ele>
        <time>2024-02-29T12:26:54Z</time>
      </trkpt>
      <trkpt lat="43.5734" lon="5.8726">
        <ele>517.5</ele>
        <time>2024-02-29T12:26:59.000Z</time>
      </trkpt>
      <trkpt lat="43.57334" lon="5.8726">
        <ele>516.5</ele>
        <time>2024-02-29T12:27:04Z</time>
      </trkpt>
      <trkpt lat="43.5733" lon="5.8726">
        <ele>516.1</ele>
        <time>2024-02-29T12:27:08.000Z</time>
      </trkpt>
      <trkpt lat="43.57325" lon="5.8726">
        <ele>515.8</ele>
        <time>2024-02-29T12:27:12Z</time>
      </trkpt>
      <trkpt lat="43.5732" lon="5.87262">
        <ele>515.5</ele>
        <time>2024-02-29T12:27:16.500Z</time>
      </trkpt>
      <trkpt lat="43.57315" lon="5.87263">
        <ele>515.1</ele>
        <time>2024-02-29T12:27:21Z</time>
      </trkpt>
      <trkpt lat="43.57308" lon="5.87264">
        <ele>514.7</ele>
        <time>2024-02-29T12:27:26.000Z</time>
      </trkpt>
      <trkpt lat="43.57301" lon="5.87265">
        <ele>514.3</ele>
        <time>2024-02-29T12:27:31Z</time>
      </trkpt>
      <trkpt lat="43.57295" lon="5.87266">
        <ele>514</ele>
        <time>2024-02-29T12:27:36.000Z</time>
      </trkpt>
      <trkpt lat="43.57289" lon="5.87266">
        <ele>513.6</ele>
        <time>2024-02-29T12:27:41Z</time>
      </trkpt>
      <trkpt lat="43.57284" lon="5.87267">
        <ele>513.4</ele>
        <time>2024-02-29T12:27:46.000Z</time>
      </trkpt>
      <trkpt lat="43.57279" lon="5.87268">
        <ele>513.1</ele>
        <time>2024-02-29T12:27:51Z</time>
      </trkpt>
      <trkpt lat="43.57271" lon="5.87267">
        <ele>512.9</ele>
        <time>2024-02-29T12:27:57.000Z</time>
      </trkpt>
      <trkpt lat="43.57262" lon="5.87266">
        <ele>512.8</ele>
        <time>2024-02-29T12:28:03Z</time>
      </trkpt>
      <trkpt lat="43.57256" lon="5.87268">
        <ele>512.7</ele>
        <time>2024-02-29T12:28:08.500Z</time>
      </trkpt>
      <trkpt lat="43.57249" lon="5.87269">
        <ele>512.6</ele>
        <time>2024-02-29T12:28:14Z</time>
      </trkpt>
      <trkpt lat="43.57244" lon="5.87268">
        <ele>512.3</ele>
        <time>2024-02-29T12:28:18.500Z</time>
      </trkpt>
      <trkpt lat="43.57238" lon="5.87266">
        <ele>512.1</ele>
        <time>2024-02-29T12:28:23Z</time>
      </trkpt>
      <trkpt lat="43.57231" lon="5.87263">
        <ele>511.8</ele>
        <time>2024-02-29T12:28:27.499Z</time>
      </trkpt>
      <trkpt lat="43.57224" lon="5.8726">
        <ele>511.7</ele>
        <time>2024-02-29T12:28:32Z</time>
      </trkpt>
      <trkpt lat="43.57219" lon="5.87258">
        <ele>511.5</ele>
        <time>2024-02-29T12:28:35.999Z</time>
      </trkpt>
      <trkpt lat="43.57214" lon="5.87256">
        <ele>511.3</ele>
        <time>2024-02-29T12:28:40Z</time>
      </trkpt>
      <trkpt lat="43.5721" lon="5.87258">
        <ele>510.9</ele>
        <time>2024-02-29T12:28:45.500Z</time>
      </trkpt>
      <trkpt lat="43.57205" lon="5.87259">
        <ele>510.6</ele>
        <time>2024-02-29T12:28:51Z</time>
      </trkpt>
      <trkpt lat="43.572" lon="5.8726">
        <ele>510.3</ele>
        <time>2024-02-29T12:28:57.000Z</time>
      </trkpt>
      <trkpt lat="43.57194" lon="5.87261">
        <ele>510</ele>
        <time>2024-02-29T12:29:03Z</time>
      </trkpt>
      <trkpt lat="43.57192" lon="5.87269">
        <ele>509.8</ele>
        <time>2024-02-29T12:29:08.499Z</time>
      </trkpt>
      <trkpt lat="43.5719" lon="5.87277">
        <ele>509.5</ele>
        <time>2024-02-29T12:29:14Z</time>
      </trkpt>
      <trkpt lat="43.57186" lon="5.87282">
        <ele>508.8</ele>
        <time>2024-02-29T12:29:20.499Z</time>
      </trkpt>
      <trkpt lat="43.57181" lon="5.87287">
        <ele>508</ele>
        <time>2024-02-29T12:29:27Z</time>
      </trkpt>
      <trkpt lat="43.57176" lon="5.87294">
        <ele>507.2</ele>
        <time>2024-02-29T12:29:36Z</time>
      </trkpt>
      <trkpt lat="43.57175" lon="5.87302">
        <ele>506.8</ele>
        <time>2024-02-29T12:29:39.999Z</time>
      </trkpt>
      <trkpt lat="43.57174" lon="5.87309">
        <ele>506.4</ele>
        <time>2024-02-29T12:29:44Z</time>
      </trkpt>
      <trkpt lat="43.57174" lon="5.87321">
        <ele>506</ele>
        <time>2024-02-29T12:29:48.500Z</time>
      </trkpt>
      <trkpt lat="43.57174" lon="5.87332">
        <ele>505.6</ele>
        <time>2024-02-29T12:29:53Z</time>
      </trkpt>
      <trkpt lat="43.57172" lon="5.87338">
        <ele>505.3</ele>
        <time>2024-02-29T12:29:57.999Z</time>
      </trkpt>
      <trkpt lat="43.57169" lon="5.87343">
        <ele>505.1</ele>
        <time>2024-02-29T12:30:03Z</time>
      </trkpt>
      <trkpt lat="43.57168" lon="5.8735">
        <ele>505</ele>
        <time>2024-02-29T12:30:07.499Z</time>
      </trkpt>
      <trkpt lat="43.57166" lon="5.87356">
        <ele>505</ele>
        <time>2024-02-29T12:30:12Z</time>
      </trkpt>
      <trkpt lat="43.57164" lon="5.87365">
        <ele>504.7</ele>
        <time>2024-02-29T12:30:16.499Z</time>
      </trkpt>
      <trkpt lat="43.57162" lon="5.87373">
        <ele>504.2</ele>
        <time>2024-02-29T12:30:21Z</time>
      </trkpt>
      <trkpt lat="43.57158" lon="5.87379">
        <ele>503.7</ele>
        <time>2024-02-29T12:30:25.999Z</time>
      </trkpt>
      <trkpt lat="43.57153" lon="5.87385">
        <ele>503.2</ele>
        <time>2024-02-29T12:30:31Z</time>
      </trkpt>
      <trkpt lat="43.57148" lon="5.8739">
        <ele>502.6</ele>
        <time>2024-02-29T12:30:35.499Z</time>
      </trkpt>
      <trkpt lat="43.57142" lon="5.87395">
        <ele>502.2</ele>
        <time>2024-02-29T12:30:40Z</time>
      </trkpt>
      <trkpt lat="43.57138" lon="5.874">
        <ele>502</ele>
        <time>2024-02-29T12:30:44.999Z</time>
      </trkpt>
      <trkpt lat="43.57133" lon="5.87404">
        <ele>501.9</ele>
        <time>2024-02-29T12:30:50Z</time>
      </trkpt>
      <trkpt lat="43.57131" lon="5.87415">
        <ele>501.7</ele>
        <time>2024-02-29T12:30:55.055Z</time>
      </trkpt>
      <trkpt lat="43.57129" lon="5.87421">
        <ele>501.5</ele>
        <time>2024-02-29T12:30:58Z</time>
      </trkpt>
      <trkpt lat="43.57128" lon="5.87425">
        <ele>501.4</ele>
        <time>2024-02-29T12:31:00.432Z</time>
      </trkpt>
      <trkpt lat="43.57124" lon="5.87435">
        <ele>501.2</ele>
        <time>2024-02-29T12:31:07Z</time>
      </trkpt>
      <trkpt lat="43.57121" lon="5.87442">
        <ele>501</ele>
        <time>2024-02-29T12:31:10.333Z</time>
      </trkpt>
      <trkpt lat="43.57118" lon="5.87449">
        <ele>500.9</ele>
        <time>2024-02-29T12:31:13.668Z</time>
      </trkpt>
      <trkpt lat="43.57113" lon="5.87457">
        <ele>500.6</ele>
        <time>2024-02-29T12:31:18Z</time>
      </trkpt>
      <trkpt lat="43.57114" lon="5.87464">
        <ele>500.4</ele>
        <time>2024-02-29T12:31:23.000Z</time>
      </trkpt>
      <trkpt lat="43.57115" lon="5.8747">
        <ele>500.2</ele>
        <time>2024-02-29T12:31:28Z</time>
      </trkpt>
      <trkpt lat="43.57117" lon="5.87479">
        <ele>500.2</ele>
        <time>2024-02-29T12:31:33.500Z</time>
      </trkpt>
      <trkpt lat="43.57118" lon="5.87488">
        <ele>500.2</ele>
        <time>2024-02-29T12:31:39Z</time>
      </trkpt>
      <trkpt lat="43.57121" lon="5.87494">
        <ele>500.4</ele>
        <time>2024-02-29T12:31:44.000Z</time>
      </trkpt>
      <trkpt lat="43.57124" lon="5.87499">
        <ele>500.5</ele>
        <time>2024-02-29T12:31:49Z</time>
      </trkpt>
      <trkpt lat="43.57128" lon="5.87504">
        <ele>500.7</ele>
        <time>2024-02-29T12:31:54.000Z</time>
      </trkpt>
      <trkpt lat="43.57132" lon="5.87509">
        <ele>500.8</ele>
        <time>2024-02-29T12:31:59Z</time>
      </trkpt>
      <trkpt lat="43.57135" lon="5.87515">
        <ele>500.9</ele>
        <time>2024-02-29T12:32:04.000Z</time>
      </trkpt>
      <trkpt lat="43.57138" lon="5.87521">
        <ele>501</ele>
        <time>2024-02-29T12:32:09Z</time>
      </trkpt>
      <trkpt lat="43.57141" lon="5.87527">
        <ele>501</ele>
        <time>2024-02-29T12:32:14.500Z</time>
      </trkpt>
      <trkpt lat="43.57143" lon="5.87532">
        <ele>501.2</ele>
        <time>2024-02-29T12:32:20Z</time>
      </trkpt>
      <trkpt lat="43.57146" lon="5.8754">
        <ele>501.4</ele>
        <time>2024-02-29T12:32:25.000Z</time>
      </trkpt>
      <trkpt lat="43.57149" lon="5.87547">
        <ele>501.7</ele>
        <time>2024-02-29T12:32:30Z</time>
      </trkpt>
      <trkpt lat="43.57152" lon="5.87555">
        <ele>502</ele>
        <time>2024-02-29T12:32:35.500Z</time>
      </trkpt>
      <trkpt lat="43.57154" lon="5.87562">
        <ele>502.1</ele>
        <time>2024-02-29T12:32:41Z</time>
      </trkpt>
      <trkpt lat="43.57159" lon="5.8757">
        <ele>502.1</ele>
        <time>2024-02-29T12:32:46.000Z</time>
      </trkpt>
      <trkpt lat="43.57164" lon="5.87577">
        <ele>502.1</ele>
        <time>2024-02-29T12:32:51Z</time>
      </trkpt>
      <trkpt lat="43.57167" lon="5.87583">
        <ele>502</ele>
        <time>2024-02-29T12:32:56.000Z</time>
      </trkpt>
      <trkpt lat="43.5717" lon="5.87589">
        <ele>502.1</ele>
        <time>2024-02-29T12:33:01Z</time>
      </trkpt>
      <trkpt lat="43.57171" lon="5.87596">
        <ele>502.2</ele>
        <time>2024-02-29T12:33:05.500Z</time>
      </trkpt>
      <trkpt lat="43.57172" lon="5.87603">
        <ele>502.2</ele>
        <time>2024-02-29T12:33:10Z</time>
      </trkpt>
      <trkpt lat="43.57174" lon="5.87615">
        <ele>502.4</ele>
        <time>2024-02-29T12:33:19Z</time>
      </trkpt>
      <trkpt lat="43.57175" lon="5.87624">
        <ele>502.6</ele>
        <time>2024-02-29T12:33:24.500Z</time>
      </trkpt>
      <trkpt lat="43.57175" lon="5.87632">
        <ele>502.8</ele>
        <time>2024-02-29T12:33:30Z</time>
      </trkpt>
      <trkpt lat="43.57177" lon="5.8764">
        <ele>503</ele>
        <time>2024-02-29T12:33:34.000Z</time>
      </trkpt>
      <trkpt lat="43.57178" lon="5.87648">
        <ele>502.9</ele>
        <time>2024-02-29T12:33:38Z</time>
      </trkpt>
      <trkpt lat="43.5718" lon="5.87654">
        <ele>502.7</ele>
        <time>2024-02-29T12:33:41.500Z</time>
      </trkpt>
      <trkpt lat="43.57181" lon="5.8766">
        <ele>502.6</ele>
        <time>2024-02-29T12:33:45Z</time>
      </trkpt>
      <trkpt lat="43.57181" lon="5.87667">
        <ele>502.5</ele>
        <time>2024-02-29T12:33:48.499Z</time>
      </trkpt>
      <trkpt lat="43.5718" lon="5.87674">
        <ele>502.4</ele>
        <time>2024-02-29T12:33:52Z</time>
      </trkpt>
      <trkpt lat="43.57181" lon="5.87681">
        <ele>502.2</ele>
        <time>2024-02-29T12:33:55.500Z</time>
      </trkpt>
      <trkpt lat="43.57182" lon="5.87687">
        <ele>502.1</ele>
        <time>2024-02-29T12:33:59Z</time>
      </trkpt>
      <trkpt lat="43.57183" lon="5.87694">
        <ele>502</ele>
        <time>2024-02-29T12:34:03.000Z</time>
      </trkpt>
      <trkpt lat="43.57183" lon="5.87701">
        <ele>501.9</ele>
        <time>2024-02-29T12:34:07Z</time>
      </trkpt>
      <trkpt lat="43.57183" lon="5.87708">
        <ele>501.8</ele>
        <time>2024-02-29T12:34:11.000Z</time>
      </trkpt>
      <trkpt lat="43.57183" lon="5.87714">
        <ele>501.7</ele>
        <time>2024-02-29T12:34:15Z</time>
      </trkpt>
      <trkpt lat="43.57183" lon="5.87722">
        <ele>501.6</ele>
        <time>2024-02-29T12:34:24.499Z</time>
      </trkpt>
      <trkpt lat="43.57182" lon="5.87729">
        <ele>501.3</ele>
        <time>2024-02-29T12:34:34Z</time>
      </trkpt>
      <trkpt lat="43.57187" lon="5.87735">
        <ele>501.3</ele>
        <time>2024-02-29T12:34:38.500Z</time>
      </trkpt>
      <trkpt lat="43.57191" lon="5.87741">
        <ele>501.2</ele>
        <time>2024-02-29T12:34:43Z</time>
      </trkpt>
      <trkpt lat="43.57195" lon="5.87745">
        <ele>501.2</ele>
        <time>2024-02-29T12:34:48.000Z</time>
      </trkpt>
      <trkpt lat="43.57199" lon="5.87749">
        <ele>501.5</ele>
        <time>2024-02-29T12:34:53Z</time>
      </trkpt>
      <trkpt lat="43.57204" lon="5.87754">
        <ele>501.9</ele>
        <time>2024-02-29T12:34:58.000Z</time>
      </trkpt>
      <trkpt lat="43.57208" lon="5.87759">
        <ele>502.3</ele>
        <time>2024-02-29T12:35:03Z</time>
      </trkpt>
      <trkpt lat="43.57213" lon="5.87763">
        <ele>502.7</ele>
        <time>2024-02-29T12:35:09.000Z</time>
      </trkpt>
      <trkpt lat="43.57218" lon="5.87767">
        <ele>503</ele>
        <time>2024-02-29T12:35:15Z</time>
      </trkpt>
      <trkpt lat="43.57224" lon="5.87771">
        <ele>503.4</ele>
        <time>2024-02-29T12:35:21.000Z</time>
      </trkpt>
      <trkpt lat="43.57229" lon="5.87774">
        <ele>503.6</ele>
        <time>2024-02-29T12:35:27Z</time>
      </trkpt>
      <trkpt lat="43.57232" lon="5.87781">
        <ele>503.6</ele>
        <time>2024-02-29T12:35:32.000Z</time>
      </trkpt>
      <trkpt lat="43.57235" lon="5.87787">
        <ele>503.4</ele>
        <time>2024-02-29T12:35:37Z</time>
      </trkpt>
      <trkpt lat="43.57239" lon="5.87794">
        <ele>503.3</ele>
        <time>2024-02-29T12:35:42.000Z</time>
      </trkpt>
      <trkpt lat="43.57243" lon="5.87801">
        <ele>503</ele>
        <time>2024-02-29T12:35:47Z</time>
      </trkpt>
      <trkpt lat="43.57247" lon="5.87808">
        <ele>502.7</ele>
        <time>2024-02-29T12:35:52.000Z</time>
      </trkpt>
      <trkpt lat="43.57251" lon="5.87814">
        <ele>502.1</ele>
        <time>2024-02-29T12:35:57Z</time>
      </trkpt>
      <trkpt lat="43.57256" lon="5.87823">
        <ele>501.3</ele>
        <time>2024-02-29T12:36:02.000Z</time>
      </trkpt>
      <trkpt lat="43.5726" lon="5.87831">
        <ele>500.6</ele>
        <time>2024-02-29T12:36:07Z</time>
      </trkpt>
      <trkpt lat="43.57265" lon="5.87838">
        <ele>500.1</ele>
        <time>2024-02-29T12:36:12.000Z</time>
      </trkpt>
      <trkpt lat="43.57269" lon="5.87844">
        <ele>499.7</ele>
        <time>2024-02-29T12:36:17Z</time>
      </trkpt>
      <trkpt lat="43.5727" lon="5.87851">
        <ele>499</ele>
        <time>2024-02-29T12:36:22.000Z</time>
      </trkpt>
      <trkpt lat="43.57271" lon="5.87857">
        <ele>498.4</ele>
        <time>2024-02-29T12:36:27Z</time>
      </trkpt>
      <trkpt lat="43.57272" lon="5.87867">
        <ele>497.7</ele>
        <time>2024-02-29T12:36:31.500Z</time>
      </trkpt>
      <trkpt lat="43.57273" lon="5.87876">
        <ele>497</ele>
        <time>2024-02-29T12:36:36Z</time>
      </trkpt>
      <trkpt lat="43.57273" lon="5.87885">
        <ele>496.4</ele>
        <time>2024-02-29T12:36:40.499Z</time>
      </trkpt>
      <trkpt lat="43.57272" lon="5.87894">
        <ele>496</ele>
        <time>2024-02-29T12:36:45Z</time>
      </trkpt>
      <trkpt lat="43.57273" lon="5.87901">
        <ele>495.7</ele>
        <time>2024-02-29T12:36:49.500Z</time>
      </trkpt>
      <trkpt lat="43.57273" lon="5.87908">
        <ele>495.4</ele>
        <time>2024-02-29T12:36:54Z</time>
      </trkpt>
      <trkpt lat="43.57271" lon="5.87915">
        <ele>495.1</ele>
        <time>2024-02-29T12:36:58.999Z</time>
      </trkpt>
      <trkpt lat="43.57269" lon="5.87922">
        <ele>494.7</ele>
        <time>2024-02-29T12:37:04Z</time>
      </trkpt>
      <trkpt lat="43.5727" lon="5.8793">
        <ele>494.4</ele>
        <time>2024-02-29T12:37:08.500Z</time>
      </trkpt>
      <trkpt lat="43.57271" lon="5.87938">
        <ele>494</ele>
        <time>2024-02-29T12:37:13Z</time>
      </trkpt>
      <trkpt lat="43.57274" lon="5.87944">
        <ele>493.9</ele>
        <time>2024-02-29T12:37:18.000Z</time>
      </trkpt>
      <trkpt lat="43.57277" lon="5.8795">
        <ele>493.8</ele>
        <time>2024-02-29T12:37:23Z</time>
      </trkpt>
      <trkpt lat="43.57281" lon="5.87961">
        <ele>493.8</ele>
        <time>2024-02-29T12:37:32Z</time>
      </trkpt>
      <trkpt lat="43.57282" lon="5.87968">
        <ele>493.6</ele>
        <time>2024-02-29T12:37:37.000Z</time>
      </trkpt>
      <trkpt lat="43.57283" lon="5.87975">
        <ele>493.5</ele>
        <time>2024-02-29T12:37:42Z</time>
      </trkpt>
      <trkpt lat="43.57284" lon="5.87984">
        <ele>493.3</ele>
        <time>2024-02-29T12:37:46.500Z</time>
      </trkpt>
      <trkpt lat="43.57285" lon="5.87992">
        <ele>493.1</ele>
        <time>2024-02-29T12:37:51Z</time>
      </trkpt>
      <trkpt lat="43.57288" lon="5.87999">
        <ele>493.2</ele>
        <time>2024-02-29T12:37:57.000Z</time>
      </trkpt>
      <trkpt lat="43.57291" lon="5.88005">
        <ele>493.2</ele>
        <time>2024-02-29T12:38:03Z</time>
      </trkpt>
      <trkpt lat="43.57297" lon="5.88013">
        <ele>493.3</ele>
        <time>2024-02-29T12:38:08.000Z</time>
      </trkpt>
      <trkpt lat="43.57302" lon="5.8802">
        <ele>493.3</ele>
        <time>2024-02-29T12:38:13Z</time>
      </trkpt>
      <trkpt lat="43.57305" lon="5.88026">
        <ele>493.1</ele>
        <time>2024-02-29T12:38:17.500Z</time>
      </trkpt>
      <trkpt lat="43.57308" lon="5.88031">
        <ele>492.8</ele>
        <time>2024-02-29T12:38:22Z</time>
      </trkpt>
      <trkpt lat="43.5731" lon="5.88038">
        <ele>492.3</ele>
        <time>2024-02-29T12:38:26.500Z</time>
      </trkpt>
      <trkpt lat="43.57312" lon="5.88045">
        <ele>491.9</ele>
        <time>2024-02-29T12:38:31Z</time>
      </trkpt>
      <trkpt lat="43.57313" lon="5.88052">
        <ele>491.5</ele>
        <time>2024-02-29T12:38:35.500Z</time>
      </trkpt>
      <trkpt lat="43.57313" lon="5.88058">
        <ele>491.2</ele>
        <time>2024-02-29T12:38:40Z</time>
      </trkpt>
      <trkpt lat="43.57313" lon="5.88067">
        <ele>491</ele>
        <time>2024-02-29T12:39:36Z</time>
      </trkpt>
      <trkpt lat="43.57307" lon="5.88064">
        <ele>490.8</ele>
        <time>2024-02-29T12:39:46.911Z</time>
      </trkpt>
      <trkpt lat="43.57302" lon="5.88072">
        <ele>490.4</ele>
        <time>2024-02-29T12:40:00Z</time>
      </trkpt>
      <trkpt lat="43.57298" lon="5.88078">
        <ele>490.1</ele>
        <time>2024-02-29T12:40:07.499Z</time>
      </trkpt>
      <trkpt lat="43.57293" lon="5.88083">
        <ele>490</ele>
        <time>2024-02-29T12:40:15Z</time>
      </trkpt>
      <trkpt lat="43.57288" lon="5.88076">
        <ele>490.1</ele>
        <time>2024-02-29T12:40:21.109Z</time>
      </trkpt>
      <trkpt lat="43.57289" lon="5.88065">
        <ele>490.3</ele>
        <time>2024-02-29T12:40:28Z</time>
      </trkpt>
      <trkpt lat="43.57284" lon="5.88063">
        <ele>490.2</ele>
        <time>2024-02-29T12:40:33.499Z</time>
      </trkpt>
      <trkpt lat="43.57278" lon="5.8806">
        <ele>490</ele>
        <time>2024-02-29T12:40:39Z</time>
      </trkpt>
      <trkpt lat="43.57271" lon="5.88058">
        <ele>490.2</ele>
        <time>2024-02-29T12:40:45.999Z</time>
      </trkpt>
      <trkpt lat="43.57264" lon="5.88055">
        <ele>490.5</ele>
        <time>2024-02-29T12:40:53Z</time>
      </trkpt>
      <trkpt lat="43.5726" lon="5.88058">
        <ele>490.6</ele>
        <time>2024-02-29T12:40:57.999Z</time>
      </trkpt>
      <trkpt lat="43.57255" lon="5.8806">
        <ele>490.7</ele>
        <time>2024-02-29T12:41:03Z</time>
      </trkpt>
      <trkpt lat="43.57253" lon="5.88066">
        <ele>490.6</ele>
        <time>2024-02-29T12:41:09.499Z</time>
      </trkpt>
      <trkpt lat="43.5725" lon="5.88072">
        <ele>490.4</ele>
        <time>2024-02-29T12:41:16Z</time>
      </trkpt>
      <trkpt lat="43.57243" lon="5.88079">
        <ele>490.6</ele>
        <time>2024-02-29T12:41:31Z</time>
      </trkpt>
      <trkpt lat="43.57237" lon="5.88081">
        <ele>491</ele>
        <time>2024-02-29T12:41:37.000Z</time>
      </trkpt>
      <trkpt lat="43.57231" lon="5.88082">
        <ele>491.4</ele>
        <time>2024-02-29T12:41:43Z</time>
      </trkpt>
      <trkpt lat="43.57224" lon="5.88083">
        <ele>491.9</ele>
        <time>2024-02-29T12:41:50.000Z</time>
      </trkpt>
      <trkpt lat="43.57217" lon="5.88083">
        <ele>492.7</ele>
        <time>2024-02-29T12:41:57Z</time>
      </trkpt>
      <trkpt lat="43.57212" lon="5.88085">
        <ele>493.6</ele>
        <time>2024-02-29T12:42:03.000Z</time>
      </trkpt>
      <trkpt lat="43.57207" lon="5.88086">
        <ele>494.4</ele>
        <time>2024-02-29T12:42:09Z</time>
      </trkpt>
      <trkpt lat="43.57202" lon="5.88091">
        <ele>495.4</ele>
        <time>2024-02-29T12:42:16.499Z</time>
      </trkpt>
      <trkpt lat="43.57196" lon="5.88095">
        <ele>496.2</ele>
        <time>2024-02-29T12:42:24Z</time>
      </trkpt>
      <trkpt lat="43.57193" lon="5.88103">
        <ele>496.9</ele>
        <time>2024-02-29T12:42:30.999Z</time>
      </trkpt>
      <trkpt lat="43.57189" lon="5.8811">
        <ele>497.4</ele>
        <time>2024-02-29T12:42:38Z</time>
      </trkpt>
      <trkpt lat="43.57188" lon="5.88117">
        <ele>497.5</ele>
        <time>2024-02-29T12:42:43.999Z</time>
      </trkpt>
      <trkpt lat="43.57186" lon="5.88123">
        <ele>497.5</ele>
        <time>2024-02-29T12:42:50Z</time>
      </trkpt>
      <trkpt lat="43.57186" lon="5.88132">
        <ele>497.4</ele>
        <time>2024-02-29T12:42:55.500Z</time>
      </trkpt>
      <trkpt lat="43.57186" lon="5.8814">
        <ele>497.3</ele>
        <time>2024-02-29T12:43:01Z</time>
      </trkpt>
      <trkpt lat="43.57185" lon="5.88147">
        <ele>497.2</ele>
        <time>2024-02-29T12:43:06.999Z</time>
      </trkpt>
      <trkpt lat="43.57184" lon="5.88154">
        <ele>497.2</ele>
        <time>2024-02-29T12:43:13Z</time>
      </trkpt>
      <trkpt lat="43.57182" lon="5.8816">
        <ele>497.1</ele>
        <time>2024-02-29T12:43:19.999Z</time>
      </trkpt>
      <trkpt lat="43.5718" lon="5.88166">
        <ele>497</ele>
        <time>2024-02-29T12:43:27Z</time>
      </trkpt>
      <trkpt lat="43.57176" lon="5.88173">
        <ele>496.9</ele>
        <time>2024-02-29T12:43:32.999Z</time>
      </trkpt>
      <trkpt lat="43.57172" lon="5.8818">
        <ele>496.9</ele>
        <time>2024-02-29T12:43:39Z</time>
      </trkpt>
      <trkpt lat="43.57167" lon="5.88186">
        <ele>497</ele>
        <time>2024-02-29T12:43:45.499Z</time>
      </trkpt>
      <trkpt lat="43.57161" lon="5.88191">
        <ele>496.6</ele>
        <time>2024-02-29T12:43:52Z</time>
      </trkpt>
      <trkpt lat="43.57155" lon="5.88197">
        <ele>496</ele>
        <time>2024-02-29T12:43:57.999Z</time>
      </trkpt>
      <trkpt lat="43.57149" lon="5.88203">
        <ele>495.3</ele>
        <time>2024-02-29T12:44:04Z</time>
      </trkpt>
      <trkpt lat="43.57145" lon="5.8821">
        <ele>494.8</ele>
        <time>2024-02-29T12:44:10.999Z</time>
      </trkpt>
      <trkpt lat="43.57141" lon="5.88216">
        <ele>494.3</ele>
        <time>2024-02-29T12:44:18Z</time>
      </trkpt>
      <trkpt lat="43.57137" lon="5.88223">
        <ele>493.7</ele>
        <time>2024-02-29T12:44:23.999Z</time>
      </trkpt>
      <trkpt lat="43.57132" lon="5.88229">
        <ele>492.5</ele>
        <time>2024-02-29T12:44:30Z</time>
      </trkpt>
      <trkpt lat="43.57129" lon="5.88234">
        <ele>491.6</ele>
        <time>2024-02-29T12:44:37.499Z</time>
      </trkpt>
      <trkpt lat="43.57125" lon="5.88239">
        <ele>490.7</ele>
        <time>2024-02-29T12:44:45Z</time>
      </trkpt>
      <trkpt lat="43.5712" lon="5.88242">
        <ele>489.8</ele>
        <time>2024-02-29T12:44:56.499Z</time>
      </trkpt>
      <trkpt lat="43.57115" lon="5.88245">
        <ele>489</ele>
        <time>2024-02-29T12:45:08Z</time>
      </trkpt>
      <trkpt lat="43.57107" lon="5.8825">
        <ele>488</ele>
        <time>2024-02-29T12:45:26Z</time>
      </trkpt>
      <trkpt lat="43.571" lon="5.88252">
        <ele>487.8</ele>
        <time>2024-02-29T12:45:49Z</time>
      </trkpt>
      <trkpt lat="43.57096" lon="5.88251">
        <ele>487.9</ele>
        <time>2024-02-29T12:46:12.499Z</time>
      </trkpt>
      <trkpt lat="43.57091" lon="5.8825">
        <ele>488</ele>
        <time>2024-02-29T12:46:36Z</time>
      </trkpt>
      <trkpt lat="43.57087" lon="5.88254">
        <ele>487.6</ele>
        <time>2024-02-29T12:47:10Z</time>
      </trkpt>
      <trkpt lat="43.57084" lon="5.88258">
        <ele>487.1</ele>
        <time>2024-02-29T12:47:33Z</time>
      </trkpt>
      <trkpt lat="43.5708" lon="5.88267">
        <ele>486</ele>
        <time>2024-02-29T12:47:58Z</time>
      </trkpt>
      <trkpt lat="43.5708" lon="5.88275">
        <ele>485.2</ele>
        <time>2024-02-29T12:48:11.000Z</time>
      </trkpt>
      <trkpt lat="43.5708" lon="5.88282">
        <ele>484.6</ele>
        <time>2024-02-29T12:48:24Z</time>
      </trkpt>
      <trkpt lat="43.57081" lon="5.8829">
        <ele>484.1</ele>
        <time>2024-02-29T12:48:33.000Z</time>
      </trkpt>
      <trkpt lat="43.57081" lon="5.88298">
        <ele>483.5</ele>
        <time>2024-02-29T12:48:42Z</time>
      </trkpt>
      <trkpt lat="43.5708" lon="5.88305">
        <ele>483</ele>
        <time>2024-02-29T12:48:49.999Z</time>
      </trkpt>
      <trkpt lat="43.57079" lon="5.88312">
        <ele>482.5</ele>
        <time>2024-02-29T12:48:58Z</time>
      </trkpt>
      <trkpt lat="43.57076" lon="5.88318">
        <ele>482.1</ele>
        <time>2024-02-29T12:49:05.499Z</time>
      </trkpt>
      <trkpt lat="43.57073" lon="5.88323">
        <ele>481.7</ele>
        <time>2024-02-29T12:49:13Z</time>
      </trkpt>
      <trkpt lat="43.57074" lon="5.8833">
        <ele>481.2</ele>
        <time>2024-02-29T12:49:19.500Z</time>
      </trkpt>
      <trkpt lat="43.57074" lon="5.88337">
        <ele>480.9</ele>
        <time>2024-02-29T12:49:26Z</time>
      </trkpt>
      <trkpt lat="43.57077" lon="5.88344">
        <ele>480.6</ele>
        <time>2024-02-29T12:49:31.000Z</time>
      </trkpt>
      <trkpt lat="43.57079" lon="5.8835">
        <ele>480.4</ele>
        <time>2024-02-29T12:49:36Z</time>
      </trkpt>
      <trkpt lat="43.57075" lon="5.88352">
        <ele>480.3</ele>
        <time>2024-02-29T12:49:40.999Z</time>
      </trkpt>
      <trkpt lat="43.5707" lon="5.88354">
        <ele>480.3</ele>
        <time>2024-02-29T12:49:46Z</time>
      </trkpt>
      <trkpt lat="43.57063" lon="5.88359">
        <ele>480.1</ele>
        <time>2024-02-29T12:52:28Z</time>
      </trkpt>
      <trkpt lat="43.57059" lon="5.88363">
        <ele>479.9</ele>
        <time>2024-02-29T12:54:11.999Z</time>
      </trkpt>
      <trkpt lat="43.57054" lon="5.88367">
        <ele>479.8</ele>
        <time>2024-02-29T12:55:56Z</time>
      </trkpt>
      <trkpt lat="43.5705" lon="5.88369">
        <ele>479.7</ele>
        <time>2024-02-29T12:56:31Z</time>
      </trkpt>
      <trkpt lat="43.57042" lon="5.88373">
        <ele>479.6</ele>
        <time>2024-02-29T12:56:41Z</time>
      </trkpt>
      <trkpt lat="43.57038" lon="5.88376">
        <ele>479.5</ele>
        <time>2024-02-29T12:56:44.999Z</time>
      </trkpt>
      <trkpt lat="43.57033" lon="5.88378">
        <ele>479.4</ele>
        <time>2024-02-29T12:56:49Z</time>
      </trkpt>
      <trkpt lat="43.57029" lon="5.88381">
        <ele>479.3</ele>
        <time>2024-02-29T12:56:53.499Z</time>
      </trkpt>
      <trkpt lat="43.57024" lon="5.88384">
        <ele>479.2</ele>
        <time>2024-02-29T12:56:58Z</time>
      </trkpt>
      <trkpt lat="43.57017" lon="5.8839">
        <ele>479</ele>
        <time>2024-02-29T12:57:05Z</time>
      </trkpt>
      <trkpt lat="43.57013" lon="5.88392">
        <ele>478.9</ele>
        <time>2024-02-29T12:57:08.499Z</time>
      </trkpt>
      <trkpt lat="43.57008" lon="5.88394">
        <ele>478.8</ele>
        <time>2024-02-29T12:57:12Z</time>
      </trkpt>
      <trkpt lat="43.57004" lon="5.88397">
        <ele>478.7</ele>
        <time>2024-02-29T12:57:15.999Z</time>
      </trkpt>
      <trkpt lat="43.56999" lon="5.88399">
        <ele>478.7</ele>
        <time>2024-02-29T12:57:20Z</time>
      </trkpt>
      <trkpt lat="43.56994" lon="5.88401">
        <ele>478.7</ele>
        <time>2024-02-29T12:57:23.999Z</time>
      </trkpt>
      <trkpt lat="43.56989" lon="5.88403">
        <ele>478.7</ele>
        <time>2024-02-29T12:57:28Z</time>
      </trkpt>
      <trkpt lat="43.56984" lon="5.88406">
        <ele>478.6</ele>
        <time>2024-02-29T12:57:31.999Z</time>
      </trkpt>
      <trkpt lat="43.56978" lon="5.88409">
        <ele>478.5</ele>
        <time>2024-02-29T12:57:36Z</time>
      </trkpt>
      <trkpt lat="43.56973" lon="5.88411">
        <ele>478.4</ele>
        <time>2024-02-29T12:57:40.000Z</time>
      </trkpt>
      <trkpt lat="43.56968" lon="5.88412">
        <ele>478.5</ele>
        <time>2024-02-29T12:57:44Z</time>
      </trkpt>
      <trkpt lat="43.56963" lon="5.88415">
        <ele>478.5</ele>
        <time>2024-02-29T12:57:47.499Z</time>
      </trkpt>
      <trkpt lat="43.56958" lon="5.88418">
        <ele>478.5</ele>
        <time>2024-02-29T12:57:51Z</time>
      </trkpt>
      <trkpt lat="43.56954" lon="5.88421">
        <ele>478.5</ele>
        <time>2024-02-29T12:57:54.499Z</time>
      </trkpt>
      <trkpt lat="43.56949" lon="5.88423">
        <ele>478.6</ele>
        <time>2024-02-29T12:57:58Z</time>
      </trkpt>
      <trkpt lat="43.56945" lon="5.88426">
        <ele>478.7</ele>
        <time>2024-02-29T12:58:01.999Z</time>
      </trkpt>
      <trkpt lat="43.5694" lon="5.88428">
        <ele>478.8</ele>
        <time>2024-02-29T12:58:06Z</time>
      </trkpt>
      <trkpt lat="43.56935" lon="5.88431">
        <ele>479</ele>
        <time>2024-02-29T12:58:09.999Z</time>
      </trkpt>
      <trkpt lat="43.5693" lon="5.88434">
        <ele>479.1</ele>
        <time>2024-02-29T12:58:14Z</time>
      </trkpt>
      <trkpt lat="43.56925" lon="5.88438">
        <ele>479.1</ele>
        <time>2024-02-29T12:58:17.999Z</time>
      </trkpt>
      <trkpt lat="43.5692" lon="5.88441">
        <ele>479.1</ele>
        <time>2024-02-29T12:58:22Z</time>
      </trkpt>
      <trkpt lat="43.56915" lon="5.88442">
        <ele>479.2</ele>
        <time>2024-02-29T12:58:26.000Z</time>
      </trkpt>
      <trkpt lat="43.5691" lon="5.88443">
        <ele>479.3</ele>
        <time>2024-02-29T12:58:30Z</time>
      </trkpt>
      <trkpt lat="43.56906" lon="5.88445">
        <ele>479.4</ele>
        <time>2024-02-29T12:58:33.999Z</time>
      </trkpt>
      <trkpt lat="43.56901" lon="5.88447">
        <ele>479.4</ele>
        <time>2024-02-29T12:58:38Z</time>
      </trkpt>
      <trkpt lat="43.56897" lon="5.88449">
        <ele>479.5</ele>
        <time>2024-02-29T12:58:41.999Z</time>
      </trkpt>
      <trkpt lat="43.56892" lon="5.88451">
        <ele>479.6</ele>
        <time>2024-02-29T12:58:46Z</time>
      </trkpt>
      <trkpt lat="43.56887" lon="5.88454">
        <ele>479.7</ele>
        <time>2024-02-29T12:58:49.999Z</time>
      </trkpt>
      <trkpt lat="43.56882" lon="5.88456">
        <ele>479.6</ele>
        <time>2024-02-29T12:58:54Z</time>
      </trkpt>
      <trkpt lat="43.56878" lon="5.88459">
        <ele>479.5</ele>
        <time>2024-02-29T12:58:57.499Z</time>
      </trkpt>
      <trkpt lat="43.56873" lon="5.88461">
        <ele>479.4</ele>
        <time>2024-02-29T12:59:01Z</time>
      </trkpt>
      <trkpt lat="43.56868" lon="5.88464">
        <ele>479.3</ele>
        <time>2024-02-29T12:59:04.499Z</time>
      </trkpt>
      <trkpt lat="43.56863" lon="5.88467">
        <ele>479.2</ele>
        <time>2024-02-29T12:59:08Z</time>
      </trkpt>
      <trkpt lat="43.56859" lon="5.88469">
        <ele>479.1</ele>
        <time>2024-02-29T12:59:11.499Z</time>
      </trkpt>
      <trkpt lat="43.56854" lon="5.88471">
        <ele>479.1</ele>
        <time>2024-02-29T12:59:15Z</time>
      </trkpt>
      <trkpt lat="43.5685" lon="5.88473">
        <ele>479</ele>
        <time>2024-02-29T12:59:18.499Z</time>
      </trkpt>
      <trkpt lat="43.56845" lon="5.88475">
        <ele>478.9</ele>
        <time>2024-02-29T12:59:22Z</time>
      </trkpt>
      <trkpt lat="43.56841" lon="5.88478">
        <ele>478.8</ele>
        <time>2024-02-29T12:59:25.499Z</time>
      </trkpt>
      <trkpt lat="43.56836" lon="5.8848">
        <ele>478.7</ele>
        <time>2024-02-29T12:59:29Z</time>
      </trkpt>
      <trkpt lat="43.56831" lon="5.88483">
        <ele>478.6</ele>
        <time>2024-02-29T12:59:32.999Z</time>
      </trkpt>
      <trkpt lat="43.56826" lon="5.88485">
        <ele>478.5</ele>
        <time>2024-02-29T12:59:37Z</time>
      </trkpt>
      <trkpt lat="43.56821" lon="5.88488">
        <ele>478.4</ele>
        <time>2024-02-29T12:59:40.499Z</time>
      </trkpt>
      <trkpt lat="43.56815" lon="5.88491">
        <ele>478.3</ele>
        <time>2024-02-29T12:59:44Z</time>
      </trkpt>
      <trkpt lat="43.56811" lon="5.88493">
        <ele>478.3</ele>
        <time>2024-02-29T12:59:47.500Z</time>
      </trkpt>
      <trkpt lat="43.56806" lon="5.88494">
        <ele>478.2</ele>
        <time>2024-02-29T12:59:51Z</time>
      </trkpt>
      <trkpt lat="43.56802" lon="5.88497">
        <ele>478.1</ele>
        <time>2024-02-29T12:59:54.499Z</time>
      </trkpt>
      <trkpt lat="43.56797" lon="5.88499">
        <ele>478</ele>
        <time>2024-02-29T12:59:58Z</time>
      </trkpt>
      <trkpt lat="43.56793" lon="5.88502">
        <ele>477.9</ele>
        <time>2024-02-29T13:00:01.499Z</time>
      </trkpt>
      <trkpt lat="43.56788" lon="5.88505">
        <ele>477.8</ele>
        <time>2024-02-29T13:00:05Z</time>
      </trkpt>
      <trkpt lat="43.56783" lon="5.88508">
        <ele>477.7</ele>
        <time>2024-02-29T13:00:08.999Z</time>
      </trkpt>
      <trkpt lat="43.56778" lon="5.8851">
        <ele>477.6</ele>
        <time>2024-02-29T13:00:13Z</time>
      </trkpt>
      <trkpt lat="43.5677" lon="5.88515">
        <ele>477.7</ele>
        <time>2024-02-29T13:00:20Z</time>
      </trkpt>
      <trkpt lat="43.56765" lon="5.88518">
        <ele>477.8</ele>
        <time>2024-02-29T13:00:24.499Z</time>
      </trkpt>
      <trkpt lat="43.5676" lon="5.8852">
        <ele>477.9</ele>
        <time>2024-02-29T13:00:29Z</time>
      </trkpt>
      <trkpt lat="43.56755" lon="5.88524">
        <ele>478</ele>
        <time>2024-02-29T13:00:33.499Z</time>
      </trkpt>
      <trkpt lat="43.56749" lon="5.88528">
        <ele>478.1</ele>
        <time>2024-02-29T13:00:38Z</time>
      </trkpt>
      <trkpt lat="43.56743" lon="5.88531">
        <ele>478.4</ele>
        <time>2024-02-29T13:00:41.999Z</time>
      </trkpt>
      <trkpt lat="43.56737" lon="5.88534">
        <ele>478.7</ele>
        <time>2024-02-29T13:00:46Z</time>
      </trkpt>
      <trkpt lat="43.56734" lon="5.8854">
        <ele>478.7</ele>
        <time>2024-02-29T13:00:49.999Z</time>
      </trkpt>
      <trkpt lat="43.56731" lon="5.88545">
        <ele>478.7</ele>
        <time>2024-02-29T13:00:54Z</time>
      </trkpt>
      <trkpt lat="43.56726" lon="5.88554">
        <ele>478.8</ele>
        <time>2024-02-29T13:01:02Z</time>
      </trkpt>
      <trkpt lat="43.56722" lon="5.88558">
        <ele>479</ele>
        <time>2024-02-29T13:01:06.499Z</time>
      </trkpt>
      <trkpt lat="43.56717" lon="5.88561">
        <ele>479</ele>
        <time>2024-02-29T13:01:11Z</time>
      </trkpt>
      <trkpt lat="43.56712" lon="5.88564">
        <ele>479.2</ele>
        <time>2024-02-29T13:01:15.499Z</time>
      </trkpt>
      <trkpt lat="43.56706" lon="5.88566">
        <ele>479.4</ele>
        <time>2024-02-29T13:01:20Z</time>
      </trkpt>
      <trkpt lat="43.56702" lon="5.88571">
        <ele>479.6</ele>
        <time>2024-02-29T13:01:24.499Z</time>
      </trkpt>
      <trkpt lat="43.56698" lon="5.88575">
        <ele>479.8</ele>
        <time>2024-02-29T13:01:29Z</time>
      </trkpt>
      <trkpt lat="43.56695" lon="5.8858">
        <ele>480</ele>
        <time>2024-02-29T13:01:33.499Z</time>
      </trkpt>
      <trkpt lat="43.56691" lon="5.88585">
        <ele>479.9</ele>
        <time>2024-02-29T13:01:38Z</time>
      </trkpt>
      <trkpt lat="43.56688" lon="5.88593">
        <ele>479.7</ele>
        <time>2024-02-29T13:01:42.999Z</time>
      </trkpt>
      <trkpt lat="43.56684" lon="5.886">
        <ele>479.4</ele>
        <time>2024-02-29T13:01:48Z</time>
      </trkpt>
      <trkpt lat="43.56682" lon="5.88608">
        <ele>479.1</ele>
        <time>2024-02-29T13:01:51.999Z</time>
      </trkpt>
      <trkpt lat="43.5668" lon="5.88616">
        <ele>478.9</ele>
        <time>2024-02-29T13:01:56Z</time>
      </trkpt>
      <trkpt lat="43.56679" lon="5.88622">
        <ele>478.8</ele>
        <time>2024-02-29T13:01:59.999Z</time>
      </trkpt>
      <trkpt lat="43.56677" lon="5.88628">
        <ele>478.8</ele>
        <time>2024-02-29T13:02:04Z</time>
      </trkpt>
      <trkpt lat="43.56677" lon="5.88635">
        <ele>478.7</ele>
        <time>2024-02-29T13:02:08.499Z</time>
      </trkpt>
      <trkpt lat="43.56676" lon="5.88641">
        <ele>478.7</ele>
        <time>2024-02-29T13:02:13Z</time>
      </trkpt>
      <trkpt lat="43.56675" lon="5.88649">
        <ele>478.7</ele>
        <time>2024-02-29T13:02:17.499Z</time>
      </trkpt>
      <trkpt lat="43.56674" lon="5.88657">
        <ele>478.7</ele>
        <time>2024-02-29T13:02:22Z</time>
      </trkpt>
      <trkpt lat="43.56674" lon="5.88664">
        <ele>478.8</ele>
        <time>2024-02-29T13:02:28.999Z</time>
      </trkpt>
      <trkpt lat="43.56673" lon="5.88671">
        <ele>478.7</ele>
        <time>2024-02-29T13:02:36Z</time>
      </trkpt>
      <trkpt lat="43.56672" lon="5.88679">
        <ele>478.7</ele>
        <time>2024-02-29T13:02:48.999Z</time>
      </trkpt>
      <trkpt lat="43.56671" lon="5.88687">
        <ele>478.7</ele>
        <time>2024-02-29T13:03:02Z</time>
      </trkpt>
      <trkpt lat="43.56671" lon="5.88694">
        <ele>478.7</ele>
        <time>2024-02-29T13:03:06.500Z</time>
      </trkpt>
      <trkpt lat="43.56671" lon="5.88701">
        <ele>478.5</ele>
        <time>2024-02-29T13:03:11Z</time>
      </trkpt>
      <trkpt lat="43.5667" lon="5.88709">
        <ele>478.3</ele>
        <time>2024-02-29T13:03:14.999Z</time>
      </trkpt>
      <trkpt lat="43.56668" lon="5.88716">
        <ele>478.2</ele>
        <time>2024-02-29T13:03:19Z</time>
      </trkpt>
      <trkpt lat="43.56667" lon="5.88723">
        <ele>478</ele>
        <time>2024-02-29T13:03:22.999Z</time>
      </trkpt>
      <trkpt lat="43.56665" lon="5.88729">
        <ele>478</ele>
        <time>2024-02-29T13:03:27Z</time>
      </trkpt>
      <trkpt lat="43.56663" lon="5.88735">
        <ele>477.9</ele>
        <time>2024-02-29T13:03:30.999Z</time>
      </trkpt>
      <trkpt lat="43.56661" lon="5.88741">
        <ele>477.9</ele>
        <time>2024-02-29T13:03:35Z</time>
      </trkpt>
      <trkpt lat="43.56659" lon="5.88753">
        <ele>478</ele>
        <time>2024-02-29T13:03:42Z</time>
      </trkpt>
      <trkpt lat="43.56657" lon="5.88765">
        <ele>478.2</ele>
        <time>2024-02-29T13:03:49Z</time>
      </trkpt>
      <trkpt lat="43.56654" lon="5.88772">
        <ele>478.4</ele>
        <time>2024-02-29T13:03:52.999Z</time>
      </trkpt>
      <trkpt lat="43.56651" lon="5.88778">
        <ele>478.6</ele>
        <time>2024-02-29T13:03:57Z</time>
      </trkpt>
      <trkpt lat="43.56648" lon="5.88784">
        <ele>478.7</ele>
        <time>2024-02-29T13:04:00.999Z</time>
      </trkpt>
      <trkpt lat="43.56645" lon="5.8879">
        <ele>478.8</ele>
        <time>2024-02-29T13:04:05Z</time>
      </trkpt>
      <trkpt lat="43.56643" lon="5.88797">
        <ele>478.9</ele>
        <time>2024-02-29T13:04:08.999Z</time>
      </trkpt>
      <trkpt lat="43.5664" lon="5.88803">
        <ele>479</ele>
        <time>2024-02-29T13:04:13Z</time>
      </trkpt>
      <trkpt lat="43.56639" lon="5.88809">
        <ele>478.9</ele>
        <time>2024-02-29T13:04:18.999Z</time>
      </trkpt>
      <trkpt lat="43.56637" lon="5.88815">
        <ele>478.6</ele>
        <time>2024-02-29T13:04:25Z</time>
      </trkpt>
      <trkpt lat="43.56637" lon="5.88822">
        <ele>478.4</ele>
        <time>2024-02-29T13:04:29.000Z</time>
      </trkpt>
      <trkpt lat="43.56637" lon="5.88828">
        <ele>478.2</ele>
        <time>2024-02-29T13:04:33Z</time>
      </trkpt>
      <trkpt lat="43.56638" lon="5.88836">
        <ele>478</ele>
        <time>2024-02-29T13:04:37.000Z</time>
      </trkpt>
      <trkpt lat="43.56639" lon="5.88843">
        <ele>478</ele>
        <time>2024-02-29T13:04:41Z</time>
      </trkpt>
      <trkpt lat="43.5664" lon="5.88851">
        <ele>477.9</ele>
        <time>2024-02-29T13:04:45.000Z</time>
      </trkpt>
      <trkpt lat="43.56641" lon="5.88858">
        <ele>477.9</ele>
        <time>2024-02-29T13:04:49Z</time>
      </trkpt>
      <trkpt lat="43.56643" lon="5.8887">
        <ele>477.4</ele>
        <time>2024-02-29T13:04:57Z</time>
      </trkpt>
      <trkpt lat="43.5664" lon="5.88881">
        <ele>477.2</ele>
        <time>2024-02-29T13:05:05Z</time>
      </trkpt>
      <trkpt lat="43.56639" lon="5.88888">
        <ele>477</ele>
        <time>2024-02-29T13:05:11.150Z</time>
      </trkpt>
      <trkpt lat="43.56637" lon="5.88895">
        <ele>476.8</ele>
        <time>2024-02-29T13:05:17.302Z</time>
      </trkpt>
      <trkpt lat="43.56636" lon="5.88901">
        <ele>476.7</ele>
        <time>2024-02-29T13:05:22.650Z</time>
      </trkpt>
      <trkpt lat="43.56634" lon="5.88907">
        <ele>476.5</ele>
        <time>2024-02-29T13:05:28Z</time>
      </trkpt>
      <trkpt lat="43.56632" lon="5.88915">
        <ele>476.3</ele>
        <time>2024-02-29T13:05:33.499Z</time>
      </trkpt>
      <trkpt lat="43.5663" lon="5.88923">
        <ele>476.1</ele>
        <time>2024-02-29T13:05:39Z</time>
      </trkpt>
      <trkpt lat="43.56628" lon="5.88931">
        <ele>475.9</ele>
        <time>2024-02-29T13:05:43.999Z</time>
      </trkpt>
      <trkpt lat="43.56626" lon="5.88938">
        <ele>475.7</ele>
        <time>2024-02-29T13:05:49Z</time>
      </trkpt>
      <trkpt lat="43.56625" lon="5.88946">
        <ele>475.5</ele>
        <time>2024-02-29T13:05:53.499Z</time>
      </trkpt>
      <trkpt lat="43.56623" lon="5.88953">
        <ele>475.3</ele>
        <time>2024-02-29T13:05:58Z</time>
      </trkpt>
      <trkpt lat="43.56622" lon="5.8896">
        <ele>475.1</ele>
        <time>2024-02-29T13:06:02.499Z</time>
      </trkpt>
      <trkpt lat="43.5662" lon="5.88966">
        <ele>474.9</ele>
        <time>2024-02-29T13:06:07Z</time>
      </trkpt>
      <trkpt lat="43.56619" lon="5.88976">
        <ele>474.6</ele>
        <time>2024-02-29T13:06:11.499Z</time>
      </trkpt>
      <trkpt lat="43.56618" lon="5.88986">
        <ele>474.3</ele>
        <time>2024-02-29T13:06:16Z</time>
      </trkpt>
      <trkpt lat="43.56619" lon="5.88995">
        <ele>473.9</ele>
        <time>2024-02-29T13:06:20.500Z</time>
      </trkpt>
      <trkpt lat="43.5662" lon="5.89003">
        <ele>473.6</ele>
        <time>2024-02-29T13:06:25Z</time>
      </trkpt>
      <trkpt lat="43.56621" lon="5.89012">
        <ele>473.2</ele>
        <time>2024-02-29T13:06:29.500Z</time>
      </trkpt>
      <trkpt lat="43.56622" lon="5.8902">
        <ele>472.9</ele>
        <time>2024-02-29T13:06:34Z</time>
      </trkpt>
      <trkpt lat="43.56626" lon="5.89031">
        <ele>472.5</ele>
        <time>2024-02-29T13:06:43Z</time>
      </trkpt>
      <trkpt lat="43.56629" lon="5.89039">
        <ele>472.4</ele>
        <time>2024-02-29T13:06:48.000Z</time>
      </trkpt>
      <trkpt lat="43.56631" lon="5.89046">
        <ele>472.3</ele>
        <time>2024-02-29T13:06:53Z</time>
      </trkpt>
      <trkpt lat="43.56633" lon="5.89055">
        <ele>472.2</ele>
        <time>2024-02-29T13:06:57.500Z</time>
      </trkpt>
      <trkpt lat="43.56635" lon="5.89063">
        <ele>471.9</ele>
        <time>2024-02-29T13:07:02Z</time>
      </trkpt>
      <trkpt lat="43.56638" lon="5.89071">
        <ele>471.5</ele>
        <time>2024-02-29T13:07:06.000Z</time>
      </trkpt>
      <trkpt lat="43.5664" lon="5.89078">
        <ele>471.2</ele>
        <time>2024-02-29T13:07:10Z</time>
      </trkpt>
      <trkpt lat="43.56641" lon="5.89086">
        <ele>470.9</ele>
        <time>2024-02-29T13:07:14.000Z</time>
      </trkpt>
      <trkpt lat="43.56642" lon="5.89093">
        <ele>470.9</ele>
        <time>2024-02-29T13:07:18Z</time>
      </trkpt>
      <trkpt lat="43.56643" lon="5.891">
        <ele>470.9</ele>
        <time>2024-02-29T13:07:22.000Z</time>
      </trkpt>
      <trkpt lat="43.56643" lon="5.89107">
        <ele>470.9</ele>
        <time>2024-02-29T13:07:26Z</time>
      </trkpt>
      <trkpt lat="43.56643" lon="5.89115">
        <ele>470.7</ele>
        <time>2024-02-29T13:07:31.500Z</time>
      </trkpt>
      <trkpt lat="43.56643" lon="5.89123">
        <ele>470.4</ele>
        <time>2024-02-29T13:07:37Z</time>
      </trkpt>
      <trkpt lat="43.56643" lon="5.89131">
        <ele>470.2</ele>
        <time>2024-02-29T13:07:40.999Z</time>
      </trkpt>
      <trkpt lat="43.56642" lon="5.89139">
        <ele>469.9</ele>
        <time>2024-02-29T13:07:45Z</time>
      </trkpt>
      <trkpt lat="43.56641" lon="5.89145">
        <ele>469.9</ele>
        <time>2024-02-29T13:07:48.999Z</time>
      </trkpt>
      <trkpt lat="43.56639" lon="5.89151">
        <ele>470</ele>
        <time>2024-02-29T13:07:53Z</time>
      </trkpt>
      <trkpt lat="43.56638" lon="5.89158">
        <ele>470</ele>
        <time>2024-02-29T13:07:57.499Z</time>
      </trkpt>
      <trkpt lat="43.56636" lon="5.89165">
        <ele>469.9</ele>
        <time>2024-02-29T13:08:02Z</time>
      </trkpt>
      <trkpt lat="43.56634" lon="5.89173">
        <ele>469.8</ele>
        <time>2024-02-29T13:08:06.499Z</time>
      </trkpt>
      <trkpt lat="43.56632" lon="5.8918">
        <ele>469.6</ele>
        <time>2024-02-29T13:08:11Z</time>
      </trkpt>
      <trkpt lat="43.56631" lon="5.89188">
        <ele>469.5</ele>
        <time>2024-02-29T13:08:14.999Z</time>
      </trkpt>
      <trkpt lat="43.56629" lon="5.89195">
        <ele>469.3</ele>
        <time>2024-02-29T13:08:19Z</time>
      </trkpt>
      <trkpt lat="43.56631" lon="5.89203">
        <ele>469.4</ele>
        <time>2024-02-29T13:08:23.500Z</time>
      </trkpt>
      <trkpt lat="43.56632" lon="5.8921">
        <ele>469.5</ele>
        <time>2024-02-29T13:08:28Z</time>
      </trkpt>
      <trkpt lat="43.56633" lon="5.89218">
        <ele>469.5</ele>
        <time>2024-02-29T13:08:32.000Z</time>
      </trkpt>
      <trkpt lat="43.56633" lon="5.89225">
        <ele>469.5</ele>
        <time>2024-02-29T13:08:36Z</time>
      </trkpt>
      <trkpt lat="43.56632" lon="5.89237">
        <ele>469.2</ele>
        <time>2024-02-29T13:08:44Z</time>
      </trkpt>
      <trkpt lat="43.56631" lon="5.89244">
        <ele>469.1</ele>
        <time>2024-02-29T13:08:47.999Z</time>
      </trkpt>
      <trkpt lat="43.5663" lon="5.89251">
        <ele>469</ele>
        <time>2024-02-29T13:08:52Z</time>
      </trkpt>
      <trkpt lat="43.56629" lon="5.89258">
        <ele>469</ele>
        <time>2024-02-29T13:08:56.499Z</time>
      </trkpt>
      <trkpt lat="43.56628" lon="5.89264">
        <ele>469</ele>
        <time>2024-02-29T13:09:01Z</time>
      </trkpt>
      <trkpt lat="43.56627" lon="5.89271">
        <ele>469</ele>
        <time>2024-02-29T13:09:05.499Z</time>
      </trkpt>
      <trkpt lat="43.56625" lon="5.89277">
        <ele>469</ele>
        <time>2024-02-29T13:09:10Z</time>
      </trkpt>
      <trkpt lat="43.56621" lon="5.89285">
        <ele>469</ele>
        <time>2024-02-29T13:09:14.499Z</time>
      </trkpt>
      <trkpt lat="43.56617" lon="5.89293">
        <ele>469</ele>
        <time>2024-02-29T13:09:19Z</time>
      </trkpt>
      <trkpt lat="43.56616" lon="5.89301">
        <ele>469</ele>
        <time>2024-02-29T13:09:24.499Z</time>
      </trkpt>
      <trkpt lat="43.56615" lon="5.89309">
        <ele>469</ele>
        <time>2024-02-29T13:09:30Z</time>
      </trkpt>
      <trkpt lat="43.56613" lon="5.89317">
        <ele>469</ele>
        <time>2024-02-29T13:09:35.499Z</time>
      </trkpt>
      <trkpt lat="43.5661" lon="5.89325">
        <ele>468.9</ele>
        <time>2024-02-29T13:09:41Z</time>
      </trkpt>
      <trkpt lat="43.56607" lon="5.89334">
        <ele>468.7</ele>
        <time>2024-02-29T13:09:51.999Z</time>
      </trkpt>
      <trkpt lat="43.56604" lon="5.89342">
        <ele>468.5</ele>
        <time>2024-02-29T13:10:03Z</time>
      </trkpt>
      <trkpt lat="43.56604" lon="5.8935">
        <ele>468.5</ele>
        <time>2024-02-29T13:10:08.000Z</time>
      </trkpt>
      <trkpt lat="43.56604" lon="5.89357">
        <ele>468.5</ele>
        <time>2024-02-29T13:10:13Z</time>
      </trkpt>
      <trkpt lat="43.56603" lon="5.89365">
        <ele>468.4</ele>
        <time>2024-02-29T13:10:16.999Z</time>
      </trkpt>
      <trkpt lat="43.56602" lon="5.89373">
        <ele>468.3</ele>
        <time>2024-02-29T13:10:21Z</time>
      </trkpt>
      <trkpt lat="43.56599" lon="5.89379">
        <ele>468.1</ele>
        <time>2024-02-29T13:10:24.999Z</time>
      </trkpt>
      <trkpt lat="43.56595" lon="5.89384">
        <ele>467.8</ele>
        <time>2024-02-29T13:10:29Z</time>
      </trkpt>
      <trkpt lat="43.56592" lon="5.8939">
        <ele>467.6</ele>
        <time>2024-02-29T13:10:33.499Z</time>
      </trkpt>
      <trkpt lat="43.56588" lon="5.89396">
        <ele>467.6</ele>
        <time>2024-02-29T13:10:38Z</time>
      </trkpt>
      <trkpt lat="43.56586" lon="5.89403">
        <ele>467.6</ele>
        <time>2024-02-29T13:10:41.999Z</time>
      </trkpt>
      <trkpt lat="43.56583" lon="5.89409">
        <ele>467.7</ele>
        <time>2024-02-29T13:10:46Z</time>
      </trkpt>
      <trkpt lat="43.56582" lon="5.89416">
        <ele>467.8</ele>
        <time>2024-02-29T13:10:49.999Z</time>
      </trkpt>
      <trkpt lat="43.5658" lon="5.89422">
        <ele>467.6</ele>
        <time>2024-02-29T13:10:54Z</time>
      </trkpt>
      <trkpt lat="43.56579" lon="5.89429">
        <ele>467.5</ele>
        <time>2024-02-29T13:11:00.499Z</time>
      </trkpt>
      <trkpt lat="43.56577" lon="5.89436">
        <ele>467.3</ele>
        <time>2024-02-29T13:11:07Z</time>
      </trkpt>
      <trkpt lat="43.56577" lon="5.89444">
        <ele>467.3</ele>
        <time>2024-02-29T13:11:11.499Z</time>
      </trkpt>
      <trkpt lat="43.56576" lon="5.89452">
        <ele>467.5</ele>
        <time>2024-02-29T13:11:16Z</time>
      </trkpt>
      <trkpt lat="43.56575" lon="5.8946">
        <ele>467.6</ele>
        <time>2024-02-29T13:11:19.999Z</time>
      </trkpt>
      <trkpt lat="43.56573" lon="5.89467">
        <ele>467.7</ele>
        <time>2024-02-29T13:11:24Z</time>
      </trkpt>
      <trkpt lat="43.56572" lon="5.89474">
        <ele>467.7</ele>
        <time>2024-02-29T13:11:27.999Z</time>
      </trkpt>
      <trkpt lat="43.5657" lon="5.8948">
        <ele>467.7</ele>
        <time>2024-02-29T13:11:32Z</time>
      </trkpt>
      <trkpt lat="43.56569" lon="5.89487">
        <ele>467.7</ele>
        <time>2024-02-29T13:11:35.999Z</time>
      </trkpt>
      <trkpt lat="43.56567" lon="5.89494">
        <ele>467.7</ele>
        <time>2024-02-29T13:11:40Z</time>
      </trkpt>
      <trkpt lat="43.56565" lon="5.895">
        <ele>467.7</ele>
        <time>2024-02-29T13:11:43.999Z</time>
      </trkpt>
      <trkpt lat="43.56563" lon="5.89506">
        <ele>467.6</ele>
        <time>2024-02-29T13:11:48Z</time>
      </trkpt>
      <trkpt lat="43.56561" lon="5.89513">
        <ele>467.5</ele>
        <time>2024-02-29T13:11:51.999Z</time>
      </trkpt>
      <trkpt lat="43.56559" lon="5.89519">
        <ele>467.3</ele>
        <time>2024-02-29T13:11:56Z</time>
      </trkpt>
      <trkpt lat="43.56557" lon="5.89525">
        <ele>467.2</ele>
        <time>2024-02-29T13:12:00.499Z</time>
      </trkpt>
      <trkpt lat="43.56555" lon="5.89531">
        <ele>467.1</ele>
        <time>2024-02-29T13:12:05Z</time>
      </trkpt>
      <trkpt lat="43.56554" lon="5.89538">
        <ele>467.3</ele>
        <time>2024-02-29T13:12:09.999Z</time>
      </trkpt>
      <trkpt lat="43.56553" lon="5.89544">
        <ele>467.5</ele>
        <time>2024-02-29T13:12:15Z</time>
      </trkpt>
      <trkpt lat="43.56551" lon="5.89552">
        <ele>467.7</ele>
        <time>2024-02-29T13:12:19.999Z</time>
      </trkpt>
      <trkpt lat="43.56549" lon="5.89559">
        <ele>467.9</ele>
        <time>2024-02-29T13:12:25Z</time>
      </trkpt>
      <trkpt lat="43.56548" lon="5.89566">
        <ele>468</ele>
        <time>2024-02-29T13:12:29.499Z</time>
      </trkpt>
      <trkpt lat="43.56546" lon="5.89572">
        <ele>468</ele>
        <time>2024-02-29T13:12:34Z</time>
      </trkpt>
      <trkpt lat="43.56545" lon="5.89581">
        <ele>468.2</ele>
        <time>2024-02-29T13:12:38.999Z</time>
      </trkpt>
      <trkpt lat="43.56544" lon="5.8959">
        <ele>468.3</ele>
        <time>2024-02-29T13:12:44Z</time>
      </trkpt>
      <trkpt lat="43.56543" lon="5.89596">
        <ele>468.3</ele>
        <time>2024-02-29T13:12:48.999Z</time>
      </trkpt>
      <trkpt lat="43.56541" lon="5.89602">
        <ele>468.3</ele>
        <time>2024-02-29T13:12:54Z</time>
      </trkpt>
      <trkpt lat="43.5654" lon="5.89611">
        <ele>468.4</ele>
        <time>2024-02-29T13:12:58.499Z</time>
      </trkpt>
      <trkpt lat="43.56538" lon="5.89619">
        <ele>468.5</ele>
        <time>2024-02-29T13:13:03Z</time>
      </trkpt>
      <trkpt lat="43.56537" lon="5.89626">
        <ele>468.5</ele>
        <time>2024-02-29T13:13:07.999Z</time>
      </trkpt>
      <trkpt lat="43.56535" lon="5.89632">
        <ele>468.5</ele>
        <time>2024-02-29T13:13:13Z</time>
      </trkpt>
      <trkpt lat="43.56531" lon="5.89643">
        <ele>468.2</ele>
        <time>2024-02-29T13:13:23Z</time>
      </trkpt>
      <trkpt lat="43.5653" lon="5.89651">
        <ele>468.1</ele>
        <time>2024-02-29T13:13:27.499Z</time>
      </trkpt>
      <trkpt lat="43.56528" lon="5.89658">
        <ele>468</ele>
        <time>2024-02-29T13:13:32Z</time>
      </trkpt>
      <trkpt lat="43.56525" lon="5.89666">
        <ele>467.9</ele>
        <time>2024-02-29T13:13:36.499Z</time>
      </trkpt>
      <trkpt lat="43.56522" lon="5.89673">
        <ele>467.8</ele>
        <time>2024-02-29T13:13:41Z</time>
      </trkpt>
      <trkpt lat="43.56519" lon="5.89681">
        <ele>467.7</ele>
        <time>2024-02-29T13:13:50Z</time>
      </trkpt>
      <trkpt lat="43.5652" lon="5.89693">
        <ele>467.7</ele>
        <time>2024-02-29T13:17:25Z</time>
      </trkpt>
      <trkpt lat="43.56522" lon="5.89701">
        <ele>467.6</ele>
        <time>2024-02-29T13:17:38Z</time>
      </trkpt>
      <trkpt lat="43.56524" lon="5.89709">
        <ele>467.4</ele>
        <time>2024-02-29T13:17:44.500Z</time>
      </trkpt>
      <trkpt lat="43.56526" lon="5.89717">
        <ele>467.2</ele>
        <time>2024-02-29T13:17:51Z</time>
      </trkpt>
      <trkpt lat="43.56527" lon="5.89724">
        <ele>467</ele>
        <time>2024-02-29T13:17:56.500Z</time>
      </trkpt>
      <trkpt lat="43.56527" lon="5.8973">
        <ele>467</ele>
        <time>2024-02-29T13:18:02Z</time>
      </trkpt>
      <trkpt lat="43.56527" lon="5.8974">
        <ele>467</ele>
        <time>2024-02-29T13:18:07.500Z</time>
      </trkpt>
      <trkpt lat="43.56527" lon="5.8975">
        <ele>467</ele>
        <time>2024-02-29T13:18:13Z</time>
      </trkpt>
      <trkpt lat="43.5653" lon="5.89758">
        <ele>466.8</ele>
        <time>2024-02-29T13:18:20.000Z</time>
      </trkpt>
      <trkpt lat="43.56532" lon="5.89765">
        <ele>466.6</ele>
        <time>2024-02-29T13:18:27Z</time>
      </trkpt>
      <trkpt lat="43.56536" lon="5.8977">
        <ele>466.6</ele>
        <time>2024-02-29T13:18:32.000Z</time>
      </trkpt>
      <trkpt lat="43.56539" lon="5.89775">
        <ele>466.5</ele>
        <time>2024-02-29T13:18:37Z</time>
      </trkpt>
      <trkpt lat="43.56544" lon="5.8978">
        <ele>466.5</ele>
        <time>2024-02-29T13:18:42.000Z</time>
      </trkpt>
      <trkpt lat="43.56548" lon="5.89785">
        <ele>466.5</ele>
        <time>2024-02-29T13:18:47Z</time>
      </trkpt>
      <trkpt lat="43.56551" lon="5.89791">
        <ele>466.4</ele>
        <time>2024-02-29T13:18:52.000Z</time>
      </trkpt>
      <trkpt lat="43.56554" lon="5.89797">
        <ele>466.3</ele>
        <time>2024-02-29T13:18:57Z</time>
      </trkpt>
      <trkpt lat="43.56559" lon="5.89802">
        <ele>466.2</ele>
        <time>2024-02-29T13:19:02.000Z</time>
      </trkpt>
      <trkpt lat="43.56563" lon="5.89807">
        <ele>466.2</ele>
        <time>2024-02-29T13:19:07Z</time>
      </trkpt>
      <trkpt lat="43.56568" lon="5.89813">
        <ele>465.8</ele>
        <time>2024-02-29T13:19:11.500Z</time>
      </trkpt>
      <trkpt lat="43.56573" lon="5.89819">
        <ele>465.4</ele>
        <time>2024-02-29T13:19:16Z</time>
      </trkpt>
      <trkpt lat="43.56576" lon="5.89829">
        <ele>464.4</ele>
        <time>2024-02-29T13:19:20.500Z</time>
      </trkpt>
      <trkpt lat="43.56579" lon="5.89839">
        <ele>463.6</ele>
        <time>2024-02-29T13:19:25Z</time>
      </trkpt>
      <trkpt lat="43.56582" lon="5.89846">
        <ele>463.2</ele>
        <time>2024-02-29T13:19:29.000Z</time>
      </trkpt>
      <trkpt lat="43.56584" lon="5.89852">
        <ele>462.7</ele>
        <time>2024-02-29T13:19:33Z</time>
      </trkpt>
      <trkpt lat="43.56586" lon="5.89862">
        <ele>462.1</ele>
        <time>2024-02-29T13:19:41Z</time>
      </trkpt>
      <trkpt lat="43.56589" lon="5.89873">
        <ele>461.8</ele>
        <time>2024-02-29T13:19:50Z</time>
      </trkpt>
      <trkpt lat="43.5659" lon="5.8988">
        <ele>461.5</ele>
        <time>2024-02-29T13:19:54.500Z</time>
      </trkpt>
      <trkpt lat="43.5659" lon="5.89887">
        <ele>461.3</ele>
        <time>2024-02-29T13:19:59Z</time>
      </trkpt>
      <trkpt lat="43.56593" lon="5.89894">
        <ele>461.3</ele>
        <time>2024-02-29T13:20:04.000Z</time>
      </trkpt>
      <trkpt lat="43.56595" lon="5.899">
        <ele>461.3</ele>
        <time>2024-02-29T13:20:09Z</time>
      </trkpt>
      <trkpt lat="43.56598" lon="5.89908">
        <ele>461.2</ele>
        <time>2024-02-29T13:20:13.500Z</time>
      </trkpt>
      <trkpt lat="43.56601" lon="5.89915">
        <ele>461</ele>
        <time>2024-02-29T13:20:18Z</time>
      </trkpt>
      <trkpt lat="43.56602" lon="5.89922">
        <ele>460.8</ele>
        <time>2024-02-29T13:20:22.500Z</time>
      </trkpt>
      <trkpt lat="43.56602" lon="5.89928">
        <ele>460.6</ele>
        <time>2024-02-29T13:20:27Z</time>
      </trkpt>
      <trkpt lat="43.56604" lon="5.89935">
        <ele>460.4</ele>
        <time>2024-02-29T13:20:31.500Z</time>
      </trkpt>
      <trkpt lat="43.56606" lon="5.89941">
        <ele>460.1</ele>
        <time>2024-02-29T13:20:36Z</time>
      </trkpt>
      <trkpt lat="43.56608" lon="5.89948">
        <ele>459.8</ele>
        <time>2024-02-29T13:20:40.500Z</time>
      </trkpt>
      <trkpt lat="43.56609" lon="5.89955">
        <ele>459.3</ele>
        <time>2024-02-29T13:20:45Z</time>
      </trkpt>
      <trkpt lat="43.56612" lon="5.89963">
        <ele>458.7</ele>
        <time>2024-02-29T13:20:49.500Z</time>
      </trkpt>
      <trkpt lat="43.56615" lon="5.8997">
        <ele>458.1</ele>
        <time>2024-02-29T13:20:54Z</time>
      </trkpt>
      <trkpt lat="43.56618" lon="5.89976">
        <ele>457.9</ele>
        <time>2024-02-29T13:20:58.500Z</time>
      </trkpt>
      <trkpt lat="43.56621" lon="5.89981">
        <ele>457.6</ele>
        <time>2024-02-29T13:21:03Z</time>
      </trkpt>
      <trkpt lat="43.56626" lon="5.89986">
        <ele>457.2</ele>
        <time>2024-02-29T13:21:07.000Z</time>
      </trkpt>
      <trkpt lat="43.5663" lon="5.89991">
        <ele>456.9</ele>
        <time>2024-02-29T13:21:11Z</time>
      </trkpt>
      <trkpt lat="43.56637" lon="5.89998">
        <ele>456.2</ele>
        <time>2024-02-29T13:21:20Z</time>
      </trkpt>
      <trkpt lat="43.56645" lon="5.90003">
        <ele>455.7</ele>
        <time>2024-02-29T13:21:30Z</time>
      </trkpt>
      <trkpt lat="43.56652" lon="5.90005">
        <ele>455.3</ele>
        <time>2024-02-29T13:21:55Z</time>
      </trkpt>
      <trkpt lat="43.56657" lon="5.90004">
        <ele>455.2</ele>
        <time>2024-02-29T13:22:02.000Z</time>
      </trkpt>
      <trkpt lat="43.56662" lon="5.90003">
        <ele>455.1</ele>
        <time>2024-02-29T13:22:09Z</time>
      </trkpt>
      <trkpt lat="43.56667" lon="5.9">
        <ele>455</ele>
        <time>2024-02-29T13:22:15.000Z</time>
      </trkpt>
      <trkpt lat="43.56672" lon="5.89996">
        <ele>454.6</ele>
        <time>2024-02-29T13:22:21Z</time>
      </trkpt>
      <trkpt lat="43.56678" lon="5.89994">
        <ele>454</ele>
        <time>2024-02-29T13:22:26.000Z</time>
      </trkpt>
      <trkpt lat="43.56683" lon="5.89992">
        <ele>453.5</ele>
        <time>2024-02-29T13:22:31Z</time>
      </trkpt>
      <trkpt lat="43.56688" lon="5.89991">
        <ele>453</ele>
        <time>2024-02-29T13:22:35.500Z</time>
      </trkpt>
      <trkpt lat="43.56693" lon="5.89989">
        <ele>452.6</ele>
        <time>2024-02-29T13:22:40Z</time>
      </trkpt>
      <trkpt lat="43.56698" lon="5.89987">
        <ele>452.1</ele>
        <time>2024-02-29T13:22:45.000Z</time>
      </trkpt>
      <trkpt lat="43.56703" lon="5.89985">
        <ele>451.6</ele>
        <time>2024-02-29T13:22:50Z</time>
      </trkpt>
      <trkpt lat="43.56709" lon="5.89983">
        <ele>451</ele>
        <time>2024-02-29T13:22:55.500Z</time>
      </trkpt>
      <trkpt lat="43.56715" lon="5.89981">
        <ele>450.5</ele>
        <time>2024-02-29T13:23:01Z</time>
      </trkpt>
      <trkpt lat="43.56721" lon="5.89979">
        <ele>449.9</ele>
        <time>2024-02-29T13:23:07.000Z</time>
      </trkpt>
      <trkpt lat="43.56726" lon="5.89977">
        <ele>450</ele>
        <time>2024-02-29T13:23:13Z</time>
      </trkpt>
      <trkpt lat="43.56732" lon="5.89976">
        <ele>450.3</ele>
        <time>2024-02-29T13:23:18.500Z</time>
      </trkpt>
      <trkpt lat="43.56737" lon="5.89974">
        <ele>450.5</ele>
        <time>2024-02-29T13:23:24Z</time>
      </trkpt>
      <trkpt lat="43.56741" lon="5.8997">
        <ele>450.7</ele>
        <time>2024-02-29T13:23:29.500Z</time>
      </trkpt>
      <trkpt lat="43.56745" lon="5.89965">
        <ele>450.8</ele>
        <time>2024-02-29T13:23:35Z</time>
      </trkpt>
      <trkpt lat="43.56751" lon="5.8996">
        <ele>451.1</ele>
        <time>2024-02-29T13:23:41.000Z</time>
      </trkpt>
      <trkpt lat="43.56757" lon="5.89954">
        <ele>451.8</ele>
        <time>2024-02-29T13:23:47Z</time>
      </trkpt>
      <trkpt lat="43.56761" lon="5.8995">
        <ele>452.3</ele>
        <time>2024-02-29T13:23:52.500Z</time>
      </trkpt>
      <trkpt lat="43.56765" lon="5.89946">
        <ele>452.7</ele>
        <time>2024-02-29T13:23:58Z</time>
      </trkpt>
      <trkpt lat="43.56769" lon="5.89941">
        <ele>453.1</ele>
        <time>2024-02-29T13:24:03.000Z</time>
      </trkpt>
      <trkpt lat="43.56773" lon="5.89936">
        <ele>453.5</ele>
        <time>2024-02-29T13:24:08Z</time>
      </trkpt>
      <trkpt lat="43.56777" lon="5.8993">
        <ele>453.9</ele>
        <time>2024-02-29T13:24:13.000Z</time>
      </trkpt>
      <trkpt lat="43.5678" lon="5.89924">
        <ele>454.3</ele>
        <time>2024-02-29T13:24:18Z</time>
      </trkpt>
      <trkpt lat="43.56788" lon="5.8992">
        <ele>455.1</ele>
        <time>2024-02-29T13:24:29Z</time>
      </trkpt>
      <trkpt lat="43.56794" lon="5.89917">
        <ele>455.7</ele>
        <time>2024-02-29T13:24:35.000Z</time>
      </trkpt>
      <trkpt lat="43.56799" lon="5.89913">
        <ele>456.2</ele>
        <time>2024-02-29T13:24:41Z</time>
      </trkpt>
      <trkpt lat="43.56804" lon="5.89909">
        <ele>456.5</ele>
        <time>2024-02-29T13:24:46.500Z</time>
      </trkpt>
      <trkpt lat="43.56808" lon="5.89905">
        <ele>457</ele>
        <time>2024-02-29T13:24:52Z</time>
      </trkpt>
      <trkpt lat="43.56812" lon="5.89902">
        <ele>457.5</ele>
        <time>2024-02-29T13:24:57.500Z</time>
      </trkpt>
      <trkpt lat="43.56816" lon="5.89899">
        <ele>458</ele>
        <time>2024-02-29T13:25:03Z</time>
      </trkpt>
      <trkpt lat="43.5682" lon="5.89895">
        <ele>458.4</ele>
        <time>2024-02-29T13:25:08.500Z</time>
      </trkpt>
      <trkpt lat="43.56824" lon="5.8989">
        <ele>458.7</ele>
        <time>2024-02-29T13:25:14Z</time>
      </trkpt>
      <trkpt lat="43.56829" lon="5.89887">
        <ele>459.3</ele>
        <time>2024-02-29T13:25:20.000Z</time>
      </trkpt>
      <trkpt lat="43.56833" lon="5.89883">
        <ele>460</ele>
        <time>2024-02-29T13:25:26Z</time>
      </trkpt>
      <trkpt lat="43.56838" lon="5.89879">
        <ele>460.7</ele>
        <time>2024-02-29T13:25:31.500Z</time>
      </trkpt>
      <trkpt lat="43.56843" lon="5.89874">
        <ele>461.4</ele>
        <time>2024-02-29T13:25:37Z</time>
      </trkpt>
      <trkpt lat="43.56847" lon="5.89869">
        <ele>461.9</ele>
        <time>2024-02-29T13:25:43.000Z</time>
      </trkpt>
      <trkpt lat="43.5685" lon="5.89863">
        <ele>462.4</ele>
        <time>2024-02-29T13:25:49Z</time>
      </trkpt>
      <trkpt lat="43.56855" lon="5.89859">
        <ele>463</ele>
        <time>2024-02-29T13:25:55.500Z</time>
      </trkpt>
      <trkpt lat="43.56859" lon="5.89855">
        <ele>463.7</ele>
        <time>2024-02-29T13:26:02Z</time>
      </trkpt>
      <trkpt lat="43.56864" lon="5.89852">
        <ele>464.4</ele>
        <time>2024-02-29T13:26:08.500Z</time>
      </trkpt>
      <trkpt lat="43.56869" lon="5.89848">
        <ele>465.1</ele>
        <time>2024-02-29T13:26:15Z</time>
      </trkpt>
      <trkpt lat="43.56874" lon="5.89844">
        <ele>465.9</ele>
        <time>2024-02-29T13:26:21.000Z</time>
      </trkpt>
      <trkpt lat="43.56879" lon="5.8984">
        <ele>466.6</ele>
        <time>2024-02-29T13:26:27Z</time>
      </trkpt>
      <trkpt lat="43.56884" lon="5.89837">
        <ele>467.2</ele>
        <time>2024-02-29T13:26:32.500Z</time>
      </trkpt>
      <trkpt lat="43.56888" lon="5.89834">
        <ele>467.9</ele>
        <time>2024-02-29T13:26:38Z</time>
      </trkpt>
      <trkpt lat="43.56893" lon="5.89833">
        <ele>468.4</ele>
        <time>2024-02-29T13:26:43.500Z</time>
      </trkpt>
      <trkpt lat="43.56898" lon="5.89831">
        <ele>468.9</ele>
        <time>2024-02-29T13:26:49Z</time>
      </trkpt>
      <trkpt lat="43.56905" lon="5.89829">
        <ele>469.7</ele>
        <time>2024-02-29T13:27:01Z</time>
      </trkpt>
      <trkpt lat="43.56912" lon="5.89825">
        <ele>470.4</ele>
        <time>2024-02-29T13:27:16Z</time>
      </trkpt>
      <trkpt lat="43.5692" lon="5.89823">
        <ele>471.4</ele>
        <time>2024-02-29T13:32:12Z</time>
      </trkpt>
      <trkpt lat="43.56924" lon="5.89819">
        <ele>471.8</ele>
        <time>2024-02-29T13:32:19.000Z</time>
      </trkpt>
      <trkpt lat="43.56928" lon="5.89815">
        <ele>472.2</ele>
        <time>2024-02-29T13:32:26Z</time>
      </trkpt>
      <trkpt lat="43.56933" lon="5.89813">
        <ele>472.8</ele>
        <time>2024-02-29T13:32:32.500Z</time>
      </trkpt>
      <trkpt lat="43.56938" lon="5.8981">
        <ele>473.3</ele>
        <time>2024-02-29T13:32:39Z</time>
      </trkpt>
      <trkpt lat="43.56945" lon="5.89809">
        <ele>474</ele>
        <time>2024-02-29T13:32:44.500Z</time>
      </trkpt>
      <trkpt lat="43.56951" lon="5.89807">
        <ele>474.5</ele>
        <time>2024-02-29T13:32:50Z</time>
      </trkpt>
      <trkpt lat="43.56956" lon="5.89802">
        <ele>474.8</ele>
        <time>2024-02-29T13:32:55.500Z</time>
      </trkpt>
      <trkpt lat="43.5696" lon="5.89797">
        <ele>475.3</ele>
        <time>2024-02-29T13:33:01Z</time>
      </trkpt>
      <trkpt lat="43.56964" lon="5.89793">
        <ele>475.7</ele>
        <time>2024-02-29T13:33:06.500Z</time>
      </trkpt>
      <trkpt lat="43.56968" lon="5.89788">
        <ele>476.2</ele>
        <time>2024-02-29T13:33:12Z</time>
      </trkpt>
      <trkpt lat="43.56973" lon="5.89785">
        <ele>476.8</ele>
        <time>2024-02-29T13:33:18.000Z</time>
      </trkpt>
      <trkpt lat="43.56978" lon="5.89781">
        <ele>477.5</ele>
        <time>2024-02-29T13:33:24Z</time>
      </trkpt>
      <trkpt lat="43.56984" lon="5.89781">
        <ele>478.1</ele>
        <time>2024-02-29T13:33:29.500Z</time>
      </trkpt>
      <trkpt lat="43.56989" lon="5.89781">
        <ele>478.6</ele>
        <time>2024-02-29T13:33:35Z</time>
      </trkpt>
      <trkpt lat="43.56995" lon="5.89783">
        <ele>479.1</ele>
        <time>2024-02-29T13:33:41.000Z</time>
      </trkpt>
      <trkpt lat="43.57" lon="5.89784">
        <ele>479.6</ele>
        <time>2024-02-29T13:33:47Z</time>
      </trkpt>
      <trkpt lat="43.57005" lon="5.89785">
        <ele>480.1</ele>
        <time>2024-02-29T13:33:54.000Z</time>
      </trkpt>
      <trkpt lat="43.5701" lon="5.89785">
        <ele>480.7</ele>
        <time>2024-02-29T13:34:01Z</time>
      </trkpt>
      <trkpt lat="43.57016" lon="5.89785">
        <ele>481.4</ele>
        <time>2024-02-29T13:34:07.500Z</time>
      </trkpt>
      <trkpt lat="43.57021" lon="5.89785">
        <ele>482.1</ele>
        <time>2024-02-29T13:34:14Z</time>
      </trkpt>
      <trkpt lat="43.57027" lon="5.89786">
        <ele>482.8</ele>
        <time>2024-02-29T13:34:20.500Z</time>
      </trkpt>
      <trkpt lat="43.57032" lon="5.89787">
        <ele>483.6</ele>
        <time>2024-02-29T13:34:27Z</time>
      </trkpt>
      <trkpt lat="43.57038" lon="5.89787">
        <ele>484.4</ele>
        <time>2024-02-29T13:34:33.000Z</time>
      </trkpt>
      <trkpt lat="43.57043" lon="5.89787">
        <ele>485.2</ele>
        <time>2024-02-29T13:34:39Z</time>
      </trkpt>
      <trkpt lat="43.57048" lon="5.89786">
        <ele>485.8</ele>
        <time>2024-02-29T13:34:45.000Z</time>
      </trkpt>
      <trkpt lat="43.57052" lon="5.89784">
        <ele>486.5</ele>
        <time>2024-02-29T13:34:51Z</time>
      </trkpt>
      <trkpt lat="43.57057" lon="5.89785">
        <ele>487.2</ele>
        <time>2024-02-29T13:34:57.500Z</time>
      </trkpt>
      <trkpt lat="43.57061" lon="5.89785">
        <ele>488</ele>
        <time>2024-02-29T13:35:04Z</time>
      </trkpt>
      <trkpt lat="43.57066" lon="5.89784">
        <ele>488.9</ele>
        <time>2024-02-29T13:35:11.000Z</time>
      </trkpt>
      <trkpt lat="43.57071" lon="5.89783">
        <ele>489.8</ele>
        <time>2024-02-29T13:35:18Z</time>
      </trkpt>
      <trkpt lat="43.57076" lon="5.89784">
        <ele>490.7</ele>
        <time>2024-02-29T13:35:24.500Z</time>
      </trkpt>
      <trkpt lat="43.57081" lon="5.89784">
        <ele>491.6</ele>
        <time>2024-02-29T13:35:31Z</time>
      </trkpt>
      <trkpt lat="43.57089" lon="5.89785">
        <ele>493</ele>
        <time>2024-02-29T13:35:45Z</time>
      </trkpt>
      <trkpt lat="43.57095" lon="5.89787">
        <ele>494</ele>
        <time>2024-02-29T13:35:52.500Z</time>
      </trkpt>
      <trkpt lat="43.571" lon="5.89789">
        <ele>495</ele>
        <time>2024-02-29T13:36:00Z</time>
      </trkpt>
      <trkpt lat="43.57108" lon="5.89789">
        <ele>496.4</ele>
        <time>2024-02-29T13:36:20Z</time>
      </trkpt>
      <trkpt lat="43.57115" lon="5.89795">
        <ele>497.7</ele>
        <time>2024-02-29T13:36:36Z</time>
      </trkpt>
      <trkpt lat="43.5712" lon="5.89798">
        <ele>498.5</ele>
        <time>2024-02-29T13:36:42.500Z</time>
      </trkpt>
      <trkpt lat="43.57124" lon="5.89801">
        <ele>499.3</ele>
        <time>2024-02-29T13:36:49Z</time>
      </trkpt>
      <trkpt lat="43.57129" lon="5.89804">
        <ele>500.2</ele>
        <time>2024-02-29T13:36:56.500Z</time>
      </trkpt>
      <trkpt lat="43.57134" lon="5.89807">
        <ele>501.1</ele>
        <time>2024-02-29T13:37:04Z</time>
      </trkpt>
      <trkpt lat="43.57139" lon="5.8981">
        <ele>502</ele>
        <time>2024-02-29T13:37:12.000Z</time>
      </trkpt>
      <trkpt lat="43.57144" lon="5.89812">
        <ele>502.9</ele>
        <time>2024-02-29T13:37:20Z</time>
      </trkpt>
      <trkpt lat="43.57149" lon="5.89815">
        <ele>503.7</ele>
        <time>2024-02-29T13:37:27.500Z</time>
      </trkpt>
      <trkpt lat="43.57153" lon="5.89817">
        <ele>504.5</ele>
        <time>2024-02-29T13:37:35Z</time>
      </trkpt>
      <trkpt lat="43.57159" lon="5.89821">
        <ele>505.5</ele>
        <time>2024-02-29T13:37:43.000Z</time>
      </trkpt>
      <trkpt lat="43.57164" lon="5.89824">
        <ele>506.5</ele>
        <time>2024-02-29T13:37:51Z</time>
      </trkpt>
      <trkpt lat="43.5717" lon="5.89824">
        <ele>507.6</ele>
        <time>2024-02-29T13:37:58.000Z</time>
      </trkpt>
      <trkpt lat="43.57175" lon="5.89823">
        <ele>508.8</ele>
        <time>2024-02-29T13:38:05Z</time>
      </trkpt>
      <trkpt lat="43.57183" lon="5.89822">
        <ele>510.5</ele>
        <time>2024-02-29T13:38:20Z</time>
      </trkpt>
      <trkpt lat="43.57188" lon="5.89822">
        <ele>511.6</ele>
        <time>2024-02-29T13:38:28.000Z</time>
      </trkpt>
      <trkpt lat="43.57193" lon="5.89822">
        <ele>512.7</ele>
        <time>2024-02-29T13:38:36Z</time>
      </trkpt>
      <trkpt lat="43.57199" lon="5.89825">
        <ele>513.9</ele>
        <time>2024-02-29T13:38:42.500Z</time>
      </trkpt>
      <trkpt lat="43.57205" lon="5.89828">
        <ele>515</ele>
        <time>2024-02-29T13:38:49Z</time>
      </trkpt>
      <trkpt lat="43.5721" lon="5.89831">
        <ele>515.9</ele>
        <time>2024-02-29T13:38:56.500Z</time>
      </trkpt>
      <trkpt lat="43.57215" lon="5.89833">
        <ele>516.7</ele>
        <time>2024-02-29T13:39:04Z</time>
      </trkpt>
      <trkpt lat="43.57222" lon="5.89828">
        <ele>518.2</ele>
        <time>2024-02-29T13:39:18Z</time>
      </trkpt>
      <trkpt lat="43.57227" lon="5.89826">
        <ele>519</ele>
        <time>2024-02-29T13:39:25.000Z</time>
      </trkpt>
      <trkpt lat="43.57231" lon="5.89823">
        <ele>519.7</ele>
        <time>2024-02-29T13:39:32Z</time>
      </trkpt>
      <trkpt lat="43.57237" lon="5.89819">
        <ele>520.6</ele>
        <time>2024-02-29T13:39:39.000Z</time>
      </trkpt>
      <trkpt lat="43.57242" lon="5.89815">
        <ele>521.3</ele>
        <time>2024-02-29T13:39:46Z</time>
      </trkpt>
      <trkpt lat="43.57247" lon="5.89816">
        <ele>522</ele>
        <time>2024-02-29T13:39:57Z</time>
      </trkpt>
      <trkpt lat="43.57252" lon="5.89821">
        <ele>522.7</ele>
        <time>2024-02-29T13:40:03.500Z</time>
      </trkpt>
      <trkpt lat="43.57257" lon="5.89825">
        <ele>523.3</ele>
        <time>2024-02-29T13:40:10Z</time>
      </trkpt>
      <trkpt lat="43.57262" lon="5.89827">
        <ele>523.7</ele>
        <time>2024-02-29T13:40:15.000Z</time>
      </trkpt>
      <trkpt lat="43.57267" lon="5.89829">
        <ele>524.2</ele>
        <time>2024-02-29T13:40:20Z</time>
      </trkpt>
      <trkpt lat="43.57272" lon="5.8983">
        <ele>524.5</ele>
        <time>2024-02-29T13:40:26.000Z</time>
      </trkpt>
      <trkpt lat="43.57276" lon="5.89831">
        <ele>524.9</ele>
        <time>2024-02-29T13:40:32Z</time>
      </trkpt>
      <trkpt lat="43.57281" lon="5.89833">
        <ele>524.8</ele>
        <time>2024-02-29T13:40:40.000Z</time>
      </trkpt>
      <trkpt lat="43.57286" lon="5.89834">
        <ele>524.4</ele>
        <time>2024-02-29T13:40:48Z</time>
      </trkpt>
      <trkpt lat="43.57291" lon="5.89834">
        <ele>524.1</ele>
        <time>2024-02-29T13:40:53.500Z</time>
      </trkpt>
      <trkpt lat="43.57295" lon="5.89833">
        <ele>523.8</ele>
        <time>2024-02-29T13:40:59Z</time>
      </trkpt>
      <trkpt lat="43.573" lon="5.89829">
        <ele>523.9</ele>
        <time>2024-02-29T13:41:04.000Z</time>
      </trkpt>
      <trkpt lat="43.57305" lon="5.89825">
        <ele>524.2</ele>
        <time>2024-02-29T13:41:09Z</time>
      </trkpt>
      <trkpt lat="43.5731" lon="5.89822">
        <ele>524</ele>
        <time>2024-02-29T13:41:14.000Z</time>
      </trkpt>
      <trkpt lat="43.57314" lon="5.89819">
        <ele>523.7</ele>
        <time>2024-02-29T13:41:19Z</time>
      </trkpt>
      <trkpt lat="43.57319" lon="5.89815">
        <ele>523.4</ele>
        <time>2024-02-29T13:41:23.500Z</time>
      </trkpt>
      <trkpt lat="43.57324" lon="5.89811">
        <ele>523</ele>
        <time>2024-02-29T13:41:28Z</time>
      </trkpt>
      <trkpt lat="43.57328" lon="5.89807">
        <ele>522.9</ele>
        <time>2024-02-29T13:41:32.500Z</time>
      </trkpt>
      <trkpt lat="43.57331" lon="5.89803">
        <ele>522.7</ele>
        <time>2024-02-29T13:41:37Z</time>
      </trkpt>
      <trkpt lat="43.57336" lon="5.89798">
        <ele>522.4</ele>
        <time>2024-02-29T13:41:41.000Z</time>
      </trkpt>
      <trkpt lat="43.5734" lon="5.89793">
        <ele>522.2</ele>
        <time>2024-02-29T13:41:45Z</time>
      </trkpt>
      <trkpt lat="43.57344" lon="5.89789">
        <ele>522</ele>
        <time>2024-02-29T13:41:49.000Z</time>
      </trkpt>
      <trkpt lat="43.57347" lon="5.89784">
        <ele>521.9</ele>
        <time>2024-02-29T13:41:53Z</time>
      </trkpt>
      <trkpt lat="43.57351" lon="5.89779">
        <ele>521.8</ele>
        <time>2024-02-29T13:41:57.000Z</time>
      </trkpt>
      <trkpt lat="43.57354" lon="5.89773">
        <ele>521.8</ele>
        <time>2024-02-29T13:42:01Z</time>
      </trkpt>
      <trkpt lat="43.57358" lon="5.8977">
        <ele>521.4</ele>
        <time>2024-02-29T13:42:05.000Z</time>
      </trkpt>
      <trkpt lat="43.57362" lon="5.89766">
        <ele>521.1</ele>
        <time>2024-02-29T13:42:09Z</time>
      </trkpt>
      <trkpt lat="43.57366" lon="5.89762">
        <ele>520.8</ele>
        <time>2024-02-29T13:42:13.500Z</time>
      </trkpt>
      <trkpt lat="43.5737" lon="5.89757">
        <ele>520.6</ele>
        <time>2024-02-29T13:42:18Z</time>
      </trkpt>
      <trkpt lat="43.57375" lon="5.89753">
        <ele>520.2</ele>
        <time>2024-02-29T13:42:22.000Z</time>
      </trkpt>
      <trkpt lat="43.57379" lon="5.89749">
        <ele>519.9</ele>
        <time>2024-02-29T13:42:26Z</time>
      </trkpt>
      <trkpt lat="43.57383" lon="5.89744">
        <ele>519.7</ele>
        <time>2024-02-29T13:42:30.500Z</time>
      </trkpt>
      <trkpt lat="43.57386" lon="5.89739">
        <ele>519.7</ele>
        <time>2024-02-29T13:42:35Z</time>
      </trkpt>
      <trkpt lat="43.5739" lon="5.89735">
        <ele>519.3</ele>
        <time>2024-02-29T13:42:39.500Z</time>
      </trkpt>
      <trkpt lat="43.57394" lon="5.89731">
        <ele>518.6</ele>
        <time>2024-02-29T13:42:44Z</time>
      </trkpt>
      <trkpt lat="43.57398" lon="5.89727">
        <ele>517.9</ele>
        <time>2024-02-29T13:42:48.500Z</time>
      </trkpt>
      <trkpt lat="43.57402" lon="5.89722">
        <ele>517.2</ele>
        <time>2024-02-29T13:42:53Z</time>
      </trkpt>
      <trkpt lat="43.57405" lon="5.89716">
        <ele>516.9</ele>
        <time>2024-02-29T13:42:57.000Z</time>
      </trkpt>
      <trkpt lat="43.57407" lon="5.89709">
        <ele>516.6</ele>
        <time>2024-02-29T13:43:01Z</time>
      </trkpt>
      <trkpt lat="43.5741" lon="5.89703">
        <ele>516.3</ele>
        <time>2024-02-29T13:43:05.500Z</time>
      </trkpt>
      <trkpt lat="43.57412" lon="5.89696">
        <ele>516.1</ele>
        <time>2024-02-29T13:43:10Z</time>
      </trkpt>
      <trkpt lat="43.57416" lon="5.89689">
        <ele>515.9</ele>
        <time>2024-02-29T13:43:15.500Z</time>
      </trkpt>
      <trkpt lat="43.57419" lon="5.89682">
        <ele>515.8</ele>
        <time>2024-02-29T13:43:21Z</time>
      </trkpt>
      <trkpt lat="43.57423" lon="5.89676">
        <ele>515.6</ele>
        <time>2024-02-29T13:43:26.000Z</time>
      </trkpt>
      <trkpt lat="43.57427" lon="5.89669">
        <ele>515.2</ele>
        <time>2024-02-29T13:43:31Z</time>
      </trkpt>
      <trkpt lat="43.5743" lon="5.89664">
        <ele>514.9</ele>
        <time>2024-02-29T13:43:35.500Z</time>
      </trkpt>
      <trkpt lat="43.57433" lon="5.89658">
        <ele>514.5</ele>
        <time>2024-02-29T13:43:40Z</time>
      </trkpt>
      <trkpt lat="43.57438" lon="5.89655">
        <ele>513.5</ele>
        <time>2024-02-29T13:43:45.000Z</time>
      </trkpt>
      <trkpt lat="43.57443" lon="5.89652">
        <ele>512.4</ele>
        <time>2024-02-29T13:43:50Z</time>
      </trkpt>
      <trkpt lat="43.57449" lon="5.89651">
        <ele>511.9</ele>
        <time>2024-02-29T13:43:55.000Z</time>
      </trkpt>
      <trkpt lat="43.57454" lon="5.89649">
        <ele>511.6</ele>
        <time>2024-02-29T13:44:00Z</time>
      </trkpt>
      <trkpt lat="43.5746" lon="5.89648">
        <ele>511.3</ele>
        <time>2024-02-29T13:44:05.000Z</time>
      </trkpt>
      <trkpt lat="43.57465" lon="5.89647">
        <ele>510.9</ele>
        <time>2024-02-29T13:44:10Z</time>
      </trkpt>
      <trkpt lat="43.5747" lon="5.89644">
        <ele>510.9</ele>
        <time>2024-02-29T13:44:16.000Z</time>
      </trkpt>
      <trkpt lat="43.57474" lon="5.8964">
        <ele>511</ele>
        <time>2024-02-29T13:44:22Z</time>
      </trkpt>
      <trkpt lat="43.57479" lon="5.89641">
        <ele>511.1</ele>
        <time>2024-02-29T13:44:43.057Z</time>
      </trkpt>
      <trkpt lat="43.57481" lon="5.89635">
        <ele>511.4</ele>
        <time>2024-02-29T13:45:03Z</time>
      </trkpt>
      <trkpt lat="43.57484" lon="5.89636">
        <ele>511.5</ele>
        <time>2024-02-29T13:46:19Z</time>
      </trkpt>
      <trkpt lat="43.57484" lon="5.89637">
        <ele>511.5</ele>
        <time>2024-02-29T13:47:03Z</time>
      </trkpt>
      <trkpt lat="43.57489" lon="5.89641">
        <ele>511.5</ele>
        <time>2024-02-29T13:47:09.500Z</time>
      </trkpt>
      <trkpt lat="43.57494" lon="5.89645">
        <ele>511.5</ele>
        <time>2024-02-29T13:47:16Z</time>
      </trkpt>
      <trkpt lat="43.575" lon="5.89647">
        <ele>511.7</ele>
        <time>2024-02-29T13:47:38Z</time>
      </trkpt>
      <trkpt lat="43.57506" lon="5.89648">
        <ele>512.1</ele>
        <time>2024-02-29T13:47:43.500Z</time>
      </trkpt>
      <trkpt lat="43.57511" lon="5.89648">
        <ele>512.6</ele>
        <time>2024-02-29T13:47:49Z</time>
      </trkpt>
      <trkpt lat="43.57516" lon="5.89649">
        <ele>513</ele>
        <time>2024-02-29T13:47:53.500Z</time>
      </trkpt>
      <trkpt lat="43.5752" lon="5.89649">
        <ele>513.3</ele>
        <time>2024-02-29T13:47:58Z</time>
      </trkpt>
      <trkpt lat="43.57525" lon="5.8965">
        <ele>513.7</ele>
        <time>2024-02-29T13:48:04.000Z</time>
      </trkpt>
      <trkpt lat="43.57529" lon="5.89651">
        <ele>514.2</ele>
        <time>2024-02-29T13:48:10Z</time>
      </trkpt>
      <trkpt lat="43.57535" lon="5.89651">
        <ele>514.8</ele>
        <time>2024-02-29T13:48:15.500Z</time>
      </trkpt>
      <trkpt lat="43.5754" lon="5.89651">
        <ele>515.5</ele>
        <time>2024-02-29T13:48:21Z</time>
      </trkpt>
      <trkpt lat="43.57546" lon="5.89652">
        <ele>516.3</ele>
        <time>2024-02-29T13:48:27.000Z</time>
      </trkpt>
      <trkpt lat="43.57552" lon="5.89652">
        <ele>517</ele>
        <time>2024-02-29T13:48:33Z</time>
      </trkpt>
      <trkpt lat="43.57557" lon="5.8965">
        <ele>517.6</ele>
        <time>2024-02-29T13:48:39.000Z</time>
      </trkpt>
      <trkpt lat="43.57562" lon="5.89647">
        <ele>518.5</ele>
        <time>2024-02-29T13:48:45Z</time>
      </trkpt>
      <trkpt lat="43.57566" lon="5.89642">
        <ele>519</ele>
        <time>2024-02-29T13:48:51.500Z</time>
      </trkpt>
      <trkpt lat="43.5757" lon="5.89636">
        <ele>519.6</ele>
        <time>2024-02-29T13:48:58Z</time>
      </trkpt>
      <trkpt lat="43.57574" lon="5.89632">
        <ele>520.3</ele>
        <time>2024-02-29T13:49:06.500Z</time>
      </trkpt>
      <trkpt lat="43.57578" lon="5.89628">
        <ele>521</ele>
        <time>2024-02-29T13:49:15Z</time>
      </trkpt>
      <trkpt lat="43.57584" lon="5.89625">
        <ele>522.2</ele>
        <time>2024-02-29T13:49:23.142Z</time>
      </trkpt>
      <trkpt lat="43.57592" lon="5.89621">
        <ele>524</ele>
        <time>2024-02-29T13:49:34Z</time>
      </trkpt>
      <trkpt lat="43.57597" lon="5.89619">
        <ele>525</ele>
        <time>2024-02-29T13:49:44.000Z</time>
      </trkpt>
      <trkpt lat="43.57601" lon="5.89617">
        <ele>526</ele>
        <time>2024-02-29T13:49:54Z</time>
      </trkpt>
      <trkpt lat="43.57607" lon="5.89612">
        <ele>527.1</ele>
        <time>2024-02-29T13:50:12Z</time>
      </trkpt>
      <trkpt lat="43.57612" lon="5.89609">
        <ele>528.1</ele>
        <time>2024-02-29T13:50:20.500Z</time>
      </trkpt>
      <trkpt lat="43.57616" lon="5.89605">
        <ele>529</ele>
        <time>2024-02-29T13:50:29Z</time>
      </trkpt>
      <trkpt lat="43.57621" lon="5.89603">
        <ele>529.9</ele>
        <time>2024-02-29T13:50:37.000Z</time>
      </trkpt>
      <trkpt lat="43.57625" lon="5.896">
        <ele>530.8</ele>
        <time>2024-02-29T13:50:45Z</time>
      </trkpt>
      <trkpt lat="43.57629" lon="5.89595">
        <ele>531.5</ele>
        <time>2024-02-29T13:50:54.000Z</time>
      </trkpt>
      <trkpt lat="43.57633" lon="5.8959">
        <ele>532.1</ele>
        <time>2024-02-29T13:51:03Z</time>
      </trkpt>
      <trkpt lat="43.57637" lon="5.89587">
        <ele>532.8</ele>
        <time>2024-02-29T13:51:13.500Z</time>
      </trkpt>
      <trkpt lat="43.57641" lon="5.89584">
        <ele>533.5</ele>
        <time>2024-02-29T13:51:24Z</time>
      </trkpt>
      <trkpt lat="43.57649" lon="5.89581">
        <ele>535.2</ele>
        <time>2024-02-29T13:51:50Z</time>
      </trkpt>
      <trkpt lat="43.57654" lon="5.89579">
        <ele>536.2</ele>
        <time>2024-02-29T13:51:57.000Z</time>
      </trkpt>
      <trkpt lat="43.57659" lon="5.89577">
        <ele>537.2</ele>
        <time>2024-02-29T13:52:04Z</time>
      </trkpt>
      <trkpt lat="43.57665" lon="5.89577">
        <ele>538.3</ele>
        <time>2024-02-29T13:52:11.500Z</time>
      </trkpt>
      <trkpt lat="43.5767" lon="5.89577">
        <ele>539.4</ele>
        <time>2024-02-29T13:52:19Z</time>
      </trkpt>
      <trkpt lat="43.57675" lon="5.89577">
        <ele>540.3</ele>
        <time>2024-02-29T13:52:29.802Z</time>
      </trkpt>
      <trkpt lat="43.57678" lon="5.89575">
        <ele>540.7</ele>
        <time>2024-02-29T13:52:37Z</time>
      </trkpt>
      <trkpt lat="43.57685" lon="5.89575">
        <ele>541.9</ele>
        <time>2024-02-29T13:52:45.000Z</time>
      </trkpt>
      <trkpt lat="43.57691" lon="5.89574">
        <ele>543</ele>
        <time>2024-02-29T13:52:53Z</time>
      </trkpt>
      <trkpt lat="43.57696" lon="5.89584">
        <ele>544.2</ele>
        <time>2024-02-29T13:53:06Z</time>
      </trkpt>
      <trkpt lat="43.57698" lon="5.8959">
        <ele>544.7</ele>
        <time>2024-02-29T13:53:12.500Z</time>
      </trkpt>
      <trkpt lat="43.57699" lon="5.89596">
        <ele>545.2</ele>
        <time>2024-02-29T13:53:19Z</time>
      </trkpt>
      <trkpt lat="43.57702" lon="5.89602">
        <ele>545.9</ele>
        <time>2024-02-29T13:53:26.000Z</time>
      </trkpt>
      <trkpt lat="43.57705" lon="5.89608">
        <ele>546.7</ele>
        <time>2024-02-29T13:53:33Z</time>
      </trkpt>
      <trkpt lat="43.5771" lon="5.89611">
        <ele>547.7</ele>
        <time>2024-02-29T13:53:40.000Z</time>
      </trkpt>
      <trkpt lat="43.57714" lon="5.89614">
        <ele>548.6</ele>
        <time>2024-02-29T13:53:47Z</time>
      </trkpt>
      <trkpt lat="43.57721" lon="5.8961">
        <ele>549.7</ele>
        <time>2024-02-29T13:54:03Z</time>
      </trkpt>
      <trkpt lat="43.57727" lon="5.89602">
        <ele>549.8</ele>
        <time>2024-02-29T13:54:16Z</time>
      </trkpt>
      <trkpt lat="43.57731" lon="5.89596">
        <ele>549.8</ele>
        <time>2024-02-29T13:54:22.500Z</time>
      </trkpt>
      <trkpt lat="43.57734" lon="5.8959">
        <ele>550</ele>
        <time>2024-02-29T13:54:29Z</time>
      </trkpt>
      <trkpt lat="43.57739" lon="5.89586">
        <ele>550.4</ele>
        <time>2024-02-29T13:54:35.000Z</time>
      </trkpt>
      <trkpt lat="43.57743" lon="5.89581">
        <ele>550.8</ele>
        <time>2024-02-29T13:54:41Z</time>
      </trkpt>
      <trkpt lat="43.57748" lon="5.89578">
        <ele>551.3</ele>
        <time>2024-02-29T13:54:47.000Z</time>
      </trkpt>
      <trkpt lat="43.57753" lon="5.89574">
        <ele>551.6</ele>
        <time>2024-02-29T13:54:53Z</time>
      </trkpt>
      <trkpt lat="43.57758" lon="5.8957">
        <ele>551.8</ele>
        <time>2024-02-29T13:54:58.500Z</time>
      </trkpt>
      <trkpt lat="43.57763" lon="5.89566">
        <ele>552</ele>
        <time>2024-02-29T13:55:04Z</time>
      </trkpt>
      <trkpt lat="43.57768" lon="5.89562">
        <ele>552.2</ele>
        <time>2024-02-29T13:55:10.500Z</time>
      </trkpt>
      <trkpt lat="43.57772" lon="5.89557">
        <ele>552.4</ele>
        <time>2024-02-29T13:55:17Z</time>
      </trkpt>
      <trkpt lat="43.57777" lon="5.89553">
        <ele>552.6</ele>
        <time>2024-02-29T13:55:23.500Z</time>
      </trkpt>
      <trkpt lat="43.57781" lon="5.89548">
        <ele>552.8</ele>
        <time>2024-02-29T13:55:30Z</time>
      </trkpt>
      <trkpt lat="43.57786" lon="5.89546">
        <ele>553.3</ele>
        <time>2024-02-29T13:55:36.000Z</time>
      </trkpt>
      <trkpt lat="43.57791" lon="5.89544">
        <ele>553.8</ele>
        <time>2024-02-29T13:55:42Z</time>
      </trkpt>
      <trkpt lat="43.57797" lon="5.89541">
        <ele>554.3</ele>
        <time>2024-02-29T13:55:48.500Z</time>
      </trkpt>
      <trkpt lat="43.57802" lon="5.89538">
        <ele>554.9</ele>
        <time>2024-02-29T13:55:55Z</time>
      </trkpt>
      <trkpt lat="43.57807" lon="5.89536">
        <ele>555.4</ele>
        <time>2024-02-29T13:56:01.000Z</time>
      </trkpt>
      <trkpt lat="43.57811" lon="5.89533">
        <ele>555.8</ele>
        <time>2024-02-29T13:56:07Z</time>
      </trkpt>
      <trkpt lat="43.57816" lon="5.89532">
        <ele>556.3</ele>
        <time>2024-02-29T13:56:12.500Z</time>
      </trkpt>
      <trkpt lat="43.57821" lon="5.8953">
        <ele>556.7</ele>
        <time>2024-02-29T13:56:18Z</time>
      </trkpt>
      <trkpt lat="43.57826" lon="5.89529">
        <ele>557.2</ele>
        <time>2024-02-29T13:56:24.000Z</time>
      </trkpt>
      <trkpt lat="43.5783" lon="5.89527">
        <ele>557.6</ele>
        <time>2024-02-29T13:56:30Z</time>
      </trkpt>
      <trkpt lat="43.57835" lon="5.89526">
        <ele>558</ele>
        <time>2024-02-29T13:56:36.500Z</time>
      </trkpt>
      <trkpt lat="43.5784" lon="5.89524">
        <ele>558.2</ele>
        <time>2024-02-29T13:56:43Z</time>
      </trkpt>
      <trkpt lat="43.57846" lon="5.89522">
        <ele>558.5</ele>
        <time>2024-02-29T13:56:49.500Z</time>
      </trkpt>
      <trkpt lat="43.57851" lon="5.8952">
        <ele>558.7</ele>
        <time>2024-02-29T13:56:56Z</time>
      </trkpt>
      <trkpt lat="43.57859" lon="5.89515">
        <ele>558.9</ele>
        <time>2024-02-29T13:57:08Z</time>
      </trkpt>
      <trkpt lat="43.57864" lon="5.89511">
        <ele>559</ele>
        <time>2024-02-29T13:57:15.500Z</time>
      </trkpt>
      <trkpt lat="43.57868" lon="5.89506">
        <ele>559.1</ele>
        <time>2024-02-29T13:57:23Z</time>
      </trkpt>
      <trkpt lat="43.57873" lon="5.89505">
        <ele>559.5</ele>
        <time>2024-02-29T13:57:28.500Z</time>
      </trkpt>
      <trkpt lat="43.57877" lon="5.89504">
        <ele>559.9</ele>
        <time>2024-02-29T13:57:34Z</time>
      </trkpt>
      <trkpt lat="43.57882" lon="5.89502">
        <ele>560.3</ele>
        <time>2024-02-29T13:57:39.500Z</time>
      </trkpt>
      <trkpt lat="43.57886" lon="5.89499">
        <ele>560.6</ele>
        <time>2024-02-29T13:57:45Z</time>
      </trkpt>
      <trkpt lat="43.57892" lon="5.89497">
        <ele>560.8</ele>
        <time>2024-02-29T13:57:50.500Z</time>
      </trkpt>
      <trkpt lat="43.57897" lon="5.89494">
        <ele>561</ele>
        <time>2024-02-29T13:57:56Z</time>
      </trkpt>
      <trkpt lat="43.57903" lon="5.89491">
        <ele>561.1</ele>
        <time>2024-02-29T13:58:01.500Z</time>
      </trkpt>
      <trkpt lat="43.57908" lon="5.89487">
        <ele>561.3</ele>
        <time>2024-02-29T13:58:07Z</time>
      </trkpt>
      <trkpt lat="43.57913" lon="5.89486">
        <ele>561.7</ele>
        <time>2024-02-29T13:58:12.000Z</time>
      </trkpt>
      <trkpt lat="43.57918" lon="5.89485">
        <ele>562</ele>
        <time>2024-02-29T13:58:17Z</time>
      </trkpt>
      <trkpt lat="43.57923" lon="5.89484">
        <ele>562.2</ele>
        <time>2024-02-29T13:58:21.500Z</time>
      </trkpt>
      <trkpt lat="43.57928" lon="5.89483">
        <ele>562.4</ele>
        <time>2024-02-29T13:58:26Z</time>
      </trkpt>
      <trkpt lat="43.57933" lon="5.8948">
        <ele>562.5</ele>
        <time>2024-02-29T13:58:31.500Z</time>
      </trkpt>
      <trkpt lat="43.57937" lon="5.89477">
        <ele>562.7</ele>
        <time>2024-02-29T13:58:37Z</time>
      </trkpt>
      <trkpt lat="43.57943" lon="5.89475">
        <ele>562.9</ele>
        <time>2024-02-29T13:58:43.000Z</time>
      </trkpt>
      <trkpt lat="43.57948" lon="5.89472">
        <ele>563.1</ele>
        <time>2024-02-29T13:58:49Z</time>
      </trkpt>
      <trkpt lat="43.57953" lon="5.8947">
        <ele>563.1</ele>
        <time>2024-02-29T13:58:53.500Z</time>
      </trkpt>
      <trkpt lat="43.57958" lon="5.89468">
        <ele>563.2</ele>
        <time>2024-02-29T13:58:58Z</time>
      </trkpt>
      <trkpt lat="43.57963" lon="5.89469">
        <ele>563.4</ele>
        <time>2024-02-29T13:59:03.000Z</time>
      </trkpt>
      <trkpt lat="43.57968" lon="5.89469">
        <ele>563.6</ele>
        <time>2024-02-29T13:59:08Z</time>
      </trkpt>
      <trkpt lat="43.57976" lon="5.89468">
        <ele>563.8</ele>
        <time>2024-02-29T13:59:27.359Z</time>
      </trkpt>
      <trkpt lat="43.5798" lon="5.89468">
        <ele>564</ele>
        <time>2024-02-29T13:59:37Z</time>
      </trkpt>
      <trkpt lat="43.57987" lon="5.89467">
        <ele>564.2</ele>
        <time>2024-02-29T14:00:23Z</time>
      </trkpt>
      <trkpt lat="43.57993" lon="5.89467">
        <ele>564.3</ele>
        <time>2024-02-29T14:00:27.500Z</time>
      </trkpt>
      <trkpt lat="43.57999" lon="5.89466">
        <ele>564.5</ele>
        <time>2024-02-29T14:00:32Z</time>
      </trkpt>
      <trkpt lat="43.58005" lon="5.89466">
        <ele>564.5</ele>
        <time>2024-02-29T14:00:37.000Z</time>
      </trkpt>
      <trkpt lat="43.5801" lon="5.89466">
        <ele>564.4</ele>
        <time>2024-02-29T14:00:42Z</time>
      </trkpt>
      <trkpt lat="43.58016" lon="5.89465">
        <ele>564.2</ele>
        <time>2024-02-29T14:00:48.000Z</time>
      </trkpt>
      <trkpt lat="43.58022" lon="5.89463">
        <ele>564.1</ele>
        <time>2024-02-29T14:00:54Z</time>
      </trkpt>
      <trkpt lat="43.58026" lon="5.8946">
        <ele>564</ele>
        <time>2024-02-29T14:01:00.500Z</time>
      </trkpt>
      <trkpt lat="43.5803" lon="5.89457">
        <ele>564</ele>
        <time>2024-02-29T14:01:07Z</time>
      </trkpt>
      <trkpt lat="43.58033" lon="5.89454">
        <ele>564</ele>
        <time>2024-02-29T14:01:40Z</time>
      </trkpt>
      <trkpt lat="43.58038" lon="5.89453">
        <ele>564</ele>
        <time>2024-02-29T14:01:56Z</time>
      </trkpt>
      <trkpt lat="43.58043" lon="5.89452">
        <ele>564</ele>
        <time>2024-02-29T14:02:09.500Z</time>
      </trkpt>
      <trkpt lat="43.58047" lon="5.8945">
        <ele>564</ele>
        <time>2024-02-29T14:02:23Z</time>
      </trkpt>
      <trkpt lat="43.58053" lon="5.89449">
        <ele>564</ele>
        <time>2024-02-29T14:02:31.500Z</time>
      </trkpt>
      <trkpt lat="43.58058" lon="5.89448">
        <ele>563.9</ele>
        <time>2024-02-29T14:02:40Z</time>
      </trkpt>
      <trkpt lat="43.58064" lon="5.89448">
        <ele>563.7</ele>
        <time>2024-02-29T14:02:45.000Z</time>
      </trkpt>
      <trkpt lat="43.5807" lon="5.89447">
        <ele>563.5</ele>
        <time>2024-02-29T14:02:50Z</time>
      </trkpt>
      <trkpt lat="43.58075" lon="5.89448">
        <ele>563.4</ele>
        <time>2024-02-29T14:02:53.652Z</time>
      </trkpt>
      <trkpt lat="43.58079" lon="5.89448">
        <ele>563.3</ele>
        <time>2024-02-29T14:02:57.304Z</time>
      </trkpt>
      <trkpt lat="43.58082" lon="5.8945">
        <ele>563.2</ele>
        <time>2024-02-29T14:03:00Z</time>
      </trkpt>
      <trkpt lat="43.58087" lon="5.89452">
        <ele>563.2</ele>
        <time>2024-02-29T14:03:05.500Z</time>
      </trkpt>
      <trkpt lat="43.58092" lon="5.89453">
        <ele>563.2</ele>
        <time>2024-02-29T14:03:11Z</time>
      </trkpt>
      <trkpt lat="43.58099" lon="5.89453">
        <ele>563.1</ele>
        <time>2024-02-29T14:03:15.500Z</time>
      </trkpt>
      <trkpt lat="43.58105" lon="5.89452">
        <ele>562.9</ele>
        <time>2024-02-29T14:03:20Z</time>
      </trkpt>
      <trkpt lat="43.58111" lon="5.89453">
        <ele>562.9</ele>
        <time>2024-02-29T14:03:25.500Z</time>
      </trkpt>
      <trkpt lat="43.58116" lon="5.89454">
        <ele>562.5</ele>
        <time>2024-02-29T14:03:31Z</time>
      </trkpt>
      <trkpt lat="43.58121" lon="5.89456">
        <ele>562.1</ele>
        <time>2024-02-29T14:03:37.000Z</time>
      </trkpt>
      <trkpt lat="43.58126" lon="5.89457">
        <ele>561.6</ele>
        <time>2024-02-29T14:03:43Z</time>
      </trkpt>
      <trkpt lat="43.58128" lon="5.89459">
        <ele>561.4</ele>
        <time>2024-02-29T14:03:45.600Z</time>
      </trkpt>
      <trkpt lat="43.58132" lon="5.89463">
        <ele>561</ele>
        <time>2024-02-29T14:03:50.800Z</time>
      </trkpt>
      <trkpt lat="43.58136" lon="5.89467">
        <ele>560.5</ele>
        <time>2024-02-29T14:03:56Z</time>
      </trkpt>
      <trkpt lat="43.58141" lon="5.89458">
        <ele>559.7</ele>
        <time>2024-02-29T14:04:01.000Z</time>
      </trkpt>
      <trkpt lat="43.58145" lon="5.89448">
        <ele>558.8</ele>
        <time>2024-02-29T14:04:06Z</time>
      </trkpt>
      <trkpt lat="43.5815" lon="5.89438">
        <ele>557.9</ele>
        <time>2024-02-29T14:04:16Z</time>
      </trkpt>
      <trkpt lat="43.58154" lon="5.89432">
        <ele>557.1</ele>
        <time>2024-02-29T14:04:21.500Z</time>
      </trkpt>
      <trkpt lat="43.58158" lon="5.89425">
        <ele>556.3</ele>
        <time>2024-02-29T14:04:27Z</time>
      </trkpt>
      <trkpt lat="43.58161" lon="5.89417">
        <ele>555.8</ele>
        <time>2024-02-29T14:04:31.500Z</time>
      </trkpt>
      <trkpt lat="43.58164" lon="5.89409">
        <ele>555.9</ele>
        <time>2024-02-29T14:04:36Z</time>
      </trkpt>
      <trkpt lat="43.58167" lon="5.89403">
        <ele>556</ele>
        <time>2024-02-29T14:04:41.000Z</time>
      </trkpt>
      <trkpt lat="43.5817" lon="5.89396">
        <ele>555.9</ele>
        <time>2024-02-29T14:04:46Z</time>
      </trkpt>
      <trkpt lat="43.58173" lon="5.8939">
        <ele>555.8</ele>
        <time>2024-02-29T14:04:50.500Z</time>
      </trkpt>
      <trkpt lat="43.58176" lon="5.89383">
        <ele>555.7</ele>
        <time>2024-02-29T14:04:55Z</time>
      </trkpt>
      <trkpt lat="43.58179" lon="5.89375">
        <ele>555.9</ele>
        <time>2024-02-29T14:05:00.000Z</time>
      </trkpt>
      <trkpt lat="43.58181" lon="5.89366">
        <ele>556.1</ele>
        <time>2024-02-29T14:05:05Z</time>
      </trkpt>
      <trkpt lat="43.58184" lon="5.89359">
        <ele>556.1</ele>
        <time>2024-02-29T14:05:10.250Z</time>
      </trkpt>
      <trkpt lat="43.58186" lon="5.89352">
        <ele>556</ele>
        <time>2024-02-29T14:05:15.500Z</time>
      </trkpt>
      <trkpt lat="43.58189" lon="5.89345">
        <ele>556</ele>
        <time>2024-02-29T14:05:20.750Z</time>
      </trkpt>
      <trkpt lat="43.58191" lon="5.89338">
        <ele>556.1</ele>
        <time>2024-02-29T14:05:26Z</time>
      </trkpt>
      <trkpt lat="43.58194" lon="5.89331">
        <ele>556.1</ele>
        <time>2024-02-29T14:05:38.500Z</time>
      </trkpt>
      <trkpt lat="43.58196" lon="5.89324">
        <ele>555.7</ele>
        <time>2024-02-29T14:05:51Z</time>
      </trkpt>
      <trkpt lat="43.582" lon="5.89314">
        <ele>555.2</ele>
        <time>2024-02-29T14:06:00.000Z</time>
      </trkpt>
      <trkpt lat="43.58204" lon="5.89303">
        <ele>555</ele>
        <time>2024-02-29T14:06:09Z</time>
      </trkpt>
      <trkpt lat="43.58208" lon="5.89295">
        <ele>555</ele>
        <time>2024-02-29T14:06:15.500Z</time>
      </trkpt>
      <trkpt lat="43.58211" lon="5.89286">
        <ele>555.1</ele>
        <time>2024-02-29T14:06:22Z</time>
      </trkpt>
      <trkpt lat="43.58215" lon="5.89282">
        <ele>555</ele>
        <time>2024-02-29T14:06:25.347Z</time>
      </trkpt>
      <trkpt lat="43.58218" lon="5.89291">
        <ele>554.3</ele>
        <time>2024-02-29T14:06:30.210Z</time>
      </trkpt>
      <trkpt lat="43.58222" lon="5.89301">
        <ele>553.4</ele>
        <time>2024-02-29T14:06:35.605Z</time>
      </trkpt>
      <trkpt lat="43.58226" lon="5.8931">
        <ele>552.4</ele>
        <time>2024-02-29T14:06:41Z</time>
      </trkpt>
      <trkpt lat="43.5823" lon="5.89312">
        <ele>552</ele>
        <time>2024-02-29T14:07:03Z</time>
      </trkpt>
      <trkpt lat="43.58234" lon="5.89316">
        <ele>551.1</ele>
        <time>2024-02-29T14:07:22Z</time>
      </trkpt>
      <trkpt lat="43.58241" lon="5.89315">
        <ele>550.9</ele>
        <time>2024-02-29T14:07:31.000Z</time>
      </trkpt>
      <trkpt lat="43.58248" lon="5.89313">
        <ele>551</ele>
        <time>2024-02-29T14:07:40Z</time>
      </trkpt>
      <trkpt lat="43.58254" lon="5.89312">
        <ele>550.7</ele>
        <time>2024-02-29T14:07:49.500Z</time>
      </trkpt>
      <trkpt lat="43.58259" lon="5.89311">
        <ele>550.3</ele>
        <time>2024-02-29T14:07:59Z</time>
      </trkpt>
      <trkpt lat="43.58263" lon="5.89307">
        <ele>551.3</ele>
        <time>2024-02-29T14:08:07.000Z</time>
      </trkpt>
      <trkpt lat="43.58266" lon="5.89302">
        <ele>551.5</ele>
        <time>2024-02-29T14:08:15Z</time>
      </trkpt>
      <trkpt lat="43.58272" lon="5.89296">
        <ele>551.5</ele>
        <time>2024-02-29T14:08:22.677Z</time>
      </trkpt>
      <trkpt lat="43.58275" lon="5.89292">
        <ele>551.7</ele>
        <time>2024-02-29T14:08:27Z</time>
      </trkpt>
      <trkpt lat="43.58281" lon="5.89284">
        <ele>552</ele>
        <time>2024-02-29T14:08:38Z</time>
      </trkpt>
      <trkpt lat="43.58286" lon="5.89284">
        <ele>551.5</ele>
        <time>2024-02-29T14:08:43.968Z</time>
      </trkpt>
      <trkpt lat="43.58291" lon="5.89283">
        <ele>551.2</ele>
        <time>2024-02-29T14:08:50Z</time>
      </trkpt>
      <trkpt lat="43.58295" lon="5.89283">
        <ele>550.9</ele>
        <time>2024-02-29T14:09:01Z</time>
      </trkpt>
      <trkpt lat="43.583" lon="5.89279">
        <ele>551.8</ele>
        <time>2024-02-29T14:09:04.513Z</time>
      </trkpt>
      <trkpt lat="43.58304" lon="5.89275">
        <ele>552.1</ele>
        <time>2024-02-29T14:09:08.026Z</time>
      </trkpt>
      <trkpt lat="43.58311" lon="5.89271">
        <ele>551.6</ele>
        <time>2024-02-29T14:09:13Z</time>
      </trkpt>
      <trkpt lat="43.58317" lon="5.89267">
        <ele>551.4</ele>
        <time>2024-02-29T14:09:18.500Z</time>
      </trkpt>
      <trkpt lat="43.58322" lon="5.89262">
        <ele>551.6</ele>
        <time>2024-02-29T14:09:24Z</time>
      </trkpt>
      <trkpt lat="43.58329" lon="5.89257">
        <ele>552.3</ele>
        <time>2024-02-29T14:09:36Z</time>
      </trkpt>
      <trkpt lat="43.58335" lon="5.89251">
        <ele>553.6</ele>
        <time>2024-02-29T14:09:47Z</time>
      </trkpt>
      <trkpt lat="43.58341" lon="5.8925">
        <ele>553.5</ele>
        <time>2024-02-29T14:09:53.000Z</time>
      </trkpt>
      <trkpt lat="43.58346" lon="5.89249">
        <ele>553</ele>
        <time>2024-02-29T14:09:59Z</time>
      </trkpt>
      <trkpt lat="43.58353" lon="5.89247">
        <ele>552.4</ele>
        <time>2024-02-29T14:10:04.500Z</time>
      </trkpt>
      <trkpt lat="43.58359" lon="5.89244">
        <ele>551.9</ele>
        <time>2024-02-29T14:10:10Z</time>
      </trkpt>
      <trkpt lat="43.58364" lon="5.89242">
        <ele>551.6</ele>
        <time>2024-02-29T14:10:20Z</time>
      </trkpt>
      <trkpt lat="43.58371" lon="5.89241">
        <ele>551.3</ele>
        <time>2024-02-29T14:10:25.000Z</time>
      </trkpt>
      <trkpt lat="43.58378" lon="5.8924">
        <ele>551.1</ele>
        <time>2024-02-29T14:10:30Z</time>
      </trkpt>
      <trkpt lat="43.58384" lon="5.89236">
        <ele>551.1</ele>
        <time>2024-02-29T14:10:42Z</time>
      </trkpt>
      <trkpt lat="43.5839" lon="5.89236">
        <ele>550.9</ele>
        <time>2024-02-29T14:10:57Z</time>
      </trkpt>
      <trkpt lat="43.58396" lon="5.89235">
        <ele>550.6</ele>
        <time>2024-02-29T14:11:06.000Z</time>
      </trkpt>
      <trkpt lat="43.58401" lon="5.89233">
        <ele>550.3</ele>
        <time>2024-02-29T14:11:15Z</time>
      </trkpt>
      <trkpt lat="43.58406" lon="5.89233">
        <ele>549.9</ele>
        <time>2024-02-29T14:12:03Z</time>
      </trkpt>
      <trkpt lat="43.58411" lon="5.8923">
        <ele>550.1</ele>
        <time>2024-02-29T14:12:10.000Z</time>
      </trkpt>
      <trkpt lat="43.58415" lon="5.89226">
        <ele>550.4</ele>
        <time>2024-02-29T14:12:17Z</time>
      </trkpt>
      <trkpt lat="43.58422" lon="5.89223">
        <ele>549.1</ele>
        <time>2024-02-29T14:12:31Z</time>
      </trkpt>
      <trkpt lat="43.58429" lon="5.89219">
        <ele>547.2</ele>
        <time>2024-02-29T14:12:48Z</time>
      </trkpt>
      <trkpt lat="43.58431" lon="5.89212">
        <ele>547.3</ele>
        <time>2024-02-29T14:13:02Z</time>
      </trkpt>
      <trkpt lat="43.58434" lon="5.89211">
        <ele>546.7</ele>
        <time>2024-02-29T14:13:20Z</time>
      </trkpt>
      <trkpt lat="43.58439" lon="5.89209">
        <ele>546</ele>
        <time>2024-02-29T14:13:38Z</time>
      </trkpt>
      <trkpt lat="43.58444" lon="5.89208">
        <ele>545.4</ele>
        <time>2024-02-29T14:13:47.500Z</time>
      </trkpt>
      <trkpt lat="43.58448" lon="5.89206">
        <ele>544.9</ele>
        <time>2024-02-29T14:13:57Z</time>
      </trkpt>
      <trkpt lat="43.58455" lon="5.89203">
        <ele>544.4</ele>
        <time>2024-02-29T14:14:14Z</time>
      </trkpt>
      <trkpt lat="43.58461" lon="5.89203">
        <ele>543.4</ele>
        <time>2024-02-29T14:14:57Z</time>
      </trkpt>
      <trkpt lat="43.58467" lon="5.89197">
        <ele>544.6</ele>
        <time>2024-02-29T14:16:48Z</time>
      </trkpt>
      <trkpt lat="43.58473" lon="5.89192">
        <ele>544.8</ele>
        <time>2024-02-29T14:16:55.500Z</time>
      </trkpt>
      <trkpt lat="43.58478" lon="5.89187">
        <ele>542.6</ele>
        <time>2024-02-29T14:17:03Z</time>
      </trkpt>
      <trkpt lat="43.58482" lon="5.8918">
        <ele>541.5</ele>
        <time>2024-02-29T14:17:08.500Z</time>
      </trkpt>
      <trkpt lat="43.58485" lon="5.89173">
        <ele>540.8</ele>
        <time>2024-02-29T14:17:14Z</time>
      </trkpt>
      <trkpt lat="43.58488" lon="5.89166">
        <ele>540.5</ele>
        <time>2024-02-29T14:17:20.500Z</time>
      </trkpt>
      <trkpt lat="43.58491" lon="5.89158">
        <ele>539.4</ele>
        <time>2024-02-29T14:17:27Z</time>
      </trkpt>
      <trkpt lat="43.5849" lon="5.89151">
        <ele>539.2</ele>
        <time>2024-02-29T14:17:33.499Z</time>
      </trkpt>
      <trkpt lat="43.58489" lon="5.89143">
        <ele>538.8</ele>
        <time>2024-02-29T14:17:40Z</time>
      </trkpt>
      <trkpt lat="43.58492" lon="5.89133">
        <ele>538.9</ele>
        <time>2024-02-29T14:17:48.000Z</time>
      </trkpt>
      <trkpt lat="43.58494" lon="5.89122">
        <ele>539.9</ele>
        <time>2024-02-29T14:17:56Z</time>
      </trkpt>
      <trkpt lat="43.58501" lon="5.89117">
        <ele>540</ele>
        <time>2024-02-29T14:18:02.000Z</time>
      </trkpt>
      <trkpt lat="43.58508" lon="5.89112">
        <ele>540</ele>
        <time>2024-02-29T14:18:08Z</time>
      </trkpt>
      <trkpt lat="43.58514" lon="5.89106">
        <ele>540.7</ele>
        <time>2024-02-29T14:18:14.500Z</time>
      </trkpt>
      <trkpt lat="43.58519" lon="5.891">
        <ele>541.6</ele>
        <time>2024-02-29T14:18:21Z</time>
      </trkpt>
      <trkpt lat="43.58524" lon="5.89098">
        <ele>541.7</ele>
        <time>2024-02-29T14:18:29.500Z</time>
      </trkpt>
      <trkpt lat="43.58528" lon="5.89096">
        <ele>541.8</ele>
        <time>2024-02-29T14:18:38Z</time>
      </trkpt>
      <trkpt lat="43.58534" lon="5.89093">
        <ele>541.4</ele>
        <time>2024-02-29T14:18:44.000Z</time>
      </trkpt>
      <trkpt lat="43.58539" lon="5.89089">
        <ele>541.2</ele>
        <time>2024-02-29T14:18:50Z</time>
      </trkpt>
      <trkpt lat="43.58545" lon="5.89084">
        <ele>541.8</ele>
        <time>2024-02-29T14:18:54.500Z</time>
      </trkpt>
      <trkpt lat="43.5855" lon="5.89079">
        <ele>541.7</ele>
        <time>2024-02-29T14:18:59Z</time>
      </trkpt>
      <trkpt lat="43.58555" lon="5.89076">
        <ele>541.4</ele>
        <time>2024-02-29T14:19:04.000Z</time>
      </trkpt>
      <trkpt lat="43.5856" lon="5.89073">
        <ele>540.7</ele>
        <time>2024-02-29T14:19:09Z</time>
      </trkpt>
      <trkpt lat="43.58565" lon="5.8907">
        <ele>540.2</ele>
        <time>2024-02-29T14:19:15.000Z</time>
      </trkpt>
      <trkpt lat="43.5857" lon="5.89067">
        <ele>539.8</ele>
        <time>2024-02-29T14:19:21Z</time>
      </trkpt>
      <trkpt lat="43.58576" lon="5.89064">
        <ele>539.6</ele>
        <time>2024-02-29T14:19:25.000Z</time>
      </trkpt>
      <trkpt lat="43.58582" lon="5.8906">
        <ele>539.6</ele>
        <time>2024-02-29T14:19:29Z</time>
      </trkpt>
      <trkpt lat="43.58587" lon="5.89058">
        <ele>539.4</ele>
        <time>2024-02-29T14:19:34.000Z</time>
      </trkpt>
      <trkpt lat="43.58592" lon="5.89056">
        <ele>539.3</ele>
        <time>2024-02-29T14:19:39Z</time>
      </trkpt>
      <trkpt lat="43.58597" lon="5.89055">
        <ele>538.7</ele>
        <time>2024-02-29T14:19:45.000Z</time>
      </trkpt>
      <trkpt lat="43.58601" lon="5.89053">
        <ele>538</ele>
        <time>2024-02-29T14:19:51Z</time>
      </trkpt>
      <trkpt lat="43.58606" lon="5.8905">
        <ele>537.3</ele>
        <time>2024-02-29T14:19:59.500Z</time>
      </trkpt>
      <trkpt lat="43.58611" lon="5.89047">
        <ele>536.6</ele>
        <time>2024-02-29T14:20:08Z</time>
      </trkpt>
      <trkpt lat="43.58615" lon="5.8904">
        <ele>536.7</ele>
        <time>2024-02-29T14:20:14.500Z</time>
      </trkpt>
      <trkpt lat="43.58618" lon="5.89032">
        <ele>536.9</ele>
        <time>2024-02-29T14:20:21Z</time>
      </trkpt>
      <trkpt lat="43.58611" lon="5.89028">
        <ele>538</ele>
        <time>2024-02-29T14:20:50Z</time>
      </trkpt>
      <trkpt lat="43.58617" lon="5.8903">
        <ele>537.3</ele>
        <time>2024-02-29T14:20:57.000Z</time>
      </trkpt>
      <trkpt lat="43.58622" lon="5.89031">
        <ele>536.5</ele>
        <time>2024-02-29T14:21:04Z</time>
      </trkpt>
      <trkpt lat="43.58628" lon="5.89035">
        <ele>535.6</ele>
        <time>2024-02-29T14:21:11.000Z</time>
      </trkpt>
      <trkpt lat="43.58633" lon="5.89038">
        <ele>534.6</ele>
        <time>2024-02-29T14:21:18Z</time>
      </trkpt>
      <trkpt lat="43.58638" lon="5.89045">
        <ele>533.3</ele>
        <time>2024-02-29T14:21:29.500Z</time>
      </trkpt>
      <trkpt lat="43.58643" lon="5.89051">
        <ele>531.7</ele>
        <time>2024-02-29T14:21:41Z</time>
      </trkpt>
      <trkpt lat="43.58642" lon="5.89054">
        <ele>531.5</ele>
        <time>2024-02-29T14:23:11Z</time>
      </trkpt>
      <trkpt lat="43.58644" lon="5.8905">
        <ele>531.6</ele>
        <time>2024-02-29T14:27:27Z</time>
      </trkpt>
      <trkpt lat="43.58646" lon="5.89045">
        <ele>532</ele>
        <time>2024-02-29T14:31:59Z</time>
      </trkpt>
      <trkpt lat="43.58649" lon="5.89039">
        <ele>532.6</ele>
        <time>2024-02-29T14:32:05.000Z</time>
      </trkpt>
      <trkpt lat="43.58651" lon="5.89032">
        <ele>533.4</ele>
        <time>2024-02-29T14:32:11Z</time>
      </trkpt>
      <trkpt lat="43.58654" lon="5.89024">
        <ele>533.9</ele>
        <time>2024-02-29T14:32:16.000Z</time>
      </trkpt>
      <trkpt lat="43.58656" lon="5.89016">
        <ele>533.5</ele>
        <time>2024-02-29T14:32:21Z</time>
      </trkpt>
      <trkpt lat="43.58659" lon="5.8901">
        <ele>533.1</ele>
        <time>2024-02-29T14:32:26.500Z</time>
      </trkpt>
      <trkpt lat="43.58661" lon="5.89003">
        <ele>532.7</ele>
        <time>2024-02-29T14:32:32Z</time>
      </trkpt>
      <trkpt lat="43.58664" lon="5.88994">
        <ele>532.1</ele>
        <time>2024-02-29T14:32:38.000Z</time>
      </trkpt>
      <trkpt lat="43.58667" lon="5.88985">
        <ele>531.4</ele>
        <time>2024-02-29T14:32:44Z</time>
      </trkpt>
      <trkpt lat="43.5867" lon="5.88979">
        <ele>531.1</ele>
        <time>2024-02-29T14:32:51.000Z</time>
      </trkpt>
      <trkpt lat="43.58672" lon="5.88972">
        <ele>530.8</ele>
        <time>2024-02-29T14:32:58Z</time>
      </trkpt>
      <trkpt lat="43.58675" lon="5.88966">
        <ele>530.6</ele>
        <time>2024-02-29T14:33:38Z</time>
      </trkpt>
      <trkpt lat="43.58678" lon="5.88958">
        <ele>530.4</ele>
        <time>2024-02-29T14:33:45.000Z</time>
      </trkpt>
      <trkpt lat="43.5868" lon="5.8895">
        <ele>530.1</ele>
        <time>2024-02-29T14:33:52Z</time>
      </trkpt>
      <trkpt lat="43.58685" lon="5.88942">
        <ele>529.5</ele>
        <time>2024-02-29T14:35:10Z</time>
      </trkpt>
      <trkpt lat="43.58688" lon="5.88934">
        <ele>528.8</ele>
        <time>2024-02-29T14:35:41.500Z</time>
      </trkpt>
      <trkpt lat="43.5869" lon="5.88926">
        <ele>528.1</ele>
        <time>2024-02-29T14:36:13Z</time>
      </trkpt>
      <trkpt lat="43.58694" lon="5.88919">
        <ele>527.2</ele>
        <time>2024-02-29T14:36:18.000Z</time>
      </trkpt>
      <trkpt lat="43.58697" lon="5.88911">
        <ele>527</ele>
        <time>2024-02-29T14:36:23Z</time>
      </trkpt>
      <trkpt lat="43.58701" lon="5.889">
        <ele>526.8</ele>
        <time>2024-02-29T14:36:53Z</time>
      </trkpt>
      <trkpt lat="43.58705" lon="5.88893">
        <ele>526.4</ele>
        <time>2024-02-29T14:36:58.000Z</time>
      </trkpt>
      <trkpt lat="43.58708" lon="5.88885">
        <ele>525.8</ele>
        <time>2024-02-29T14:37:03Z</time>
      </trkpt>
      <trkpt lat="43.58711" lon="5.88879">
        <ele>525.3</ele>
        <time>2024-02-29T14:37:08.000Z</time>
      </trkpt>
      <trkpt lat="43.58713" lon="5.88873">
        <ele>524.7</ele>
        <time>2024-02-29T14:37:13Z</time>
      </trkpt>
      <trkpt lat="43.58716" lon="5.88866">
        <ele>524</ele>
        <time>2024-02-29T14:37:17.500Z</time>
      </trkpt>
      <trkpt lat="43.58719" lon="5.88859">
        <ele>523.3</ele>
        <time>2024-02-29T14:37:22Z</time>
      </trkpt>
      <trkpt lat="43.58722" lon="5.88853">
        <ele>522.8</ele>
        <time>2024-02-29T14:37:26.000Z</time>
      </trkpt>
      <trkpt lat="43.58724" lon="5.88846">
        <ele>522.5</ele>
        <time>2024-02-29T14:37:30Z</time>
      </trkpt>
      <trkpt lat="43.58728" lon="5.88839">
        <ele>522.2</ele>
        <time>2024-02-29T14:37:34.500Z</time>
      </trkpt>
      <trkpt lat="43.58731" lon="5.88832">
        <ele>521.9</ele>
        <time>2024-02-29T14:37:39Z</time>
      </trkpt>
      <trkpt lat="43.58734" lon="5.88826">
        <ele>521.4</ele>
        <time>2024-02-29T14:37:43.500Z</time>
      </trkpt>
      <trkpt lat="43.58736" lon="5.8882">
        <ele>520.8</ele>
        <time>2024-02-29T14:37:48Z</time>
      </trkpt>
      <trkpt lat="43.58738" lon="5.88813">
        <ele>520</ele>
        <time>2024-02-29T14:37:59.000Z</time>
      </trkpt>
      <trkpt lat="43.58739" lon="5.88805">
        <ele>519.2</ele>
        <time>2024-02-29T14:38:10Z</time>
      </trkpt>
      <trkpt lat="43.58743" lon="5.88796">
        <ele>518.3</ele>
        <time>2024-02-29T14:38:22Z</time>
      </trkpt>
      <trkpt lat="43.58746" lon="5.88788">
        <ele>517.4</ele>
        <time>2024-02-29T14:38:26.500Z</time>
      </trkpt>
      <trkpt lat="43.58749" lon="5.88779">
        <ele>516.3</ele>
        <time>2024-02-29T14:38:31Z</time>
      </trkpt>
      <trkpt lat="43.58752" lon="5.88774">
        <ele>516.1</ele>
        <time>2024-02-29T14:38:38.000Z</time>
      </trkpt>
      <trkpt lat="43.58754" lon="5.88768">
        <ele>516.3</ele>
        <time>2024-02-29T14:38:45Z</time>
      </trkpt>
      <trkpt lat="43.58757" lon="5.88761">
        <ele>516.3</ele>
        <time>2024-02-29T14:38:50.000Z</time>
      </trkpt>
      <trkpt lat="43.58759" lon="5.88753">
        <ele>516.1</ele>
        <time>2024-02-29T14:38:55Z</time>
      </trkpt>
      <trkpt lat="43.58763" lon="5.88744">
        <ele>515.8</ele>
        <time>2024-02-29T14:39:00.500Z</time>
      </trkpt>
      <trkpt lat="43.58766" lon="5.88735">
        <ele>515.4</ele>
        <time>2024-02-29T14:39:06Z</time>
      </trkpt>
      <trkpt lat="43.58769" lon="5.88728">
        <ele>514.9</ele>
        <time>2024-02-29T14:39:10.500Z</time>
      </trkpt>
      <trkpt lat="43.58772" lon="5.8872">
        <ele>514.4</ele>
        <time>2024-02-29T14:39:15Z</time>
      </trkpt>
      <trkpt lat="43.58776" lon="5.88714">
        <ele>513.9</ele>
        <time>2024-02-29T14:39:19.500Z</time>
      </trkpt>
      <trkpt lat="43.58779" lon="5.88707">
        <ele>513.6</ele>
        <time>2024-02-29T14:39:24Z</time>
      </trkpt>
      <trkpt lat="43.58782" lon="5.88701">
        <ele>513.7</ele>
        <time>2024-02-29T14:39:28.500Z</time>
      </trkpt>
      <trkpt lat="43.58785" lon="5.88694">
        <ele>513.8</ele>
        <time>2024-02-29T14:39:33Z</time>
      </trkpt>
      <trkpt lat="43.58788" lon="5.88688">
        <ele>513.7</ele>
        <time>2024-02-29T14:39:38.000Z</time>
      </trkpt>
      <trkpt lat="43.5879" lon="5.88682">
        <ele>513.5</ele>
        <time>2024-02-29T14:39:43Z</time>
      </trkpt>
      <trkpt lat="43.58794" lon="5.88675">
        <ele>513.2</ele>
        <time>2024-02-29T14:39:48.000Z</time>
      </trkpt>
      <trkpt lat="43.58797" lon="5.88668">
        <ele>512.8</ele>
        <time>2024-02-29T14:39:53Z</time>
      </trkpt>
      <trkpt lat="43.588" lon="5.88661">
        <ele>512.3</ele>
        <time>2024-02-29T14:39:58.500Z</time>
      </trkpt>
      <trkpt lat="43.58802" lon="5.88654">
        <ele>511.6</ele>
        <time>2024-02-29T14:40:04Z</time>
      </trkpt>
      <trkpt lat="43.58806" lon="5.88647">
        <ele>510.8</ele>
        <time>2024-02-29T14:40:10.000Z</time>
      </trkpt>
      <trkpt lat="43.58809" lon="5.88639">
        <ele>510.5</ele>
        <time>2024-02-29T14:40:16Z</time>
      </trkpt>
      <trkpt lat="43.58812" lon="5.88633">
        <ele>509.8</ele>
        <time>2024-02-29T14:40:23.000Z</time>
      </trkpt>
      <trkpt lat="43.58814" lon="5.88627">
        <ele>509.2</ele>
        <time>2024-02-29T14:40:30Z</time>
      </trkpt>
      <trkpt lat="43.58811" lon="5.88634">
        <ele>509.9</ele>
        <time>2024-02-29T14:40:53Z</time>
      </trkpt>
      <trkpt lat="43.58807" lon="5.88644">
        <ele>510.6</ele>
        <time>2024-02-29T14:40:58.499Z</time>
      </trkpt>
      <trkpt lat="43.58802" lon="5.88653">
        <ele>511.5</ele>
        <time>2024-02-29T14:41:04Z</time>
      </trkpt>
      <trkpt lat="43.588" lon="5.88661">
        <ele>512.2</ele>
        <time>2024-02-29T14:41:08.999Z</time>
      </trkpt>
      <trkpt lat="43.58797" lon="5.88668">
        <ele>512.8</ele>
        <time>2024-02-29T14:41:14Z</time>
      </trkpt>
      <trkpt lat="43.58793" lon="5.88679">
        <ele>513.5</ele>
        <time>2024-02-29T14:41:24Z</time>
      </trkpt>
      <trkpt lat="43.58789" lon="5.88683">
        <ele>513.4</ele>
        <time>2024-02-29T14:41:31.499Z</time>
      </trkpt>
      <trkpt lat="43.58784" lon="5.88686">
        <ele>513.2</ele>
        <time>2024-02-29T14:41:39Z</time>
      </trkpt>
      <trkpt lat="43.58777" lon="5.88685">
        <ele>512.8</ele>
        <time>2024-02-29T14:41:44.000Z</time>
      </trkpt>
      <trkpt lat="43.58769" lon="5.88684">
        <ele>513.7</ele>
        <time>2024-02-29T14:41:49Z</time>
      </trkpt>
      <trkpt lat="43.58765" lon="5.88687">
        <ele>514.2</ele>
        <time>2024-02-29T14:42:07Z</time>
      </trkpt>
      <trkpt lat="43.58767" lon="5.88687">
        <ele>514</ele>
        <time>2024-02-29T14:42:27Z</time>
      </trkpt>
      <trkpt lat="43.58768" lon="5.88681">
        <ele>513.7</ele>
        <time>2024-02-29T14:42:30.216Z</time>
      </trkpt>
      <trkpt lat="43.58764" lon="5.88676">
        <ele>514.2</ele>
        <time>2024-02-29T14:42:34.107Z</time>
      </trkpt>
      <trkpt lat="43.5876" lon="5.88671">
        <ele>514.6</ele>
        <time>2024-02-29T14:42:38Z</time>
      </trkpt>
      <trkpt lat="43.58761" lon="5.88664">
        <ele>514.4</ele>
        <time>2024-02-29T14:43:05Z</time>
      </trkpt>
      <trkpt lat="43.58762" lon="5.88661">
        <ele>514.2</ele>
        <time>2024-02-29T14:43:24Z</time>
      </trkpt>
      <trkpt lat="43.58763" lon="5.8866">
        <ele>514</ele>
        <time>2024-02-29T14:43:26.202Z</time>
      </trkpt>
      <trkpt lat="43.58766" lon="5.88651">
        <ele>513.4</ele>
        <time>2024-02-29T14:43:39Z</time>
      </trkpt>
      <trkpt lat="43.58767" lon="5.8864">
        <ele>513</ele>
        <time>2024-02-29T14:43:52Z</time>
      </trkpt>
      <trkpt lat="43.58768" lon="5.88631">
        <ele>512</ele>
        <time>2024-02-29T14:44:17Z</time>
      </trkpt>
      <trkpt lat="43.5877" lon="5.88621">
        <ele>510.5</ele>
        <time>2024-02-29T14:44:25.000Z</time>
      </trkpt>
      <trkpt lat="43.58772" lon="5.8861">
        <ele>508.8</ele>
        <time>2024-02-29T14:44:33Z</time>
      </trkpt>
      <trkpt lat="43.58775" lon="5.88608">
        <ele>507.7</ele>
        <time>2024-02-29T14:44:39.121Z</time>
      </trkpt>
      <trkpt lat="43.58781" lon="5.88613">
        <ele>507</ele>
        <time>2024-02-29T14:44:52Z</time>
      </trkpt>
      <trkpt lat="43.58784" lon="5.88614">
        <ele>507</ele>
        <time>2024-02-29T14:45:17Z</time>
      </trkpt>
      <trkpt lat="43.58789" lon="5.88616">
        <ele>507</ele>
        <time>2024-02-29T14:45:45Z</time>
      </trkpt>
      <trkpt lat="43.58797" lon="5.88619">
        <ele>506.9</ele>
        <time>2024-02-29T14:46:04Z</time>
      </trkpt>
      <trkpt lat="43.58802" lon="5.88616">
        <ele>506.1</ele>
        <time>2024-02-29T14:46:25Z</time>
      </trkpt>
      <trkpt lat="43.58805" lon="5.8861">
        <ele>504.8</ele>
        <time>2024-02-29T14:46:38Z</time>
      </trkpt>
      <trkpt lat="43.58807" lon="5.88603">
        <ele>503.4</ele>
        <time>2024-02-29T14:46:47.500Z</time>
      </trkpt>
      <trkpt lat="43.58808" lon="5.88595">
        <ele>502.2</ele>
        <time>2024-02-29T14:46:57Z</time>
      </trkpt>
      <trkpt lat="43.58811" lon="5.8859">
        <ele>501.9</ele>
        <time>2024-02-29T14:47:01.500Z</time>
      </trkpt>
      <trkpt lat="43.58813" lon="5.88584">
        <ele>501.8</ele>
        <time>2024-02-29T14:47:06Z</time>
      </trkpt>
      <trkpt lat="43.58816" lon="5.88577">
        <ele>501.5</ele>
        <time>2024-02-29T14:47:10.500Z</time>
      </trkpt>
      <trkpt lat="43.58818" lon="5.8857">
        <ele>501.3</ele>
        <time>2024-02-29T14:47:15Z</time>
      </trkpt>
      <trkpt lat="43.58821" lon="5.88564">
        <ele>501.2</ele>
        <time>2024-02-29T14:47:20.500Z</time>
      </trkpt>
      <trkpt lat="43.58823" lon="5.88557">
        <ele>501.1</ele>
        <time>2024-02-29T14:47:26Z</time>
      </trkpt>
      <trkpt lat="43.58825" lon="5.8855">
        <ele>500.9</ele>
        <time>2024-02-29T14:47:40.000Z</time>
      </trkpt>
      <trkpt lat="43.58827" lon="5.88543">
        <ele>500.5</ele>
        <time>2024-02-29T14:47:54Z</time>
      </trkpt>
      <trkpt lat="43.58829" lon="5.88536">
        <ele>500.1</ele>
        <time>2024-02-29T14:48:00.000Z</time>
      </trkpt>
      <trkpt lat="43.58831" lon="5.88529">
        <ele>499.5</ele>
        <time>2024-02-29T14:48:06Z</time>
      </trkpt>
      <trkpt lat="43.58836" lon="5.88529">
        <ele>499.9</ele>
        <time>2024-02-29T14:48:13.000Z</time>
      </trkpt>
      <trkpt lat="43.5884" lon="5.88528">
        <ele>499.3</ele>
        <time>2024-02-29T14:48:20Z</time>
      </trkpt>
      <trkpt lat="43.58845" lon="5.8853">
        <ele>499.2</ele>
        <time>2024-02-29T14:48:41.500Z</time>
      </trkpt>
      <trkpt lat="43.58849" lon="5.88531">
        <ele>499.1</ele>
        <time>2024-02-29T14:49:03Z</time>
      </trkpt>
      <trkpt lat="43.5885" lon="5.88532">
        <ele>499.2</ele>
        <time>2024-02-29T14:49:26Z</time>
      </trkpt>
      <trkpt lat="43.58845" lon="5.8853">
        <ele>499.2</ele>
        <time>2024-02-29T14:49:46Z</time>
      </trkpt>
      <trkpt lat="43.58841" lon="5.8853">
        <ele>499.6</ele>
        <time>2024-02-29T14:50:00Z</time>
      </trkpt>
      <trkpt lat="43.58834" lon="5.88527">
        <ele>499.8</ele>
        <time>2024-02-29T14:50:21Z</time>
      </trkpt>
      <trkpt lat="43.58831" lon="5.88517">
        <ele>497.4</ele>
        <time>2024-02-29T14:50:40Z</time>
      </trkpt>
      <trkpt lat="43.58834" lon="5.88508">
        <ele>496.3</ele>
        <time>2024-02-29T14:50:45.500Z</time>
      </trkpt>
      <trkpt lat="43.58836" lon="5.88498">
        <ele>494.5</ele>
        <time>2024-02-29T14:50:51Z</time>
      </trkpt>
      <trkpt lat="43.58838" lon="5.88491">
        <ele>493.2</ele>
        <time>2024-02-29T14:50:57.000Z</time>
      </trkpt>
      <trkpt lat="43.5884" lon="5.88484">
        <ele>491.9</ele>
        <time>2024-02-29T14:51:03Z</time>
      </trkpt>
      <trkpt lat="43.58841" lon="5.88476">
        <ele>490.5</ele>
        <time>2024-02-29T14:51:11.500Z</time>
      </trkpt>
      <trkpt lat="43.58841" lon="5.88467">
        <ele>489.2</ele>
        <time>2024-02-29T14:51:20Z</time>
      </trkpt>
      <trkpt lat="43.58842" lon="5.88461">
        <ele>488.2</ele>
        <time>2024-02-29T14:51:35Z</time>
      </trkpt>
      <trkpt lat="43.58842" lon="5.88457">
        <ele>487.6</ele>
        <time>2024-02-29T14:51:58Z</time>
      </trkpt>
      <trkpt lat="43.58845" lon="5.88449">
        <ele>486.5</ele>
        <time>2024-02-29T14:52:26Z</time>
      </trkpt>
      <trkpt lat="43.58847" lon="5.88437">
        <ele>484.8</ele>
        <time>2024-02-29T14:52:35.301Z</time>
      </trkpt>
      <trkpt lat="43.58853" lon="5.88429">
        <ele>484.3</ele>
        <time>2024-02-29T14:52:44Z</time>
      </trkpt>
      <trkpt lat="43.58858" lon="5.88419">
        <ele>483.7</ele>
        <time>2024-02-29T14:52:57Z</time>
      </trkpt>
      <trkpt lat="43.58859" lon="5.88417">
        <ele>483.7</ele>
        <time>2024-02-29T14:53:15Z</time>
      </trkpt>
      <trkpt lat="43.58857" lon="5.88415">
        <ele>482.6</ele>
        <time>2024-02-29T14:53:40Z</time>
      </trkpt>
      <trkpt lat="43.58855" lon="5.88415">
        <ele>482.3</ele>
        <time>2024-02-29T14:54:05Z</time>
      </trkpt>
      <trkpt lat="43.58851" lon="5.88406">
        <ele>478.8</ele>
        <time>2024-02-29T14:54:25Z</time>
      </trkpt>
      <trkpt lat="43.58852" lon="5.88399">
        <ele>476.6</ele>
        <time>2024-02-29T14:54:36.500Z</time>
      </trkpt>
      <trkpt lat="43.58853" lon="5.88392">
        <ele>474.2</ele>
        <time>2024-02-29T14:54:48Z</time>
      </trkpt>
      <trkpt lat="43.58854" lon="5.88385">
        <ele>472.5</ele>
        <time>2024-02-29T14:54:54.500Z</time>
      </trkpt>
      <trkpt lat="43.58855" lon="5.88378">
        <ele>471.3</ele>
        <time>2024-02-29T14:55:01Z</time>
      </trkpt>
      <trkpt lat="43.5886" lon="5.88376">
        <ele>470.3</ele>
        <time>2024-02-29T14:55:19Z</time>
      </trkpt>
      <trkpt lat="43.58857" lon="5.88379">
        <ele>471.2</ele>
        <time>2024-02-29T14:55:39Z</time>
      </trkpt>
      <trkpt lat="43.58855" lon="5.88381">
        <ele>471.7</ele>
        <time>2024-02-29T14:55:41.773Z</time>
      </trkpt>
      <trkpt lat="43.58853" lon="5.88392">
        <ele>474.2</ele>
        <time>2024-02-29T14:55:51Z</time>
      </trkpt>
      <trkpt lat="43.58851" lon="5.88399">
        <ele>476.6</ele>
        <time>2024-02-29T14:55:56.429Z</time>
      </trkpt>
      <trkpt lat="43.58852" lon="5.88408">
        <ele>479.5</ele>
        <time>2024-02-29T14:56:03Z</time>
      </trkpt>
      <trkpt lat="43.58858" lon="5.88414">
        <ele>482.4</ele>
        <time>2024-02-29T14:56:20.082Z</time>
      </trkpt>
      <trkpt lat="43.58861" lon="5.88414">
        <ele>482.8</ele>
        <time>2024-02-29T14:56:27Z</time>
      </trkpt>
      <trkpt lat="43.58862" lon="5.88422">
        <ele>484.3</ele>
        <time>2024-02-29T14:56:47Z</time>
      </trkpt>
      <trkpt lat="43.58865" lon="5.88431">
        <ele>484.1</ele>
        <time>2024-02-29T14:56:58Z</time>
      </trkpt>
      <trkpt lat="43.58863" lon="5.88442">
        <ele>486.1</ele>
        <time>2024-02-29T14:57:04.754Z</time>
      </trkpt>
      <trkpt lat="43.58863" lon="5.8845">
        <ele>486.9</ele>
        <time>2024-02-29T14:57:09.518Z</time>
      </trkpt>
      <trkpt lat="43.58865" lon="5.88457">
        <ele>487</ele>
        <time>2024-02-29T14:57:14Z</time>
      </trkpt>
      <trkpt lat="43.58871" lon="5.88463">
        <ele>485.4</ele>
        <time>2024-02-29T14:57:28Z</time>
      </trkpt>
      <trkpt lat="43.58871" lon="5.88472">
        <ele>486.4</ele>
        <time>2024-02-29T14:57:37.000Z</time>
      </trkpt>
      <trkpt lat="43.58871" lon="5.8848">
        <ele>487.5</ele>
        <time>2024-02-29T14:57:46Z</time>
      </trkpt>
      <trkpt lat="43.58874" lon="5.88488">
        <ele>487.5</ele>
        <time>2024-02-29T14:57:52.000Z</time>
      </trkpt>
      <trkpt lat="43.58877" lon="5.88495">
        <ele>487.7</ele>
        <time>2024-02-29T14:57:58Z</time>
      </trkpt>
      <trkpt lat="43.58878" lon="5.88502">
        <ele>488.3</ele>
        <time>2024-02-29T14:58:03.000Z</time>
      </trkpt>
      <trkpt lat="43.58879" lon="5.88508">
        <ele>488.6</ele>
        <time>2024-02-29T14:58:08Z</time>
      </trkpt>
      <trkpt lat="43.58879" lon="5.88514">
        <ele>489.2</ele>
        <time>2024-02-29T14:58:30Z</time>
      </trkpt>
      <trkpt lat="43.5888" lon="5.88524">
        <ele>489.8</ele>
        <time>2024-02-29T14:58:49Z</time>
      </trkpt>
      <trkpt lat="43.58887" lon="5.88528">
        <ele>487.7</ele>
        <time>2024-02-29T14:59:27Z</time>
      </trkpt>
      <trkpt lat="43.58888" lon="5.88518">
        <ele>486.8</ele>
        <time>2024-02-29T14:59:32.500Z</time>
      </trkpt>
      <trkpt lat="43.58888" lon="5.88508">
        <ele>485.9</ele>
        <time>2024-02-29T14:59:38Z</time>
      </trkpt>
      <trkpt lat="43.5889" lon="5.88501">
        <ele>484.9</ele>
        <time>2024-02-29T14:59:43.500Z</time>
      </trkpt>
      <trkpt lat="43.58891" lon="5.88494">
        <ele>483.3</ele>
        <time>2024-02-29T14:59:49Z</time>
      </trkpt>
      <trkpt lat="43.58891" lon="5.88487">
        <ele>482.1</ele>
        <time>2024-02-29T15:00:07Z</time>
      </trkpt>
      <trkpt lat="43.58891" lon="5.88475">
        <ele>480</ele>
        <time>2024-02-29T15:00:19Z</time>
      </trkpt>
      <trkpt lat="43.58888" lon="5.88466">
        <ele>479.6</ele>
        <time>2024-02-29T15:00:39Z</time>
      </trkpt>
      <trkpt lat="43.58887" lon="5.88457">
        <ele>479</ele>
        <time>2024-02-29T15:00:48.339Z</time>
      </trkpt>
      <trkpt lat="43.5889" lon="5.88452">
        <ele>477.6</ele>
        <time>2024-02-29T15:00:55Z</time>
      </trkpt>
      <trkpt lat="43.58895" lon="5.88452">
        <ele>476.8</ele>
        <time>2024-02-29T15:01:15Z</time>
      </trkpt>
      <trkpt lat="43.58901" lon="5.88455">
        <ele>476.1</ele>
        <time>2024-02-29T15:01:21.015Z</time>
      </trkpt>
      <trkpt lat="43.58907" lon="5.88449">
        <ele>474.7</ele>
        <time>2024-02-29T15:01:28Z</time>
      </trkpt>
      <trkpt lat="43.58912" lon="5.88448">
        <ele>473.8</ele>
        <time>2024-02-29T15:01:45Z</time>
      </trkpt>
      <trkpt lat="43.58912" lon="5.88442">
        <ele>473.4</ele>
        <time>2024-02-29T15:01:58.819Z</time>
      </trkpt>
      <trkpt lat="43.58911" lon="5.88436">
        <ele>472.9</ele>
        <time>2024-02-29T15:02:13Z</time>
      </trkpt>
      <trkpt lat="43.58907" lon="5.88433">
        <ele>473.1</ele>
        <time>2024-02-29T15:02:22.999Z</time>
      </trkpt>
      <trkpt lat="43.58903" lon="5.88429">
        <ele>473.3</ele>
        <time>2024-02-29T15:02:33Z</time>
      </trkpt>
      <trkpt lat="43.58901" lon="5.88428">
        <ele>473.5</ele>
        <time>2024-02-29T15:03:16.017Z</time>
      </trkpt>
      <trkpt lat="43.589" lon="5.88424">
        <ele>473.2</ele>
        <time>2024-02-29T15:04:18Z</time>
      </trkpt>
      <trkpt lat="43.58894" lon="5.88416">
        <ele>473.1</ele>
        <time>2024-02-29T15:04:47Z</time>
      </trkpt>
      <trkpt lat="43.58891" lon="5.88412">
        <ele>472.9</ele>
        <time>2024-02-29T15:04:53.499Z</time>
      </trkpt>
      <trkpt lat="43.58887" lon="5.88408">
        <ele>473</ele>
        <time>2024-02-29T15:05:00Z</time>
      </trkpt>
      <trkpt lat="43.5889" lon="5.88405">
        <ele>471.7</ele>
        <time>2024-02-29T15:05:04.620Z</time>
      </trkpt>
      <trkpt lat="43.58891" lon="5.884">
        <ele>470.7</ele>
        <time>2024-02-29T15:05:09.306Z</time>
      </trkpt>
      <trkpt lat="43.58891" lon="5.88396">
        <ele>469.9</ele>
        <time>2024-02-29T15:05:12.919Z</time>
      </trkpt>
      <trkpt lat="43.58889" lon="5.88394">
        <ele>469.9</ele>
        <time>2024-02-29T15:05:16Z</time>
      </trkpt>
      <trkpt lat="43.58892" lon="5.88386">
        <ele>467.7</ele>
        <time>2024-02-29T15:05:34Z</time>
      </trkpt>
    </trkseg>
  </trk>
</gpx>